[[{"header":{"parameterUnit":"m.s-1","parameterCategory":1,"la1":31.0,"la2":29.5877,"lo1":-88.7671,"lo2":-86.6584,"dy":0.0162,"dx":0.0185,"nx":115,"ny":88,"refTime":"2024-05-31T12:00:00:Z","depth":0,"parameterNumber":2,"parameterNumberName":"U-component_of_WINDS"},"data":[0.0,0.0,0.0,0.0,0.0,0.0,0.0,0.0,0.0,0.0,0.0,0.0,0.0,0.0,0.0,0.0,0.0,0.0,0.0,0.0,0.0,0.0,0.0,0.0,0.0,0.0,0.0,0.0,0.0,0.0,0.0,0.0,0.0,0.0,0.0,0.0,0.0,0.0,0.0,0.0,0.0,0.0,0.0,0.0,0.0,0.0,0.0,0.0,0.0,0.0,0.0,0.0,0.0,0.0,0.0,0.0,0.0,0.0,0.0,0.0,0.0,0.0,0.0,0.0,0.0,0.0,0.0,0.0,0.0,0.0,0.0,0.0,0.0,0.0,0.0,0.0,0.0,0.0,0.0,0.0,0.0,0.0,0.0,0.0,0.0,0.0,0.0,0.0,0.0,0.0,0.0,0.0,0.0,0.0,0.0,0.0,0.0,0.0,0.0,0.0,0.0,0.0,0.0,0.0,0.0,0.0,0.0,0.0,0.0,0.0,0.0,0.0,0.0,0.0,0.0,0.0,0.0,0.0,0.0,0.0,0.0,0.0,0.0,0.0,0.0,0.0,0.0,0.0,0.0,0.0,0.0,0.0,0.0,0.0,0.0,0.0,0.0,0.0,0.0,0.0,0.0,0.0,0.0,0.0,0.0,0.0,0.0,0.0,0.0,0.0,0.0,0.0,0.0,0.0,0.0,0.0,0.0,0.0,0.0,0.0,0.0,0.0,0.0,0.0,0.0,0.0,0.0,0.0,0.0,0.0,0.0,0.0,0.0,0.0,0.0,0.0,0.0,0.0,0.0,0.0,0.0,0.0,0.0,0.0,0.0,0.0,0.0,0.0,0.0,0.0,0.0,0.0,0.0,0.0,0.0,0.0,0.0,0.0,0.0,0.0,0.0,0.0,0.0,0.0,0.0,0.0,0.0,0.0,0.0,0.0,0.0,0.0,0.0,0.0,0.0,0.0,0.0,0.0,0.0,0.0,0.0,0.0,0.0,0.0,0.0,0.0,0.0,0.0,0.0,0.0,0.0,0.0,0.0,0.0,0.0,0.0,0.0,0.0,0.0,0.0,0.0,0.0,0.0,0.0,0.0,0.0,0.0,0.0,0.0,0.0,0.0,0.0,0.0,0.0,0.0,0.0,0.0,0.0,0.0,0.0,0.0,0.0,0.0,0.0,0.0,0.0,0.0,0.0,0.0,0.0,0.0,0.0,0.0,0.0,0.0,0.0,0.0,0.0,0.0,0.0,0.0,0.0,0.0,0.0,0.0,0.0,0.0,0.0,0.0,0.0,0.0,0.0,0.0,0.0,0.0,0.0,0.0,0.0,0.0,0.0,0.0,0.0,0.0,0.0,0.0,0.0,0.0,0.0,0.0,0.0,0.0,0.0,0.0,0.0,0.0,0.0,0.0,0.0,0.0,0.0,0.0,0.0,0.0,0.0,0.0,0.0,0.0,0.0,0.0,0.0,0.0,0.0,0.0,0.0,0.0,0.0,0.0,0.0,0.0,0.0,0.0,0.0,0.0,0.0,0.0,0.0,0.0,0.0,0.0,0.0,0.0,0.0,0.0,0.0,0.0,0.0,0.0,0.0,0.0,0.0,0.0,0.0,0.0,0.0,0.0,0.0,0.0,0.0,0.0,0.0,0.0,0.0,0.0,0.0,0.0,0.0,0.0,0.0,0.0,0.0,0.0,0.0,0.0,0.0,0.0,0.0,0.0,0.0,0.0,0.0,0.0,0.0,0.0,0.0,0.0,0.0,0.0,0.0,0.0,0.0,0.0,0.0,0.0,0.0,0.0,0.0,0.0,0.0,0.0,0.0,0.0,0.0,0.0,0.0,0.0,0.0,0.0,0.0,0.0,0.0,0.0,0.0,0.0,0.0,0.0,0.0,0.0,0.0,0.0,0.0,0.0,0.0,0.0,0.0,0.0,0.0,0.0,0.0,0.0,0.0,0.0,0.0,0.0,0.0,0.0,0.0,0.0,0.0,0.0,0.0,0.0,0.0,0.0,0.0,0.0,0.0,0.0,0.0,0.0,0.0,0.0,0.0,0.0,0.0,0.0,0.0,0.0,0.0,0.0,0.0,0.0,0.0,0.0,0.0,0.0,0.0,0.0,0.0,0.0,0.0,0.0,0.0,0.0,0.0,0.0,0.0,0.0,0.0,0.0,0.0,0.0,0.0,0.0,0.0,0.0,0.0,0.0,0.0,0.0,0.0,0.0,0.0,0.0,0.0,0.0,0.0,0.0,0.0,0.0,0.0,0.0,0.0,0.0,0.0,0.0,0.0,0.0,0.0,0.0,0.0,0.0,0.0,0.0,0.0,0.0,0.0,0.0,0.0,0.0,0.0,0.0,0.0,0.0,0.0,0.0,0.0,0.0,0.0,0.0,0.0,0.0,0.0,0.0,0.0,0.0,0.0,0.0,0.0,0.0,0.0,0.0,0.0,0.0,0.0,0.0,0.0,0.0,0.0,0.0,0.0,0.0,0.0,0.0,0.0,0.0,0.0,0.0,0.0,0.0,0.0,0.0,0.0,0.0,0.0,0.0,0.0,0.0,0.0,0.0,0.0,0.0,0.0,0.0,0.0,0.0,0.0,0.0,0.0,0.0,0.0,0.0,0.0,0.0,0.0,0.0,0.0,0.0,0.0,0.0,0.0,0.0,0.0,0.0,0.0,0.0,0.0,0.0,0.0,0.0,0.0,0.0,0.0,0.0,0.0,0.0,0.0,0.0,0.0,0.0,0.0,0.0,0.0,0.0,0.0,0.0,0.0,0.0,0.0,0.0,0.0,0.0,0.0,0.0,0.0,0.0,0.0,0.0,0.0,0.0,0.0,0.0,0.0,0.0,0.0,0.0,0.0,0.0,0.0,0.0,0.0,0.0,0.0,0.0,0.0,0.0,0.0,0.0,0.0,0.0,0.0,0.0,0.0,0.0,0.0,0.0,0.0,0.0,0.0,0.0,0.0,0.0,0.0,0.0,0.0,0.0,0.0,0.0,0.0,0.0,0.0,0.0,0.0,0.0,0.0,0.0,0.0,0.0,0.0,0.0,0.0,0.0,0.0,0.0,0.0,0.0,0.0,0.0,0.0,0.0,0.0,0.0,0.0,0.0,0.0,0.0,0.0,0.0,0.0,0.0,0.0,0.0,0.0,0.0,0.0,0.0,0.0,0.0,0.0,0.0,0.0,0.0,0.0,0.0,0.0,0.0,0.0,0.0,0.0,0.0,0.0,0.0,0.0,0.0,0.0,0.0,0.0,0.0,0.0,0.0,0.0,0.0,0.0,0.0,0.0,0.0,0.0,0.0,0.0,0.0,0.0,0.0,0.0,0.0,0.0,0.0,0.0,0.0,0.0,0.0,0.0,0.0,0.0,0.0,0.0,0.0,0.0,0.0,0.0,0.0,0.0,0.0,0.0,0.0,0.0,0.0,0.0,0.0,0.0,0.0,0.0,0.0,0.0,0.0,0.0,0.0,0.0,0.0,0.0,0.0,0.0,0.0,0.0,0.0,0.0,0.0,0.0,0.0,0.0,0.0,0.0,0.0,0.0,0.0,0.0,0.0,0.0,0.0,0.0,0.0,0.0,0.0,0.0,0.0,0.0,0.0,0.0,0.0,0.0,0.0,0.0,0.0,0.0,0.0,0.0,0.0,0.0,0.0,0.0,0.0,0.0,0.0,0.0,0.0,0.0,0.0,0.0,0.0,0.0,0.0,0.0,0.0,0.0,0.0,0.0,0.0,0.0,0.0,0.0,0.0,0.0,0.0,0.0,0.0,0.0,0.0,0.0,0.0,0.0,0.0,0.0,0.0,0.0,0.0,0.0,0.0,0.0,0.0,0.0,0.0,0.0,0.0,0.0,0.0,0.0,0.0,0.0,0.0,0.0,0.0,0.0,0.0,0.0,0.0,0.0,0.0,0.0,0.0,0.0,0.0,0.0,0.0,0.0,0.0,0.0,0.0,0.0,0.0,0.0,0.0,0.0,0.0,0.0,0.0,0.0,0.0,0.0,0.0,0.0,0.0,0.0,0.0,0.0,0.0,0.0,0.0,0.0,0.0,0.0,0.0,0.0,0.0,0.0,0.0,0.0,0.0,0.0,0.0,0.0,0.0,0.0,0.0,0.0,0.0,0.0,0.0,0.0,0.0,0.0,0.0,0.0,0.0,0.0,0.0,0.0,0.0,0.0,0.0,0.0,0.0,0.0,0.0,0.0,0.0,0.0,0.0,0.0,0.0,0.0,0.0,0.0,0.0,0.0,0.0,0.0,0.0,0.0,-3.0959,0.0,0.0,0.0,0.0,0.0,0.0,0.0,0.0,0.0,0.0,0.0,0.0,0.0,0.0,0.0,0.0,0.0,0.0,0.0,0.0,0.0,0.0,0.0,0.0,0.0,0.0,0.0,0.0,0.0,0.0,0.0,0.0,0.0,0.0,0.0,0.0,0.0,0.0,0.0,0.0,0.0,0.0,0.0,0.0,0.0,0.0,0.0,0.0,0.0,0.0,0.0,0.0,0.0,0.0,0.0,0.0,0.0,0.0,0.0,0.0,0.0,0.0,0.0,0.0,0.0,0.0,0.0,0.0,0.0,0.0,0.0,0.0,0.0,0.0,0.0,0.0,0.0,0.0,0.0,0.0,0.0,0.0,0.0,0.0,0.0,0.0,0.0,0.0,0.0,0.0,0.0,0.0,0.0,0.0,0.0,0.0,0.0,0.0,0.0,0.0,0.0,0.0,0.0,0.0,0.0,0.0,0.0,0.0,0.0,0.0,-3.3277,-3.2687,-3.2415,-3.2208,-3.2021,0.0,0.0,0.0,0.0,0.0,0.0,0.0,0.0,0.0,0.0,0.0,0.0,0.0,0.0,0.0,0.0,0.0,0.0,0.0,0.0,0.0,0.0,0.0,0.0,0.0,0.0,0.0,0.0,0.0,0.0,0.0,0.0,0.0,0.0,0.0,0.0,0.0,0.0,0.0,0.0,0.0,0.0,0.0,0.0,0.0,0.0,0.0,0.0,0.0,0.0,0.0,0.0,0.0,0.0,0.0,0.0,0.0,0.0,0.0,0.0,0.0,0.0,0.0,0.0,0.0,0.0,0.0,0.0,0.0,0.0,0.0,0.0,0.0,0.0,0.0,0.0,0.0,0.0,0.0,0.0,0.0,0.0,0.0,0.0,0.0,0.0,0.0,0.0,0.0,0.0,0.0,0.0,0.0,0.0,0.0,0.0,0.0,0.0,0.0,0.0,0.0,0.0,0.0,0.0,0.0,0.0,0.0,0.0,0.0,0.0,0.0,0.0,-3.2726,-3.2551,-3.2482,0.0,0.0,0.0,0.0,0.0,0.0,0.0,0.0,0.0,0.0,0.0,0.0,0.0,0.0,0.0,0.0,0.0,0.0,0.0,0.0,0.0,0.0,0.0,0.0,0.0,0.0,0.0,0.0,0.0,0.0,0.0,0.0,0.0,0.0,0.0,0.0,0.0,0.0,0.0,0.0,0.0,0.0,0.0,0.0,0.0,0.0,0.0,0.0,0.0,0.0,0.0,0.0,0.0,0.0,0.0,0.0,0.0,0.0,0.0,0.0,0.0,0.0,0.0,0.0,0.0,0.0,0.0,0.0,0.0,0.0,0.0,0.0,0.0,0.0,0.0,0.0,0.0,0.0,0.0,0.0,0.0,0.0,0.0,0.0,0.0,0.0,0.0,0.0,0.0,0.0,0.0,0.0,0.0,0.0,0.0,0.0,0.0,0.0,0.0,0.0,0.0,0.0,0.0,0.0,0.0,0.0,0.0,0.0,0.0,0.0,-3.3253,-3.2511,-3.2426,0.0,-3.1355,0.0,0.0,0.0,0.0,0.0,0.0,0.0,0.0,0.0,0.0,0.0,0.0,0.0,0.0,0.0,0.0,0.0,0.0,0.0,0.0,0.0,0.0,0.0,0.0,0.0,0.0,0.0,0.0,0.0,0.0,0.0,0.0,0.0,0.0,0.0,0.0,0.0,0.0,0.0,0.0,0.0,0.0,0.0,0.0,0.0,0.0,0.0,0.0,0.0,0.0,0.0,0.0,0.0,0.0,0.0,0.0,0.0,0.0,0.0,0.0,0.0,0.0,0.0,0.0,0.0,0.0,0.0,0.0,0.0,0.0,0.0,0.0,0.0,0.0,0.0,0.0,0.0,0.0,0.0,0.0,0.0,0.0,0.0,0.0,0.0,0.0,0.0,0.0,0.0,0.0,0.0,0.0,0.0,0.0,0.0,0.0,0.0,0.0,0.0,0.0,0.0,0.0,0.0,0.0,0.0,0.0,0.0,0.0,0.0,0.0,-3.3388,-3.296,-3.2595,-3.2016,0.0,0.0,0.0,0.0,0.0,0.0,0.0,0.0,0.0,0.0,0.0,0.0,0.0,0.0,0.0,0.0,0.0,0.0,0.0,0.0,0.0,0.0,0.0,0.0,0.0,0.0,0.0,0.0,0.0,0.0,0.0,0.0,0.0,0.0,0.0,0.0,0.0,0.0,0.0,0.0,0.0,0.0,0.0,0.0,0.0,0.0,0.0,0.0,0.0,0.0,0.0,0.0,0.0,0.0,0.0,0.0,0.0,0.0,0.0,0.0,0.0,0.0,0.0,0.0,0.0,0.0,0.0,0.0,0.0,0.0,0.0,0.0,0.0,0.0,0.0,0.0,0.0,0.0,0.0,0.0,0.0,0.0,0.0,0.0,0.0,0.0,0.0,0.0,0.0,0.0,0.0,0.0,0.0,0.0,0.0,0.0,0.0,0.0,0.0,0.0,0.0,0.0,0.0,0.0,0.0,0.0,0.0,0.0,0.0,0.0,-3.4229,-3.369,-3.3142,-3.2651,-3.2072,-3.1388,0.0,0.0,0.0,0.0,0.0,0.0,0.0,0.0,0.0,0.0,0.0,0.0,0.0,0.0,0.0,0.0,0.0,0.0,0.0,0.0,0.0,0.0,0.0,0.0,0.0,0.0,0.0,0.0,0.0,0.0,0.0,0.0,0.0,0.0,0.0,0.0,0.0,0.0,0.0,0.0,0.0,0.0,0.0,0.0,0.0,0.0,0.0,0.0,0.0,0.0,0.0,0.0,0.0,0.0,0.0,0.0,0.0,0.0,0.0,0.0,0.0,0.0,0.0,0.0,0.0,0.0,0.0,0.0,0.0,0.0,0.0,0.0,0.0,0.0,0.0,0.0,0.0,0.0,0.0,0.0,0.0,0.0,0.0,0.0,0.0,0.0,0.0,0.0,0.0,0.0,0.0,0.0,0.0,0.0,0.0,0.0,0.0,0.0,0.0,0.0,0.0,0.0,0.0,0.0,0.0,0.0,0.0,0.0,0.0,-3.4405,-3.4127,-3.2783,-3.2529,-3.2199,0.0,0.0,0.0,0.0,0.0,0.0,0.0,0.0,0.0,0.0,0.0,0.0,0.0,0.0,0.0,0.0,0.0,0.0,0.0,0.0,0.0,0.0,0.0,0.0,0.0,0.0,0.0,0.0,0.0,0.0,0.0,0.0,0.0,0.0,0.0,0.0,0.0,0.0,0.0,0.0,0.0,0.0,0.0,0.0,0.0,0.0,0.0,0.0,0.0,0.0,0.0,0.0,0.0,0.0,0.0,0.0,0.0,0.0,0.0,0.0,0.0,0.0,0.0,0.0,0.0,0.0,0.0,0.0,0.0,0.0,0.0,0.0,0.0,0.0,0.0,0.0,0.0,0.0,0.0,0.0,0.0,0.0,0.0,0.0,0.0,0.0,0.0,0.0,0.0,0.0,0.0,0.0,0.0,0.0,0.0,0.0,0.0,0.0,0.0,0.0,0.0,0.0,0.0,0.0,0.0,0.0,0.0,0.0,0.0,-3.5985,-3.5638,-3.4561,-3.2823,-3.3004,-3.2729,0.0,0.0,0.0,0.0,0.0,0.0,0.0,0.0,0.0,0.0,0.0,0.0,0.0,0.0,0.0,0.0,0.0,0.0,0.0,0.0,0.0,0.0,0.0,0.0,0.0,0.0,0.0,0.0,0.0,0.0,0.0,0.0,0.0,0.0,0.0,0.0,0.0,0.0,0.0,0.0,0.0,0.0,0.0,0.0,0.0,0.0,0.0,0.0,0.0,0.0,0.0,0.0,0.0,0.0,0.0,0.0,0.0,0.0,0.0,0.0,0.0,0.0,0.0,0.0,0.0,0.0,0.0,0.0,0.0,0.0,0.0,0.0,0.0,0.0,0.0,0.0,0.0,0.0,0.0,0.0,0.0,0.0,0.0,0.0,0.0,0.0,0.0,0.0,0.0,0.0,0.0,0.0,0.0,0.0,0.0,0.0,0.0,0.0,0.0,0.0,0.0,0.0,0.0,0.0,0.0,0.0,0.0,0.0,0.0,-3.7997,0.0,-3.5762,0.0,-3.4199,-3.3649,0.0,0.0,0.0,0.0,0.0,0.0,0.0,0.0,0.0,0.0,0.0,0.0,0.0,0.0,0.0,0.0,0.0,0.0,0.0,0.0,0.0,0.0,0.0,0.0,0.0,0.0,0.0,0.0,0.0,0.0,0.0,0.0,0.0,0.0,0.0,0.0,0.0,0.0,0.0,0.0,0.0,0.0,0.0,0.0,0.0,0.0,0.0,0.0,0.0,0.0,0.0,0.0,0.0,0.0,0.0,0.0,0.0,0.0,0.0,0.0,0.0,0.0,0.0,0.0,0.0,0.0,0.0,0.0,0.0,0.0,0.0,0.0,0.0,0.0,0.0,0.0,0.0,0.0,0.0,0.0,0.0,0.0,0.0,0.0,0.0,0.0,0.0,0.0,0.0,0.0,0.0,0.0,0.0,0.0,0.0,0.0,0.0,0.0,0.0,0.0,0.0,0.0,0.0,0.0,0.0,0.0,0.0,0.0,-3.8947,-3.9428,-3.8466,-3.7725,-3.7273,-3.6127,-3.5054,0.0,0.0,0.0,0.0,0.0,0.0,0.0,0.0,0.0,0.0,0.0,0.0,0.0,0.0,0.0,0.0,0.0,0.0,0.0,0.0,0.0,0.0,0.0,0.0,0.0,0.0,0.0,0.0,0.0,0.0,0.0,0.0,0.0,0.0,0.0,0.0,0.0,0.0,0.0,0.0,0.0,0.0,0.0,0.0,0.0,0.0,0.0,0.0,0.0,0.0,0.0,0.0,0.0,0.0,0.0,0.0,0.0,0.0,0.0,0.0,0.0,0.0,0.0,0.0,0.0,0.0,0.0,0.0,0.0,0.0,0.0,0.0,0.0,0.0,0.0,0.0,0.0,0.0,0.0,0.0,0.0,0.0,0.0,0.0,0.0,0.0,0.0,0.0,0.0,0.0,0.0,0.0,0.0,0.0,0.0,0.0,0.0,0.0,0.0,0.0,0.0,0.0,0.0,0.0,0.0,0.0,0.0,0.0,0.0,-4.04,-4.0079,-3.9516,-3.8617,-3.7829,-3.6814,0.0,0.0,0.0,0.0,0.0,0.0,0.0,0.0,0.0,0.0,0.0,0.0,0.0,0.0,0.0,0.0,0.0,0.0,0.0,0.0,0.0,0.0,0.0,0.0,0.0,0.0,0.0,0.0,0.0,0.0,0.0,0.0,0.0,0.0,0.0,0.0,0.0,0.0,0.0,0.0,0.0,0.0,0.0,0.0,0.0,0.0,0.0,0.0,0.0,0.0,0.0,0.0,0.0,0.0,0.0,0.0,0.0,0.0,0.0,0.0,0.0,0.0,0.0,0.0,0.0,0.0,0.0,0.0,0.0,0.0,0.0,0.0,0.0,0.0,0.0,0.0,0.0,0.0,0.0,0.0,0.0,0.0,0.0,0.0,0.0,0.0,0.0,0.0,0.0,0.0,0.0,0.0,0.0,0.0,0.0,0.0,0.0,0.0,0.0,0.0,0.0,0.0,0.0,0.0,0.0,0.0,0.0,0.0,0.0,-4.3678,-4.3011,-4.2486,-4.2041,-4.0685,-3.9073,-3.7129,0.0,0.0,0.0,0.0,0.0,0.0,0.0,0.0,0.0,0.0,0.0,0.0,0.0,0.0,0.0,0.0,0.0,0.0,0.0,0.0,0.0,0.0,0.0,0.0,0.0,0.0,0.0,0.0,0.0,0.0,0.0,0.0,0.0,0.0,0.0,0.0,0.0,0.0,0.0,0.0,0.0,0.0,0.0,0.0,0.0,0.0,0.0,0.0,0.0,0.0,0.0,0.0,0.0,0.0,0.0,0.0,0.0,0.0,0.0,0.0,0.0,0.0,0.0,0.0,0.0,0.0,0.0,0.0,0.0,0.0,0.0,0.0,0.0,0.0,0.0,0.0,0.0,0.0,0.0,0.0,0.0,0.0,0.0,0.0,0.0,0.0,0.0,0.0,0.0,0.0,0.0,0.0,0.0,0.0,0.0,0.0,0.0,0.0,0.0,0.0,0.0,0.0,0.0,0.0,0.0,0.0,0.0,0.0,-4.8745,-4.7159,-4.6557,-4.6857,-4.4325,-4.1704,0.0,0.0,0.0,0.0,0.0,0.0,0.0,0.0,0.0,0.0,0.0,0.0,0.0,0.0,0.0,0.0,0.0,0.0,0.0,0.0,0.0,0.0,0.0,0.0,0.0,0.0,0.0,0.0,0.0,0.0,0.0,0.0,0.0,0.0,0.0,0.0,0.0,0.0,0.0,0.0,0.0,0.0,0.0,0.0,0.0,0.0,0.0,0.0,0.0,0.0,0.0,0.0,0.0,0.0,0.0,0.0,0.0,0.0,0.0,0.0,0.0,0.0,0.0,0.0,0.0,0.0,0.0,0.0,0.0,0.0,0.0,0.0,0.0,0.0,0.0,0.0,0.0,0.0,0.0,0.0,0.0,0.0,0.0,0.0,0.0,0.0,0.0,0.0,0.0,0.0,0.0,0.0,0.0,0.0,0.0,0.0,0.0,0.0,0.0,0.0,0.0,0.0,0.0,0.0,0.0,0.0,0.0,0.0,0.0,-5.2766,-5.2907,-5.1763,-4.9278,-4.6358,-4.4128,0.0,0.0,0.0,0.0,0.0,0.0,0.0,0.0,0.0,0.0,0.0,0.0,0.0,0.0,0.0,0.0,0.0,0.0,0.0,0.0,0.0,0.0,0.0,0.0,0.0,0.0,0.0,0.0,0.0,0.0,0.0,0.0,0.0,0.0,0.0,0.0,0.0,0.0,0.0,0.0,0.0,0.0,0.0,0.0,0.0,0.0,0.0,0.0,0.0,0.0,0.0,0.0,0.0,0.0,0.0,0.0,0.0,0.0,0.0,0.0,0.0,0.0,0.0,0.0,0.0,0.0,0.0,0.0,0.0,0.0,0.0,0.0,0.0,0.0,0.0,0.0,0.0,0.0,0.0,0.0,0.0,0.0,0.0,0.0,0.0,0.0,0.0,0.0,0.0,0.0,0.0,0.0,0.0,0.0,0.0,0.0,0.0,0.0,0.0,0.0,0.0,0.0,0.0,0.0,0.0,0.0,0.0,0.0,-5.2722,-5.442,-5.6188,-5.5809,-5.31,-4.9387,-4.6544,0.0,0.0,0.0,0.0,0.0,0.0,0.0,0.0,0.0,0.0,0.0,0.0,0.0,0.0,0.0,0.0,0.0,0.0,0.0,0.0,0.0,0.0,0.0,0.0,0.0,0.0,0.0,0.0,0.0,0.0,0.0,0.0,0.0,0.0,0.0,0.0,0.0,0.0,0.0,0.0,0.0,0.0,0.0,0.0,0.0,0.0,0.0,0.0,0.0,0.0,0.0,0.0,0.0,0.0,0.0,0.0,0.0,0.0,0.0,0.0,0.0,0.0,0.0,0.0,0.0,0.0,0.0,0.0,0.0,0.0,0.0,0.0,0.0,0.0,0.0,0.0,0.0,0.0,0.0,0.0,0.0,0.0,0.0,0.0,0.0,0.0,0.0,0.0,0.0,0.0,0.0,0.0,0.0,0.0,0.0,0.0,0.0,0.0,0.0,0.0,0.0,0.0,0.0,0.0,0.0,0.0,0.0,0.0,-5.4989,-5.4979,-5.7867,-5.8719,-5.7132,-5.2671,-4.8829,0.0,0.0,0.0,0.0,0.0,0.0,0.0,0.0,0.0,0.0,0.0,0.0,0.0,0.0,0.0,0.0,0.0,0.0,0.0,0.0,0.0,0.0,0.0,0.0,0.0,0.0,0.0,0.0,0.0,0.0,0.0,0.0,0.0,0.0,0.0,0.0,0.0,0.0,0.0,0.0,0.0,0.0,0.0,0.0,0.0,0.0,0.0,0.0,0.0,0.0,0.0,0.0,0.0,0.0,0.0,0.0,0.0,0.0,0.0,0.0,0.0,0.0,0.0,0.0,0.0,0.0,0.0,0.0,0.0,0.0,0.0,0.0,0.0,0.0,0.0,0.0,0.0,0.0,0.0,0.0,0.0,0.0,0.0,0.0,0.0,0.0,0.0,0.0,0.0,0.0,0.0,0.0,0.0,0.0,0.0,0.0,0.0,0.0,0.0,0.0,0.0,0.0,0.0,0.0,0.0,0.0,0.0,0.0,-5.6975,-5.8522,-5.9639,-5.9419,-5.7907,-5.3331,-5.0201,0.0,0.0,0.0,0.0,0.0,0.0,0.0,0.0,0.0,0.0,0.0,0.0,0.0,0.0,0.0,0.0,0.0,0.0,0.0,0.0,0.0,0.0,0.0,0.0,0.0,0.0,0.0,0.0,0.0,0.0,0.0,0.0,0.0,0.0,0.0,0.0,0.0,0.0,0.0,0.0,0.0,0.0,0.0,0.0,0.0,0.0,0.0,0.0,-4.2612,0.0,0.0,0.0,0.0,0.0,0.0,0.0,0.0,0.0,0.0,0.0,0.0,0.0,0.0,0.0,0.0,0.0,0.0,0.0,0.0,0.0,0.0,0.0,0.0,0.0,0.0,0.0,0.0,0.0,0.0,0.0,0.0,0.0,0.0,0.0,0.0,0.0,0.0,0.0,0.0,0.0,0.0,0.0,0.0,0.0,0.0,0.0,0.0,0.0,0.0,0.0,0.0,0.0,0.0,0.0,0.0,0.0,0.0,0.0,-5.777,-5.9456,-6.021,-5.9743,-5.7948,-5.4802,-5.206,0.0,0.0,0.0,0.0,0.0,0.0,0.0,0.0,0.0,0.0,0.0,0.0,0.0,0.0,0.0,0.0,0.0,0.0,0.0,0.0,0.0,0.0,0.0,0.0,0.0,0.0,0.0,0.0,0.0,0.0,0.0,0.0,0.0,0.0,0.0,0.0,0.0,0.0,0.0,0.0,0.0,0.0,0.0,0.0,0.0,0.0,0.0,0.0,0.0,0.0,0.0,0.0,0.0,0.0,0.0,0.0,0.0,0.0,0.0,0.0,0.0,0.0,0.0,0.0,0.0,0.0,0.0,0.0,0.0,0.0,0.0,0.0,0.0,0.0,0.0,0.0,0.0,0.0,0.0,0.0,0.0,0.0,0.0,0.0,0.0,0.0,0.0,0.0,0.0,0.0,0.0,0.0,0.0,0.0,0.0,0.0,0.0,0.0,0.0,0.0,0.0,0.0,0.0,0.0,0.0,0.0,0.0,-5.6036,-5.8363,-5.9759,-6.0487,-5.99,-5.7882,-5.6268,-5.3663,-4.991,0.0,0.0,0.0,0.0,0.0,0.0,0.0,0.0,0.0,0.0,0.0,0.0,0.0,0.0,0.0,0.0,0.0,0.0,0.0,0.0,0.0,0.0,0.0,0.0,0.0,0.0,0.0,0.0,0.0,0.0,0.0,0.0,0.0,0.0,0.0,0.0,0.0,0.0,-4.1808,-4.3728,0.0,0.0,0.0,0.0,0.0,0.0,0.0,0.0,-4.4835,0.0,0.0,0.0,0.0,0.0,0.0,0.0,0.0,0.0,0.0,0.0,0.0,0.0,0.0,0.0,0.0,0.0,0.0,0.0,0.0,0.0,0.0,0.0,0.0,0.0,0.0,0.0,0.0,0.0,0.0,0.0,0.0,0.0,0.0,0.0,0.0,0.0,0.0,0.0,0.0,0.0,0.0,0.0,0.0,0.0,0.0,0.0,0.0,0.0,0.0,0.0,0.0,0.0,0.0,0.0,0.0,-5.6201,-5.8291,-6.0215,-6.206,-6.1726,-6.0383,-5.8055,-5.6395,-5.3871,-5.0258,0.0,0.0,0.0,0.0,0.0,0.0,0.0,0.0,0.0,0.0,0.0,0.0,0.0,0.0,0.0,0.0,0.0,0.0,0.0,0.0,0.0,0.0,0.0,0.0,0.0,0.0,0.0,0.0,0.0,0.0,0.0,0.0,0.0,0.0,0.0,0.0,0.0,0.0,0.0,-4.558,-4.6786,0.0,0.0,0.0,0.0,0.0,0.0,0.0,0.0,-4.5119,0.0,0.0,0.0,0.0,0.0,0.0,0.0,0.0,0.0,0.0,0.0,0.0,0.0,0.0,0.0,0.0,0.0,0.0,0.0,0.0,0.0,0.0,0.0,0.0,0.0,0.0,0.0,0.0,0.0,0.0,0.0,0.0,0.0,0.0,0.0,0.0,0.0,0.0,0.0,0.0,0.0,0.0,0.0,0.0,0.0,0.0,0.0,0.0,0.0,0.0,0.0,0.0,0.0,0.0,0.0,-5.5926,-5.793,-5.9866,-6.1796,-6.1577,-6.0458,-5.855,-5.7242,-5.4809,0.0,0.0,0.0,0.0,0.0,0.0,0.0,0.0,0.0,0.0,0.0,0.0,0.0,0.0,0.0,0.0,0.0,0.0,0.0,0.0,0.0,0.0,0.0,0.0,0.0,0.0,0.0,0.0,0.0,0.0,0.0,0.0,0.0,0.0,0.0,0.0,0.0,0.0,0.0,0.0,-4.6936,-4.8135,-4.8723,0.0,0.0,0.0,0.0,0.0,0.0,-4.6611,-4.6005,0.0,0.0,0.0,0.0,0.0,0.0,0.0,0.0,0.0,0.0,0.0,0.0,0.0,0.0,0.0,0.0,0.0,0.0,0.0,0.0,0.0,0.0,0.0,0.0,0.0,0.0,0.0,0.0,0.0,0.0,0.0,0.0,0.0,0.0,0.0,0.0,0.0,0.0,0.0,0.0,0.0,0.0,0.0,0.0,0.0,0.0,0.0,0.0,0.0,0.0,0.0,0.0,0.0,0.0,0.0,-5.539,-5.7315,-5.9142,-6.0887,-6.101,-6.029,-5.8745,-5.7527,-5.5129,0.0,0.0,0.0,0.0,0.0,0.0,0.0,0.0,0.0,0.0,0.0,0.0,0.0,0.0,0.0,0.0,0.0,0.0,0.0,0.0,0.0,0.0,0.0,0.0,0.0,0.0,0.0,0.0,0.0,0.0,0.0,0.0,0.0,0.0,0.0,0.0,0.0,0.0,0.0,0.0,0.0,-4.8827,-4.8914,-4.9528,0.0,0.0,0.0,0.0,-4.7956,-4.7419,0.0,0.0,0.0,0.0,0.0,0.0,0.0,0.0,0.0,0.0,0.0,0.0,0.0,0.0,0.0,0.0,0.0,0.0,0.0,0.0,0.0,0.0,0.0,0.0,0.0,0.0,0.0,0.0,0.0,0.0,0.0,0.0,0.0,0.0,0.0,0.0,0.0,0.0,0.0,0.0,0.0,0.0,0.0,0.0,0.0,0.0,0.0,0.0,0.0,0.0,0.0,0.0,0.0,0.0,0.0,0.0,-5.6599,-5.8003,-5.9305,-6.0661,-6.0753,-5.9927,-5.8218,-5.5693,-5.3451,0.0,0.0,0.0,0.0,0.0,0.0,0.0,0.0,0.0,0.0,0.0,0.0,0.0,0.0,0.0,0.0,0.0,0.0,0.0,0.0,0.0,0.0,0.0,0.0,0.0,0.0,0.0,0.0,0.0,0.0,0.0,0.0,0.0,0.0,0.0,0.0,0.0,0.0,0.0,0.0,0.0,-4.8185,-4.943,-5.0481,-5.0816,0.0,0.0,-5.0104,-4.9392,-4.8742,0.0,0.0,0.0,0.0,0.0,0.0,0.0,0.0,0.0,0.0,0.0,0.0,0.0,0.0,0.0,0.0,0.0,0.0,0.0,0.0,0.0,0.0,0.0,0.0,0.0,0.0,0.0,0.0,0.0,0.0,0.0,0.0,0.0,0.0,0.0,0.0,0.0,0.0,0.0,0.0,0.0,0.0,0.0,0.0,0.0,0.0,0.0,0.0,0.0,0.0,0.0,0.0,0.0,0.0,0.0,-5.1047,-5.5664,-5.6825,-5.7986,-5.9248,-5.9278,-5.9027,-5.8465,-5.5766,-5.3617,0.0,0.0,0.0,0.0,0.0,0.0,0.0,0.0,0.0,0.0,0.0,0.0,0.0,0.0,0.0,0.0,0.0,0.0,0.0,0.0,0.0,0.0,0.0,0.0,0.0,0.0,0.0,0.0,0.0,0.0,0.0,0.0,0.0,0.0,0.0,0.0,0.0,0.0,0.0,0.0,0.0,0.0,-4.8895,-5.0161,0.0,0.0,0.0,-5.0188,-4.9141,0.0,0.0,0.0,0.0,0.0,0.0,0.0,0.0,0.0,0.0,0.0,0.0,0.0,0.0,0.0,0.0,0.0,0.0,0.0,0.0,0.0,0.0,0.0,0.0,0.0,0.0,0.0,0.0,0.0,0.0,0.0,0.0,0.0,0.0,0.0,0.0,0.0,0.0,0.0,0.0,0.0,0.0,0.0,0.0,0.0,0.0,0.0,0.0,0.0,0.0,0.0,0.0,0.0,0.0,0.0,0.0,0.0,-5.4838,-5.585,-5.6898,-5.8166,-5.8195,-5.8335,-5.8525,-5.6109,0.0,0.0,0.0,0.0,0.0,0.0,0.0,0.0,0.0,0.0,0.0,0.0,0.0,0.0,0.0,0.0,0.0,0.0,0.0,0.0,0.0,0.0,0.0,0.0,0.0,0.0,0.0,-3.4366,0.0,0.0,0.0,0.0,0.0,0.0,0.0,0.0,0.0,0.0,0.0,0.0,0.0,0.0,-4.7755,-4.844,-4.9903,-5.0233,0.0,0.0,-4.9678,-4.8539,-4.8517,-4.8138,0.0,0.0,0.0,0.0,0.0,0.0,0.0,0.0,0.0,0.0,0.0,0.0,0.0,0.0,0.0,0.0,0.0,0.0,0.0,0.0,0.0,0.0,0.0,0.0,0.0,0.0,0.0,0.0,0.0,0.0,0.0,0.0,0.0,0.0,0.0,0.0,0.0,0.0,0.0,0.0,0.0,0.0,0.0,0.0,0.0,0.0,0.0,0.0,0.0,0.0,0.0,0.0,0.0,0.0,0.0,-5.4533,-5.5742,-5.6927,-5.8136,-5.8195,-5.8195,-5.8195,-5.641,-5.4685,0.0,0.0,0.0,0.0,0.0,0.0,0.0,0.0,0.0,0.0,0.0,0.0,0.0,0.0,0.0,0.0,0.0,0.0,0.0,0.0,0.0,0.0,0.0,0.0,0.0,0.0,0.0,0.0,0.0,0.0,0.0,0.0,0.0,0.0,0.0,0.0,0.0,0.0,0.0,0.0,0.0,-4.7223,-4.8503,-5.0002,-5.0654,0.0,0.0,-4.878,-4.7802,-4.7487,-4.7083,-4.6477,0.0,0.0,0.0,0.0,0.0,0.0,0.0,0.0,0.0,0.0,0.0,0.0,0.0,0.0,0.0,0.0,0.0,0.0,0.0,0.0,0.0,0.0,0.0,0.0,0.0,0.0,0.0,0.0,0.0,0.0,0.0,0.0,0.0,0.0,0.0,0.0,0.0,0.0,0.0,0.0,0.0,0.0,0.0,0.0,0.0,0.0,0.0,0.0,0.0,0.0,0.0,0.0,0.0,-5.0906,-5.3698,-5.5076,-5.635,-5.733,-5.7389,-5.7528,-5.7948,-5.6029,-5.4333,0.0,0.0,0.0,0.0,0.0,0.0,0.0,0.0,0.0,0.0,0.0,0.0,0.0,0.0,0.0,0.0,0.0,0.0,0.0,0.0,0.0,0.0,0.0,0.0,0.0,0.0,0.0,0.0,-3.6176,-3.6493,-3.6985,0.0,0.0,0.0,0.0,0.0,0.0,0.0,0.0,0.0,0.0,-4.6686,-4.772,-4.8385,0.0,0.0,-4.8553,-4.8702,-4.7266,-4.7427,-4.7313,-4.6264,-4.5386,0.0,0.0,0.0,0.0,0.0,0.0,0.0,0.0,0.0,0.0,0.0,0.0,0.0,0.0,0.0,0.0,0.0,0.0,0.0,0.0,0.0,0.0,0.0,0.0,0.0,0.0,0.0,0.0,0.0,0.0,0.0,0.0,0.0,0.0,0.0,0.0,0.0,0.0,0.0,0.0,0.0,0.0,0.0,0.0,0.0,0.0,0.0,0.0,0.0,0.0,0.0,0.0,-5.0363,-5.2501,-5.3749,-5.4825,-5.5876,-5.6277,-5.668,-5.7053,-5.5879,-5.4516,0.0,0.0,0.0,0.0,0.0,0.0,0.0,0.0,0.0,0.0,0.0,0.0,0.0,0.0,0.0,0.0,0.0,0.0,0.0,0.0,0.0,0.0,0.0,0.0,0.0,0.0,0.0,0.0,-3.625,-3.678,-3.745,0.0,0.0,0.0,0.0,0.0,0.0,0.0,0.0,0.0,0.0,-4.6382,-4.717,-4.7396,-4.7209,-4.6651,-4.7304,-4.7458,-4.6129,-4.6312,-4.6259,-4.536,0.0,0.0,0.0,0.0,0.0,0.0,0.0,0.0,0.0,0.0,0.0,0.0,0.0,0.0,0.0,0.0,0.0,0.0,0.0,0.0,0.0,0.0,0.0,0.0,0.0,0.0,0.0,-4.2377,0.0,0.0,-4.1541,0.0,0.0,0.0,0.0,0.0,0.0,0.0,0.0,0.0,0.0,0.0,0.0,0.0,0.0,0.0,0.0,0.0,0.0,0.0,0.0,0.0,0.0,-4.8784,-5.0842,-5.1571,-5.2434,-5.3577,-5.4809,-5.5413,-5.5446,-5.6251,-5.5603,-5.3179,0.0,0.0,0.0,0.0,0.0,0.0,0.0,0.0,0.0,0.0,0.0,0.0,0.0,0.0,0.0,0.0,0.0,0.0,0.0,0.0,0.0,0.0,0.0,0.0,0.0,0.0,-3.5566,-3.6773,-3.7667,0.0,0.0,0.0,0.0,0.0,0.0,0.0,0.0,0.0,0.0,-4.5693,-4.6165,-4.6884,-4.725,-4.7178,-4.6512,-4.5503,-4.4618,-4.4253,-4.3828,-4.3411,0.0,0.0,0.0,0.0,0.0,0.0,0.0,0.0,0.0,0.0,0.0,0.0,0.0,0.0,0.0,0.0,0.0,0.0,0.0,0.0,0.0,0.0,0.0,0.0,0.0,0.0,0.0,-4.2239,-4.1448,0.0,0.0,0.0,0.0,0.0,0.0,0.0,0.0,0.0,0.0,0.0,-4.0293,-4.0241,0.0,0.0,0.0,0.0,0.0,0.0,0.0,0.0,0.0,0.0,0.0,0.0,-4.87,-5.018,-5.1176,-5.2158,-5.312,-5.3579,-5.393,-5.4112,-5.4233,-5.2989,-5.0208,0.0,0.0,0.0,0.0,0.0,0.0,0.0,0.0,0.0,0.0,0.0,0.0,0.0,0.0,0.0,0.0,0.0,0.0,0.0,0.0,0.0,0.0,0.0,0.0,0.0,-3.5488,0.0,0.0,0.0,0.0,0.0,0.0,0.0,0.0,0.0,0.0,0.0,-4.2378,-4.2921,-4.4412,-4.5578,-4.5997,-4.6177,-4.6177,0.0,0.0,0.0,0.0,0.0,0.0,0.0,0.0,0.0,0.0,0.0,0.0,0.0,0.0,-4.3449,-4.2128,-4.1911,-4.1911,-4.1911,0.0,0.0,0.0,0.0,0.0,0.0,0.0,0.0,0.0,0.0,0.0,0.0,0.0,0.0,-4.1671,0.0,-4.0952,0.0,0.0,0.0,0.0,0.0,0.0,0.0,0.0,-4.0991,-4.112,-4.0951,-4.1142,-4.1028,0.0,-4.0331,-4.0884,0.0,0.0,0.0,0.0,0.0,0.0,0.0,0.0,-4.7704,-4.8333,-4.948,-5.0435,-5.1142,-5.1626,-5.2023,-5.243,-5.2147,-5.0795,-4.8318,-4.5645,-4.335,0.0,0.0,0.0,0.0,0.0,0.0,0.0,0.0,0.0,0.0,0.0,0.0,0.0,0.0,0.0,0.0,0.0,0.0,0.0,0.0,0.0,0.0,0.0,-3.5294,0.0,0.0,0.0,0.0,0.0,0.0,0.0,0.0,0.0,-4.0476,-4.1482,-4.2229,-4.2359,-4.388,-4.4966,-4.5033,0.0,0.0,0.0,0.0,0.0,0.0,0.0,-4.4265,-4.4248,-4.4552,-4.476,-4.46,-4.4397,-4.4223,-4.4349,0.0,0.0,-4.2915,-4.269,-4.2616,-4.2305,-4.2223,-4.2339,-4.2594,-4.3358,-4.418,0.0,0.0,0.0,0.0,0.0,0.0,0.0,0.0,-4.2087,-4.1309,0.0,-4.0099,0.0,0.0,0.0,0.0,0.0,-4.0428,0.0,0.0,-4.1601,-4.1725,-4.1293,-4.223,-4.2206,-4.1268,-4.122,-4.1725,-4.2699,-4.1541,0.0,0.0,0.0,0.0,0.0,0.0,-4.5847,-4.5527,-4.645,-4.7174,-4.7819,-4.9007,-4.9856,-5.0358,-5.0114,-4.9267,-4.7694,-4.6041,-4.4487,-4.2808,-4.1211,0.0,0.0,0.0,0.0,0.0,0.0,0.0,0.0,0.0,0.0,0.0,0.0,0.0,0.0,0.0,0.0,0.0,0.0,0.0,0.0,-3.4117,0.0,0.0,0.0,0.0,0.0,0.0,0.0,0.0,0.0,0.0,-4.0201,-4.0335,-4.1038,-4.3039,0.0,0.0,0.0,0.0,-4.4526,-4.3836,-4.2977,-4.2464,-4.2442,-4.2613,-4.2861,-4.3127,0.0,0.0,-4.4729,-4.4468,-4.414,-4.3811,-4.4075,-4.4238,-4.4085,-4.3953,-4.3699,-4.2976,-4.282,-4.2916,-4.3178,-4.3573,-4.4023,-4.5705,0.0,0.0,0.0,0.0,-4.3614,-4.329,-4.3143,-4.268,-4.1911,-4.1027,-4.1274,0.0,0.0,0.0,0.0,0.0,0.0,-4.0708,-4.1118,-4.1862,-4.2077,-4.1774,-4.2209,-4.2413,-4.2303,-4.1918,-4.2169,-4.2771,-4.2597,-4.2912,-4.3625,0.0,0.0,0.0,0.0,-4.4902,-4.5392,-4.6056,-4.6609,-4.7213,-4.7947,-4.862,-4.91,-4.8386,-4.7932,-4.7654,-4.5708,-4.4264,-4.3559,-4.1952,0.0,0.0,0.0,0.0,0.0,0.0,0.0,0.0,0.0,0.0,0.0,0.0,0.0,0.0,0.0,0.0,0.0,0.0,0.0,-3.3561,-3.4285,-3.5047,0.0,0.0,0.0,0.0,0.0,0.0,0.0,0.0,0.0,-3.8989,-3.9633,-4.0388,0.0,0.0,-4.2529,-4.3272,-4.3495,-4.3536,-4.3328,-4.3154,0.0,-4.2896,-4.3027,-4.3097,-4.3093,-4.3164,-4.3095,-4.2867,-4.3164,-4.3507,-4.3643,-4.4211,-4.4702,-4.4753,-4.4647,-4.4491,-4.4286,-4.4238,-4.4238,-4.4365,-4.4807,-4.5223,-4.7262,-4.6649,-4.5016,-4.4587,-4.4878,-4.4082,-4.3695,-4.3639,-4.3168,-4.2504,-4.1663,-4.181,-4.1313,-4.0397,-4.0397,0.0,0.0,0.0,-4.1024,-4.1359,-4.221,-4.2423,-4.2221,-4.2842,-4.3023,-4.2868,-4.2676,-4.2735,-4.3048,-4.3132,-4.354,-4.4338,0.0,0.0,-4.3832,-4.4438,-4.473,-4.4671,-4.5573,-4.6109,-4.6256,-4.6768,-4.7304,-4.7816,-4.7133,-4.6899,-4.7094,-4.5662,-4.4587,-4.397,-4.2459,-4.1145,0.0,0.0,0.0,0.0,0.0,0.0,0.0,0.0,0.0,0.0,0.0,-3.4778,-3.5088,0.0,0.0,0.0,-3.4064,-3.3982,-3.3516,-3.4298,0.0,0.0,0.0,0.0,0.0,0.0,0.0,-3.6789,-3.7436,-3.788,-3.7845,-3.8493,-3.9273,-4.0194,-4.08,-4.1397,-4.2306,0.0,-4.263,-4.2489,-4.2401,-4.2399,-4.2266,-4.2436,-4.2621,-4.2694,-4.2618,-4.2379,-4.1855,-4.2244,-4.2683,-4.2673,-4.3328,-4.3932,-4.412,-4.4411,-4.4731,-4.4622,-4.4617,-4.4617,-4.4617,-4.4942,-4.5243,-4.8611,-4.8611,-4.599,-4.5187,-4.5513,-4.4402,-4.4078,-4.4268,-4.3664,-4.302,-4.2423,-4.1986,-4.1305,-4.0523,-4.0466,0.0,-4.0499,-4.1219,-4.1496,-4.1543,-4.2505,-4.2749,-4.2442,-4.3517,-4.364,-4.2895,-4.3201,-4.3347,-4.3394,-4.315,-4.3464,-4.4389,-4.4106,-4.3784,-4.3588,-4.487,-4.4894,-4.3564,-4.4918,-4.5446,-4.5038,-4.5566,-4.6069,-4.6566,-4.6264,-4.6156,-4.6138,-4.5738,-4.5071,-4.4108,-4.2848,-4.1932,-4.142,0.0,0.0,0.0,0.0,0.0,0.0,0.0,0.0,0.0,0.0,0.0,0.0,0.0,0.0,0.0,-3.4167,0.0,-3.3452,-3.4232,0.0,0.0,0.0,-3.6316,-3.5622,-3.6304,-3.6573,-3.6195,0.0,0.0,-3.6837,-3.7177,-3.7939,-3.938,-4.0187,-4.079,-4.1167,-4.1523,-4.1686,-4.1465,-4.1214,-4.1065,-4.1118,-4.1336,-4.1555,-4.1741,-4.2145,-4.1964,-4.1364,-4.151,-4.1563,-4.1099,-4.1756,-4.2489,-4.2511,-4.3631,-4.4505,-4.4285,-4.4322,-4.4387,-4.4476,-4.4499,-4.4654,-4.9225,-4.8903,-4.7882,-4.7197,-4.6811,-4.565,-4.5184,-4.5196,-4.4439,-4.3772,-4.3241,-4.312,-4.2506,-4.1605,-4.1372,-4.1157,-4.1028,-4.1619,-4.1731,-4.1567,-4.2262,-4.2216,-4.1536,-4.1986,-4.2047,-4.1846,-4.1908,-4.2179,-4.259,-4.2762,-4.2942,-4.3175,-4.3153,-4.3138,-4.3325,-4.3052,-4.3075,-4.3387,-4.3679,-4.4073,-4.4357,-4.519,-4.5586,-4.5326,-4.5237,-4.5384,-4.5785,-4.5343,-4.4654,-4.3741,-4.3048,-4.1877,-4.0136,-3.9444,0.0,0.0,0.0,0.0,0.0,0.0,0.0,0.0,0.0,-3.5263,-3.6628,0.0,-3.639,0.0,-3.459,-3.3893,-3.3565,-3.4308,0.0,0.0,-3.5458,-3.5844,-3.5911,-3.6187,-3.6396,-3.6591,-3.6995,-3.7278,-3.7278,-3.7633,-3.7971,-3.8349,-3.8837,-3.9208,-3.957,-4.0022,-4.034,-4.0634,-4.0914,-4.105,-4.0996,-4.105,-4.0982,-4.0371,-4.0391,-4.0265,-3.9798,-3.9996,-4.0297,-4.05,-4.0946,-4.1381,-4.1643,-4.2489,-4.3262,-4.38,-4.4505,-4.5137,-4.5137,-4.5114,-4.5114,-4.9267,-4.9047,-4.8426,-4.8001,-4.7568,-4.6333,-4.5768,-4.5532,-4.4812,-4.4302,-4.3805,-4.3442,-4.2951,-4.2401,-4.1769,-4.159,-4.1683,-4.1828,-4.1852,-4.1751,-4.2342,-4.2117,-4.1279,-4.1491,-4.1731,-4.188,-4.1542,-4.1765,-4.2506,-4.2609,-4.2724,-4.266,-4.2082,-4.193,-4.223,-4.2234,-4.2437,-4.2862,-4.3245,-4.3606,-4.4125,-4.4552,-4.465,-4.4378,-4.4229,-4.4467,-4.499,-4.4743,-4.4176,-4.3245,-4.259,-4.1556,-3.9876,-3.8897,-3.7994,0.0,0.0,0.0,0.0,0.0,0.0,0.0,0.0,0.0,0.0,0.0,-3.6305,-3.5529,-3.4979,-3.4621,-3.4505,-3.5004,-3.5331,-3.521,-3.5567,-3.5834,-3.5843,-3.607,-3.6331,-3.6737,-3.6998,-3.7181,-3.7366,-3.7588,-3.7736,-3.7736,-3.8104,-3.8547,-3.9067,-3.951,-3.9904,-4.0364,-4.0614,-4.0837,-4.0762,-4.0762,-4.0548,-4.0003,-3.9967,-3.9971,-3.9625,-3.9845,-4.0122,-4.0142,-4.0464,-4.074,-4.0936,-4.1536,-4.2138,-4.2376,-4.3145,-4.4159,-4.521,-4.5438,-4.5438,-4.9072,-4.8942,-4.8289,-4.796,-4.7839,-4.6563,-4.5928,-4.5566,-4.5022,-4.4532,-4.4175,-4.3412,-4.3004,-4.2814,-4.203,-4.1816,-4.2185,-4.2026,-4.1967,-4.2017,-4.2464,-4.2125,-4.1164,-4.1399,-4.1569,-4.1697,-4.1097,-4.1312,-4.2189,-4.213,-4.2096,-4.203,-4.0891,-4.0427,-4.0737,-4.1528,-4.2001,-4.2002,-4.3009,-4.3632,-4.3729,-4.3559,-4.3428,-4.3276,-4.3083,-4.3287,-4.3759,-4.3871,-4.3442,-4.2527,-4.1684,-4.08,-3.9702,-3.8039,-3.6957,0.0,-3.5466,0.0,0.0,0.0,0.0,0.0,0.0,0.0,0.0,-3.5536,-3.5475,-3.5155,-3.5439,-3.552,-3.5463,-3.5826,-3.5946,-3.564,-3.5975,-3.609,-3.5779,-3.6072,-3.6439,-3.6861,-3.6877,-3.706,-3.7448,-3.7539,-3.7576,-3.7631,-3.7921,-3.8363,-3.8937,-3.9373,-3.9749,-4.0223,-4.0389,-4.0605,-4.0682,-4.0605,-4.0469,-4.0117,-4.0215,-4.0391,-4.0039,-4.0176,-4.0312,-4.0095,-4.0112,-4.0184,-4.0258,-4.075,-4.1016,-4.0781,-4.1444,-4.2624,-4.4388,-4.5074,-4.521,-4.8747,-4.8223,-4.8026,-4.7828,-4.7467,-4.64,-4.5893,-4.5781,-4.4818,-4.4223,-4.3864,-4.3458,-4.2962,-4.241,-4.2357,-4.2026,-4.171,-4.2458,-4.2456,-4.1955,-4.2023,-4.1421,-4.0388,-3.991,-3.9386,-3.8904,-3.8772,-3.875,-3.897,-3.9295,-3.9403,-3.9403,-3.9139,-3.9073,-3.9139,0.0,0.0,0.0,-4.2283,-4.2773,-4.1657,-4.2254,-4.2276,-4.1524,-4.1089,0.0,-4.2152,-4.1856,-4.1373,-4.0888,-4.0018,0.0,0.0,0.0,0.0,0.0,0.0,0.0,0.0,0.0,0.0,0.0,-3.506,-3.551,-3.514,-3.5665,-3.6209,-3.6417,-3.6195,-3.5771,-3.5168,-3.5777,-3.5999,-3.5632,-3.5926,-3.6312,-3.6549,-3.6677,-3.6879,-3.7264,-3.7594,-3.7814,-3.7906,-3.8199,-3.8401,-3.8365,-3.8401,-3.8577,-3.8697,-3.8798,-3.8975,-3.9433,-4.0028,-4.0627,-4.1035,-4.1035,-4.0859,-4.0547,-4.0449,-4.0488,-4.0353,-4.0176,-4.0176,-4.0236,-3.9888,-3.9426,-3.9426,-3.9524,-3.9725,-3.9832,-4.0468,-4.1543,-4.3184,-4.3814,-4.4297,-4.8355,0.0,-4.7828,-4.763,0.0,-4.6367,-4.5934,-4.5798,-4.4741,-4.4223,-4.4013,-4.3701,-4.3331,-4.298,-4.2488,-4.204,-4.1661,-4.1522,-4.1297,-4.0848,-4.0622,-4.017,-3.9473,-3.8726,-3.8395,-3.8395,-3.7863,-3.7863,-3.8395,-3.8395,-3.8395,-3.8395,-3.8063,-3.7883,-3.7883,-3.7435,-3.7963,-3.96,-4.1007,-4.147,-4.116,-4.1449,-4.1188,-4.0227,-4.0049,0.0,0.0,0.0,0.0,0.0,0.0,0.0,0.0,0.0,0.0,-3.4095,-3.3993,-3.3835,-3.3623,-3.3539,-3.3511,-3.3322,-3.4054,-3.4903,-3.5808,-3.588,-3.5994,-3.6164,-3.6035,-3.5851,-3.5632,-3.5981,-3.6127,-3.5944,-3.6091,-3.6366,-3.6751,-3.6842,-3.7005,-3.7613,-3.7888,-3.8089,-3.8291,-3.8414,-3.856,-3.864,-3.864,-3.864,-3.8621,-3.8624,-3.875,-3.9249,-3.981,-4.0353,-4.0763,-4.0841,-4.088,-4.0821,-4.084,-4.0763,-4.0511,-4.0337,-4.0202,-4.0221,-3.9721,-3.928,-3.9242,-3.9089,-3.8874,-3.8644,-3.9012,-3.9764,-4.0977,-4.2036,-4.3064,-4.796,-4.7894,-4.763,-4.7497,-4.7425,-4.6367,-4.5814,-4.551,0.0,0.0,0.0,-4.395,-4.3755,-4.3597,-4.2459,-4.1857,-4.1602,-4.0396,-3.9778,-3.9583,-3.9252,-3.8898,-3.8454,-3.7852,-3.7785,-3.8187,-3.7321,-3.7348,-3.8217,-3.7863,-3.7709,-3.7729,-3.7146,-3.6876,-3.6781,-3.6504,-3.7154,-3.8751,-3.9378,-3.9952,-4.0382,-4.0356,-3.9815,-3.8889,-3.8983,-3.8934,-3.8637,-3.8822,-3.8617,-3.796,-3.6809,-3.579,-3.4898,-3.394,-3.331,-3.3058,-3.3028,-3.3077,-3.3224,-3.3121,-3.3109,-3.3031,-3.352,-3.4602,-3.6367,-3.5962,-3.5614,-3.5668,-3.5687,-3.5852,-3.6164,-3.6201,-3.6237,-3.6311,-3.6311,-3.6512,-3.6895,-3.7044,-3.7356,-3.7979,-3.8144,-3.8255,-3.8566,-3.864,-3.864,-3.864,-3.864,-3.864,-3.864,-3.8603,-3.8803,-3.9235,-3.9569,-3.9981,-4.0353,-4.0509,-4.0666,-4.0899,-4.1055,-4.0919,-4.0529,-4.0353,-4.0275,-4.0021,-3.954,-3.937,-3.9217,-3.8838,-3.829,-3.7612,-3.7839,-3.8274,-3.9007,-4.0275,-4.1692,-4.7828,-4.7563,-4.7497,-4.7497,-4.7425,-4.6367,-4.5342,-4.4501,-4.4357,-4.4161,-4.3864,-4.3802,-4.3564,-4.3099,-4.2206,-4.1592,-4.1085,-4.0123,-3.9562,-3.9254,-3.8992,-3.8438,-3.7758,-3.7437,-3.6976,-3.6454,-3.626,-3.6219,-3.6355,-3.6355,-3.6268,-3.6287,-3.6219,-3.6016,-3.5743,-3.5322,-3.5482,-3.6182,-3.7532,-3.796,-3.7453,-3.7653,-3.7614,-3.7187,-3.6789,-3.6858,-3.7448,-3.6868,-3.6612,-3.6848,-3.5694,-3.4758,-3.3992,-3.35,-3.3196,-3.3145,-3.2879,-3.2687,-3.2754,-3.2474,-3.2858,-3.4132,-3.5164,-3.5651,-3.531,-3.5485,-3.577,-3.6059,-3.6087,-3.6146,-3.6201,-3.6201,-3.6347,-3.6677,-3.6675,-3.695,-3.7704,-3.7814,-3.7979,-3.8456,-3.8469,-3.8548,-3.8621,-3.864,-3.8579,-3.8658,-3.8713,-3.8579,-3.8597,-3.864,-3.8798,-3.9193,-3.9351,-3.9726,-4.0118,-4.0509,-4.0431,-4.0588,-4.0607,-4.0451,-3.9981,-3.9981,-3.9981,-3.9902,-3.9512,-3.9318,-3.922,-3.8609,-3.8176,-3.7969,-3.825,-3.8568,-3.8725,-3.9374,-4.0198,-4.763,-4.7497,-4.7497,-4.7497,-4.7425,-4.6367,-4.5438,-4.4693,-4.4218,-4.4013,-4.4075,-4.4075,-4.3807,-4.3346,-4.2028,-4.105,-4.0272,-3.9118,-3.8414,-3.8139,-3.7815,-3.758,-3.7302,-3.6852,-3.6451,-3.6131,-3.6078,-3.6092,-3.6073,-3.5996,-3.6035,-3.5947,-3.5811,-3.5538,-3.5196,-3.499,-3.4947,-3.4947,-3.6093,-3.663,-3.6527,-3.6649,-3.6553,-3.6131,-3.592,-3.5855,-3.5958,-3.5593,-3.5431,-3.5412,-3.4708,-3.3981,-3.3438,-3.3255,-3.3077,-3.292,-3.2932,-3.2981,-3.3019,-3.3006,-3.3391,-3.4364,-3.4915,-3.5054,-3.4709,-3.5416,-3.5861,-3.561,-3.5713,-3.5903,-3.5903,-3.6052,-3.6384,-3.673,-3.6842,-3.7173,-3.7851,-3.8016,-3.8181,-3.8469,-3.864,-3.864,-3.864,-3.864,-3.875,-3.8896,-3.8951,-3.8791,-3.8311,-3.8471,-3.8577,-3.8615,-3.8798,-3.8956,-3.9175,-3.9569,-3.9726,-3.9569,-3.9883,-3.9823,-3.943,-3.9351,-3.943,-3.9272,-3.9035,-3.8956,-3.8956,-3.8651,-3.8383,-3.8365,-3.8475,-3.8615,-3.8835,-3.9116,-3.979,-4.7497,-4.7497,-4.7497,-4.7449,-4.7233,-4.6319,-4.5621,-4.5029,-4.4251,-4.4075,-4.4285,-4.4223,-4.4075,-4.3615,-4.2016,-4.0646,-3.9604,-3.8315,-3.7468,-3.7134,-3.6906,-3.6926,-3.7068,-3.6518,-3.6232,-3.6104,-3.6074,-3.6105,-3.6116,-3.6025,-3.5947,-3.5811,-3.547,-3.5059,-3.4784,-3.4715,-3.4508,-3.432,-3.4896,-3.5336,-3.5656,-3.575,-3.5619,-3.5223,-3.5186,-3.5054,-3.4803,-3.4715,-3.4564,-3.435,-3.3972,-3.3619,-3.3304,-3.3311,-3.3134,-3.2809,-3.3011,-3.3198,-3.3183,-3.373,-3.4179,-3.4368,-3.4556,-3.4573,-3.4513,-3.526,-3.5539,-3.5056,-3.5249,-3.5456,-3.5474,-3.5788,-3.6212,-3.6594,-3.6834,-3.7199,-3.7878,-3.8084,-3.8176,-3.8426,-3.8481,-3.8481,-3.8481,-3.8481,-3.8591,-3.8828,-3.8938,-3.8634,-3.8077,-3.8141,-3.8186,-3.8078,-3.829,-3.8572,-3.8359,-3.8859,-3.9175,-3.8761,-3.9333,-3.9351,-3.8956,-3.8956,-3.9035,-3.8719,-3.864,-3.8695,-3.875,-3.8676,-3.8731,-3.8841,-3.8988,-3.9098,-3.9465,-3.9447,-3.9566,-4.7497,-4.7497,-4.7497,-4.7209,-4.6776,-4.6175,-4.5621,-4.5053,-4.4501,-4.4285,-4.4285,-4.4013,-4.3826,-4.3553,-4.1929,-4.0646,-3.967,-3.8315,-3.7351,-3.6866,-3.7145,-3.7153,-3.6884,-3.6739,-3.6522,-3.6193,-3.6104,-3.6093,-3.6124,-3.6025,-3.5831,-3.5489,-3.4853,-3.4546,-3.4408,-3.4112,-3.3886,-3.3886,-3.3923,-3.3959,-3.4066,-3.4345,-3.4397,-3.3959,-3.401,-3.4131,-3.4439,-3.4094,-3.4075,-3.4333,-3.402,-3.3794,-3.3757,-3.3725,-3.3554,-3.3206,-3.2929,-3.2755,-3.2853,-3.4118,-3.4727,-3.447,-3.4984,-3.5052,-3.4453,-3.4496,-3.4588,-3.4528,-3.4799,-3.5007,-3.51,-3.5402,-3.5928,-3.6374,-3.6893,-3.7481,-3.7982,-3.8347,-3.8444,-3.8066,-3.8163,-3.8084,-3.8163,-3.8181,-3.812,-3.8174,-3.8264,-3.8132,-3.7781,-3.7639,-3.7667,-3.7583,-3.806,-3.8606,-3.889,-3.9175,-3.9096,-3.9114,-3.9272,-3.9035,-3.8719,-3.856,-3.864,-3.864,-3.856,-3.867,-3.8835,-3.8933,-3.8896,-3.9336,-3.9575,-3.9832,-4.018,-4.0052,-3.9911,-4.7497,-4.7497,-4.7497,-4.7377,-4.7064,-4.6295,-4.579,-4.5462,-4.4245,-4.3826,-4.395,-4.3451,-4.3326,-4.3365,-4.1697,-4.0475,-3.9726,-3.8569,-3.7868,-3.7441,-3.7398,-3.7302,-3.7175,-3.6643,-3.6331,-3.622,-3.619,-3.6152,-3.6042,-3.5816,-3.5651,-3.5476,-3.477,-3.4766,-3.5351,-3.4345,-3.4037,-3.4495,-3.4055,-3.3817,-3.3835,-3.3982,-3.3963,-3.3835,-3.3817,-3.3886,-3.4024,-3.3886,-3.3886,-3.4024,-3.3886,-3.3817,-3.3817,-3.3817,-3.3539,-3.3035,-3.3228,-3.3534,-3.4067,-3.483,-3.5121,-3.4761,-3.4796,-3.4607,-3.4128,-3.4059,-3.4067,-3.4098,-3.4441,-3.4807,-3.5228,-3.551,-3.5947,-3.6656,-3.7227,-3.7571,-3.795,-3.8322,-3.8481,-3.8402,-3.8322,-3.8322,-3.8359,-3.8522,-3.8381,-3.7952,-3.8006,-3.8061,-3.7328,-3.7224,-3.741,-3.759,-3.7801,-3.7728,-3.7872,-3.8481,-3.856,-3.8402,-3.8383,-3.8402,-3.834,-3.8004,-3.8004,-3.8481,-3.8402,-3.8438,-3.8725,-3.8743,-3.8841,-3.941,-4.0015,-4.0327,-4.073,-4.0492,-4.0162,-4.7497,-4.7497,-4.7497,-4.7497,-4.7401,-4.6535,-4.599,-4.5622,-4.4231,-4.3632,-4.3576,-4.3075,-4.2949,-4.2949,-4.1655,-4.0607,-3.9735,-3.9014,-3.8347,-3.793,-3.7578,-3.7402,-3.7347,-3.659,-3.6201,-3.622,-3.6164,-3.6265,-3.6251,-3.6047,-3.5854,-3.584,-3.5268,-3.5351,-3.5944,-3.4807,-3.444,-3.488,-3.4238,-3.3817,-3.3817,-3.3817,-3.3817,-3.3817,-3.3817,-3.3817,-3.3817,-3.3817,-3.3817,-3.3817,-3.3817,-3.3817,-3.3817,-3.3817,-3.356,-3.3127,-3.3678,-3.4385,-3.495,-3.5395,-3.5463,-3.5018,-3.4693,-3.4333,-3.3957,-3.3837,-3.3837,-3.3854,-3.415,-3.4707,-3.5123,-3.5529,-3.6148,-3.6941,-3.7169,-3.7557,-3.795,-3.8322,-3.856,-3.8481,-3.8322,-3.8402,-3.8438,-3.87,-3.8595,-3.7837,-3.798,-3.8006,-3.7067,-3.6968,-3.7084,-3.7466,-3.7305,-3.7241,-3.7182,-3.7855,-3.8024,-3.7926,-3.7962,-3.8202,-3.805,-3.7694,-3.7632,-3.8184,-3.8094,-3.8174,-3.8577,-3.862,-3.8688,-3.9208,-3.9777,-4.0327,-4.0575,-4.0345,-4.029,-4.7497,-4.7497,-4.7497,-4.7497,-4.7449,-4.6896,-4.6196,-4.5419,-4.4713,-4.4089,-4.3396,-4.2949,-4.2759,-4.2759,-4.1934,-4.102,-3.989,-3.9494,-3.8788,-3.7969,-3.7578,-3.7402,-3.7329,-3.6571,-3.6201,-3.6182,-3.6219,-3.638,-3.6614,-3.6696,-3.6719,-3.6664,-3.6239,-3.6091,-3.6219,-3.5467,-3.499,-3.5027,-3.4312,-3.3835,-3.3817,-3.3817,-3.3835,-3.3872,-3.3817,-3.3817,-3.3817,-3.3817,-3.3817,-3.3817,-3.3817,-3.3817,-3.3835,-3.3872,-3.3816,-3.3907,-3.4457,-3.4915,-3.5087,-3.5635,-3.572,-3.5104,-3.4898,-3.4607,-3.3939,-3.3837,-3.3837,-3.3837,-3.4196,-3.453,-3.465,-3.5433,-3.6057,-3.6403,-3.7011,-3.7534,-3.7906,-3.8322,-3.8402,-3.8163,-3.8163,-3.8163,-3.8084,-3.8402,-3.8377,-3.8022,-3.7703,-3.7364,-3.7125,-3.658,-3.647,-3.6723,-3.6817,-3.7084,-3.8088,-3.8032,-3.789,-3.7809,-3.7917,-3.8366,-3.8096,-3.7944,-3.7882,-3.7944,-3.7882,-3.806,-3.8463,-3.8642,-3.8773,-3.9153,-3.9502,-3.9923,-4.0244,-3.9648,-3.974,-4.7497,-4.7497,-4.7497,-4.7497,-4.7425,-4.6681,-4.6216,-4.5758,-4.4519,-4.3793,-4.3391,-4.2795,-4.2466,-4.2402,-4.1293,-4.0607,-4.0206,-3.9893,-3.926,-3.8353,-3.7693,-3.7402,-3.7329,-3.6571,-3.6201,-3.6182,-3.622,-3.6294,-3.6386,-3.6664,-3.6942,-3.7051,-3.6514,-3.6677,-3.7338,-3.6439,-3.5779,-3.5705,-3.499,-3.4348,-3.3908,-3.3817,-3.4055,-3.4532,-3.4073,-3.3817,-3.3817,-3.3817,-3.3817,-3.3817,-3.3817,-3.4055,-3.4497,-3.4559,-3.4823,-3.5233,-3.514,-3.5189,-3.5618,-3.5703,-3.5515,-3.5035,-3.4727,-3.4419,-3.3957,-3.3837,-3.3837,-3.3974,-3.4642,-3.4984,-3.4915,-3.5361,-3.6018,-3.6811,-3.7178,-3.7525,-3.7924,-3.8322,-3.856,-3.8402,-3.8402,-3.8402,-3.8402,-3.8481,-3.8322,-3.7765,-3.7525,-3.7213,-3.6673,-3.6418,-3.6542,-3.6816,-3.6796,-3.6942,-3.7851,-3.7748,-3.7596,-3.7675,-3.7746,-3.7844,-3.771,-3.7375,-3.7328,-3.7576,-3.7631,-3.7837,-3.8123,-3.8533,-3.8718,-3.908,-3.9428,-3.9612,-3.9877,-3.9612,-3.9905,-4.7497,-4.7497,-4.7497,-4.7497,-4.7383,-4.6741,-4.6281,-4.5936,-4.4664,-4.3919,-4.3558,-4.2862,-4.2596,-4.2431,-4.1477,-4.0734,-4.0446,-3.9765,-3.9131,-3.8516,-3.777,-3.7402,-3.7255,-3.659,-3.6201,-3.6237,-3.6366,-3.6402,-3.6439,-3.6774,-3.718,-3.7521,-3.7044,-3.7393,-3.8218,-3.7264,-3.6604,-3.6457,-3.5815,-3.5119,-3.4642,-3.4587,-3.4825,-3.5247,-3.4862,-3.4458,-3.422,-3.3963,-3.3817,-3.3835,-3.4055,-3.4568,-3.5303,-3.542,-3.5645,-3.6082,-3.5678,-3.5532,-3.596,-3.584,-3.5549,-3.5172,-3.4796,-3.4419,-3.4059,-3.3905,-3.3854,-3.4042,-3.471,-3.5207,-3.5155,-3.5412,-3.6149,-3.7066,-3.7347,-3.7605,-3.8084,-3.8402,-3.856,-3.856,-3.856,-3.856,-3.8579,-3.8609,-3.829,-3.7721,-3.7543,-3.7235,-3.6743,-3.6538,-3.6696,-3.6919,-3.6645,-3.6696,-3.7222,-3.7171,-3.7294,-3.7352,-3.7807,-3.7719,-3.7503,-3.7145,-3.6977,-3.7195,-3.7397,-3.7586,-3.7918,-3.8326,-3.8657,-3.8981,-3.9208,-3.941,-3.9593,-3.9795,-4.0033,-4.7497,-4.7497,-4.7497,-4.7497,-4.7431,-4.7051,-4.6457,-4.5771,-4.5209,-4.453,-4.3851,-4.3303,-4.3108,-4.3054,-4.2474,-4.1749,-4.0556,-3.9257,-3.8627,-3.8535,-3.777,-3.7421,-3.7347,-3.6645,-3.6201,-3.6219,-3.6622,-3.6806,-3.6806,-3.7118,-3.7521,-3.7888,-3.7851,-3.7979,-3.8621,-3.7778,-3.7374,-3.7173,-3.6549,-3.6164,-3.6182,-3.6017,-3.6054,-3.6201,-3.6091,-3.5742,-3.51,-3.4367,-3.4037,-3.4073,-3.466,-3.5394,-3.6108,-3.6246,-3.6248,-3.6234,-3.6147,-3.6109,-3.608,-3.6063,-3.5857,-3.5481,-3.5172,-3.4796,-3.4368,-3.4059,-3.3888,-3.3957,-3.4522,-3.4984,-3.5104,-3.5618,-3.6385,-3.7205,-3.7285,-3.7605,-3.8322,-3.856,-3.864,-3.864,-3.864,-3.864,-3.8572,-3.8577,-3.8311,-3.7944,-3.7763,-3.7474,-3.7032,-3.6774,-3.6662,-3.6645,-3.6611,-3.6713,-3.6696,-3.6645,-3.6868,-3.7173,-3.773,-3.7983,-3.7764,-3.7514,-3.7308,-3.7448,-3.7503,-3.7579,-3.7561,-3.7988,-3.8515,-3.8821,-3.8992,-3.9102,-3.923,-3.9449,-3.9705,-4.7497,-4.7497,-4.7497,-4.7364,-4.7098,-4.6764,-4.6335,-4.5745,-4.5108,-4.4587,-4.429,-4.3808,-4.3474,-4.3103,-4.2393,-4.147,-4.0647,-3.9493,-3.8815,-3.8496,-3.8082,-3.7642,-3.7329,-3.6886,-3.6442,-3.6274,-3.6641,-3.6842,-3.6822,-3.7228,-3.7503,-3.7594,-3.7613,-3.7833,-3.8181,-3.7943,-3.7723,-3.7411,-3.7191,-3.6806,-3.6274,-3.6219,-3.6476,-3.6916,-3.6512,-3.6311,-3.6622,-3.5907,-3.5485,-3.543,-3.5705,-3.6201,-3.6856,-3.7036,-3.6975,-3.6949,-3.6407,-3.6097,-3.6097,-3.608,-3.5926,-3.5583,-3.5395,-3.5018,-3.4487,-3.4282,-3.4076,-3.3957,-3.4522,-3.4967,-3.5104,-3.5652,-3.6287,-3.6902,-3.6982,-3.7285,-3.8084,-3.8402,-3.856,-3.864,-3.864,-3.864,-3.8579,-3.8424,-3.8024,-3.7659,-3.7326,-3.7009,-3.6632,-3.6878,-3.7005,-3.7005,-3.6902,-3.6713,-3.6765,-3.6799,-3.6953,-3.7176,-3.7617,-3.8078,-3.7927,-3.7825,-3.7619,-3.7445,-3.7522,-3.7573,-3.746,-3.7828,-3.8366,-3.8626,-3.8815,-3.8833,-3.8797,-3.915,-3.9686,-4.7431,-4.7298,-4.7298,-4.7098,-4.6764,-4.6362,-4.6092,-4.5843,-4.516,-4.4887,-4.475,-4.4107,-4.3773,-4.3444,-4.2526,-4.1593,-4.0737,-4.0023,-3.9309,-3.8627,-3.8228,-3.7789,-3.7347,-3.6812,-3.6497,-3.633,-3.6476,-3.6604,-3.6604,-3.6842,-3.7044,-3.7173,-3.7209,-3.7411,-3.7759,-3.7796,-3.7704,-3.7631,-3.7649,-3.7466,-3.7191,-3.7118,-3.7356,-3.7723,-3.7374,-3.7393,-3.7814,-3.7374,-3.6824,-3.6402,-3.6476,-3.7044,-3.7737,-3.7557,-3.7365,-3.7205,-3.6644,-3.6097,-3.6097,-3.6097,-3.6011,-3.5755,-3.5463,-3.5138,-3.4642,-3.4419,-3.4059,-3.3991,-3.4522,-3.4967,-3.507,-3.5652,-3.6207,-3.642,-3.6661,-3.7045,-3.7845,-3.8243,-3.8481,-3.856,-3.864,-3.864,-3.856,-3.8246,-3.781,-3.7436,-3.713,-3.6731,-3.6521,-3.6696,-3.6902,-3.6953,-3.6696,-3.6679,-3.6902,-3.6987,-3.7039,-3.7244,-3.7585,-3.7877,-3.8031,-3.7998,-3.7895,-3.7551,-3.746,-3.75,-3.7462,-3.8024,-3.8583,-3.8623,-3.8661,-3.8948,-3.9145,-3.9537,-4.0018,-4.7274,-4.7032,-4.6965,-4.6764,-4.6338,-4.6092,-4.589,-4.5822,-4.5528,-4.5278,-4.5048,-4.4405,-4.4094,-4.3961,-4.322,-4.2217,-4.1092,-4.082,-3.989,-3.8865,-3.8228,-3.7862,-3.7347,-3.6664,-3.6275,-3.6219,-3.6237,-3.6237,-3.6274,-3.6329,-3.6402,-3.6769,-3.6806,-3.7007,-3.7319,-3.7393,-3.7558,-3.7814,-3.7906,-3.8034,-3.8231,-3.8359,-3.8396,-3.8414,-3.8396,-3.8396,-3.8317,-3.8244,-3.7737,-3.6696,-3.7173,-3.7814,-3.8298,-3.7827,-3.7365,-3.7365,-3.6563,-3.6178,-3.6097,-3.6097,-3.6029,-3.5909,-3.5429,-3.4967,-3.4796,-3.4333,-3.3957,-3.3888,-3.4539,-3.4967,-3.5104,-3.5652,-3.6029,-3.6178,-3.65,-3.7045,-3.7765,-3.7924,-3.8163,-3.8481,-3.856,-3.864,-3.8579,-3.8212,-3.7775,-3.748,-3.7148,-3.6809,-3.6594,-3.6559,-3.6611,-3.6594,-3.6542,-3.6594,-3.6799,-3.6868,-3.6953,-3.7244,-3.7518,-3.7844,-3.8083,-3.8169,-3.8101,-3.7672,-3.7482,-3.7425,-3.7587,-3.8062,-3.8452,-3.8494,-3.8754,-3.9179,-3.9423,-3.9711,-4.0077,-4.6963,-4.7032,-4.6965,-4.663,-4.6092,-4.5957,-4.5754,-4.5551,-4.5415,-4.5231,-4.4864,-4.4933,-4.4572,-4.4075,-4.3915,-4.297,-4.158,-4.1004,-4.0074,-3.8793,-3.8501,-3.799,-3.7347,-3.659,-3.6201,-3.6201,-3.6201,-3.6201,-3.6201,-3.6201,-3.6274,-3.6366,-3.6421,-3.6586,-3.6934,-3.6913,-3.7209,-3.7521,-3.7576,-3.7631,-3.7796,-3.8053,-3.8181,-3.8199,-3.8377,-3.8365,-3.8163,-3.8163,-3.8195,-3.803,-3.8181,-3.8322,-3.8463,-3.7845,-3.7365,-3.7285,-3.6644,-3.6097,-3.608,-3.608,-3.596,-3.5686,-3.5412,-3.5121,-3.4573,-3.4368,-3.4111,-3.4059,-3.4522,-3.4967,-3.5087,-3.5652,-3.6029,-3.6178,-3.642,-3.6742,-3.7125,-3.7605,-3.8084,-3.8163,-3.8402,-3.856,-3.8438,-3.8076,-3.7507,-3.7276,-3.6916,-3.644,-3.6371,-3.6457,-3.6525,-3.6594,-3.6594,-3.6594,-3.6645,-3.6713,-3.6885,-3.721,-3.7535,-3.7895,-3.8118,-3.8238,-3.8083,-3.7792,-3.7775,-3.7789,-3.7701,-3.7868,-3.8153,-3.8513,-3.8653,-3.8933,-3.909,-3.9263,-3.9766,-4.6753,-4.6764,-4.6764,-4.6362,-4.5686,-4.5686,-4.5551,-4.5438,-4.5438,-4.5232,-4.5002,-4.4979,-4.4799,-4.4324,-4.4051,-4.3222,-4.1975,-4.1218,-4.0238,-3.9208,-3.8574,-3.8009,-3.7347,-3.6738,-3.6349,-3.6201,-3.6201,-3.6201,-3.6201,-3.6201,-3.6201,-3.6219,-3.6201,-3.6347,-3.6549,-3.6586,-3.6769,-3.7099,-3.7191,-3.7246,-3.7448,-3.7631,-3.7741,-3.7718,-3.7878,-3.771,-3.7557,-3.7672,-3.7964,-3.8408,-3.864,-3.864,-3.856,-3.7845,-3.7445,-3.7365,-3.6563,-3.6029,-3.5874,-3.584,-3.5669,-3.5344,-3.5172,-3.4847,-3.4453,-3.4265,-3.4025,-3.3939,-3.4556,-3.4898,-3.5104,-3.5652,-3.6029,-3.6097,-3.6339,-3.65,-3.6661,-3.7284,-3.7748,-3.7978,-3.8163,-3.8322,-3.8322,-3.7924,-3.7525,-3.7125,-3.6742,-3.6391,-3.6229,-3.632,-3.6422,-3.6457,-3.6474,-3.6457,-3.6645,-3.6782,-3.7124,-3.7433,-3.7707,-3.8049,-3.8135,-3.8289,-3.8135,-3.7998,-3.8066,-3.8066,-3.803,-3.7978,-3.8287,-3.851,-3.8527,-3.8769,-3.9167,-3.9322,-3.9809,-4.6526,-4.6402,-4.6382,-4.6025,-4.5483,-4.5415,-4.5438,-4.5438,-4.5438,-4.5369,-4.5163,-4.4841,-4.4798,-4.4778,-4.412,-4.3321,-4.2559,-4.1502,-4.0433,-3.9425,-3.8574,-3.7862,-3.7402,-3.696,-3.6516,-3.6275,-3.6201,-3.6201,-3.6201,-3.6201,-3.6201,-3.6201,-3.6201,-3.6201,-3.6274,-3.6256,-3.6421,-3.6696,-3.6769,-3.6897,-3.7136,-3.7283,-3.7356,-3.7316,-3.6963,-3.6929,-3.6873,-3.712,-3.7541,-3.8396,-3.8505,-3.8603,-3.8426,-3.7755,-3.7383,-3.7091,-3.648,-3.5817,-3.5532,-3.5446,-3.5292,-3.495,-3.4607,-3.435,-3.4265,-3.4042,-3.3888,-3.3854,-3.4539,-3.4967,-3.5275,-3.5755,-3.6029,-3.6114,-3.6114,-3.631,-3.6633,-3.6939,-3.7414,-3.7837,-3.7845,-3.8004,-3.8004,-3.7924,-3.7685,-3.7205,-3.6804,-3.642,-3.6258,-3.6183,-3.6217,-3.62,-3.6234,-3.6251,-3.6559,-3.6902,-3.733,-3.7724,-3.7998,-3.822,-3.8203,-3.8255,-3.8186,-3.8152,-3.8186,-3.822,-3.8203,-3.8306,-3.8546,-3.8701,-3.8752,-3.9233,-3.9676,-3.9838,-4.0173,-4.6155,-4.6262,-4.6375,-4.6136,-4.5754,-4.5483,-4.5438,-4.5415,-4.5415,-4.5117,-4.491,-4.5048,-4.5002,-4.4684,-4.4505,-4.3932,-4.2958,-4.1764,-4.0412,-3.8938,-3.8647,-3.8063,-3.7476,-3.7034,-3.659,-3.6275,-3.6201,-3.6201,-3.6201,-3.6201,-3.6201,-3.6201,-3.6201,-3.6201,-3.6201,-3.6201,-3.6237,-3.6329,-3.6347,-3.6421,-3.6567,-3.6824,-3.6877,-3.6837,-3.6462,-3.635,-3.6344,-3.6379,-3.6666,-3.7252,-3.7982,-3.8341,-3.8061,-3.7614,-3.7095,-3.6585,-3.6044,-3.5521,-3.5182,-3.5052,-3.4915,-3.4556,-3.4419,-3.4265,-3.3974,-3.3905,-3.3837,-3.3974,-3.4522,-3.5172,-3.5703,-3.596,-3.608,-3.6131,-3.6285,-3.6354,-3.6344,-3.6569,-3.6944,-3.7098,-3.7605,-3.8004,-3.8004,-3.7924,-3.7685,-3.7285,-3.6885,-3.6581,-3.6339,-3.6097,-3.6097,-3.6097,-3.6114,-3.6234,-3.6662,-3.7056,-3.7553,-3.7878,-3.8118,-3.8323,-3.8289,-3.8186,-3.8066,-3.8169,-3.8272,-3.8306,-3.8323,-3.834,-3.8409,-3.8683,-3.8974,-3.9402,-3.9762,-4.0094,-4.039,-4.6029,-4.6228,-4.6551,-4.6362,-4.589,-4.5686,-4.5412,-4.5116,-4.5002,-4.4864,-4.4704,-4.491,-4.4979,-4.4979,-4.4801,-4.4366,-4.3397,-4.1926,-4.0433,-3.9301,-3.8793,-3.8209,-3.7715,-3.7274,-3.6812,-3.6275,-3.6201,-3.6201,-3.6201,-3.6201,-3.6201,-3.6201,-3.6201,-3.6201,-3.6201,-3.6201,-3.6201,-3.6219,-3.6201,-3.6201,-3.6256,-3.6402,-3.6249,-3.5948,-3.5633,-3.5333,-3.5355,-3.5526,-3.5941,-3.654,-3.727,-3.7745,-3.7718,-3.7353,-3.6857,-3.6248,-3.5825,-3.5331,-3.4917,-3.4676,-3.4539,-3.4162,-3.4128,-3.4025,-3.3888,-3.3837,-3.3837,-3.3991,-3.4522,-3.5275,-3.5977,-3.6097,-3.6097,-3.6131,-3.6268,-3.6285,-3.6246,-3.6477,-3.6656,-3.6713,-3.7125,-3.7285,-3.7365,-3.7605,-3.7285,-3.6804,-3.6885,-3.6581,-3.6258,-3.6097,-3.6097,-3.6097,-3.6097,-3.6285,-3.6765,-3.7244,-3.7758,-3.7981,-3.8118,-3.8272,-3.8306,-3.8135,-3.798,-3.8152,-3.8237,-3.8323,-3.8323,-3.8357,-3.846,-3.8768,-3.9094,-3.947,-3.9796,-4.0159,-4.0455,-4.6005,-4.6198,-4.6793,-4.6583,-4.5908,-4.575,-4.527,-4.452,-4.4566,-4.4658,-4.4635,-4.4658,-4.5048,-4.521,-4.5051,-4.4663,-4.3628,-4.2067,-4.0504,-3.9642,-3.8865,-3.8355,-3.7936,-3.7495,-3.7034,-3.6349,-3.6201,-3.6201,-3.6201,-3.6201,-3.6201,-3.6201,-3.6201,-3.6201,-3.6201,-3.6201,-3.6201,-3.6201,-3.6201,-3.6201,-3.6201,-3.6237,-3.5883,-3.5228,-3.4812,-3.4516,-3.4571,-3.4776,-3.5187,-3.5905,-3.6385,-3.6769,-3.694,-3.6936,-3.6498,-3.6077,-3.5621,-3.5096,-3.4521,-3.4299,-3.4162,-3.3854,-3.3854,-3.3854,-3.3837,-3.3837,-3.3837,-3.4076,-3.4539,-3.5275,-3.5977,-3.6097,-3.6097,-3.6097,-3.6097,-3.6097,-3.6148,-3.6371,-3.6465,-3.6569,-3.6822,-3.6982,-3.7063,-3.7205,-3.6724,-3.65,-3.6581,-3.6598,-3.6293,-3.6131,-3.6148,-3.6166,-3.6166,-3.6268,-3.6696,-3.6919,-3.7501,-3.7809,-3.7964,-3.8118,-3.8152,-3.8032,-3.786,-3.8152,-3.8237,-3.8237,-3.8237,-3.834,-3.8512,-3.8854,-3.9128,-3.9368,-3.9762,-4.0207,-4.0468,-4.5918,-4.5997,-4.6717,-4.6528,-4.5751,-4.5396,-4.4761,-4.4084,-4.4405,-4.4612,-4.4658,-4.5025,-4.5209,-4.5347,-4.537,-4.4572,-4.3328,-4.1721,-4.0606,-3.9714,-3.8938,-3.8355,-3.8082,-3.7623,-3.7107,-3.6738,-3.6423,-3.6201,-3.6201,-3.6201,-3.6201,-3.6201,-3.6201,-3.6201,-3.6201,-3.6201,-3.6201,-3.6201,-3.6201,-3.6201,-3.6201,-3.6052,-3.5754,-3.5007,-3.4499,-3.4191,-3.4074,-3.4243,-3.4563,-3.4766,-3.5428,-3.5764,-3.6098,-3.6467,-3.6146,-3.5531,-3.525,-3.4854,-3.416,-3.3957,-3.3905,-3.3854,-3.3871,-3.3854,-3.3854,-3.3871,-3.3905,-3.4094,-3.4573,-3.5292,-3.6011,-3.608,-3.6097,-3.6097,-3.6097,-3.6097,-3.6114,-3.6166,-3.6217,-3.6195,-3.642,-3.6661,-3.6742,-3.6822,-3.6661,-3.65,-3.65,-3.6506,-3.6367,-3.6268,-3.6268,-3.6268,-3.6268,-3.6388,-3.6594,-3.6713,-3.7022,-3.7364,-3.7587,-3.7776,-3.7828,-3.7759,-3.7757,-3.7963,-3.8066,-3.798,-3.8066,-3.8254,-3.8494,-3.8768,-3.9008,-3.9248,-3.9642,-4.0036,-4.0224,-4.5565,-4.5788,-4.6432,-4.621,-4.5562,-4.5319,-4.472,-4.3943,-4.4084,-4.4359,-4.4612,-4.4864,-4.514,-4.5369,-4.5438,-4.4526,-4.3053,-4.1207,-4.0228,-3.9582,-3.8938,-3.8501,-3.8209,-3.7696,-3.7329,-3.696,-3.6497,-3.6201,-3.6201,-3.6201,-3.6201,-3.6201,-3.6201,-3.6201,-3.6201,-3.6201,-3.6201,-3.6201,-3.6201,-3.6201,-3.6126,-3.5829,-3.5231,-3.4799,-3.4348,-3.3988,-3.3912,-3.3912,-3.4215,-3.4441,-3.495,-3.5306,-3.5659,-3.5806,-3.5822,-3.5192,-3.5007,-3.4649,-3.3988,-3.3837,-3.3837,-3.3871,-3.3991,-3.4008,-3.3957,-3.3991,-3.4111,-3.4282,-3.4779,-3.5378,-3.5755,-3.596,-3.608,-3.6097,-3.6097,-3.6016,-3.5838,-3.5935,-3.5935,-3.5872,-3.6097,-3.6339,-3.642,-3.65,-3.6581,-3.65,-3.642,-3.6413,-3.6358,-3.6392,-3.6392,-3.644,-3.644,-3.6422,-3.6525,-3.6594,-3.6696,-3.697,-3.733,-3.752,-3.7539,-3.7503,-3.7552,-3.7791,-3.7808,-3.7808,-3.8151,-3.846,-3.858,-3.8683,-3.8974,-3.9265,-3.9556,-3.983,-3.995,-4.5329,-4.5667,-4.6202,-4.599,-4.5405,-4.5372,-4.4742,-4.3913,-4.3923,-4.4245,-4.4566,-4.475,-4.5025,-4.5232,-4.496,-4.4163,-4.2605,-4.0521,-3.9861,-3.9513,-3.8971,-3.8574,-3.8355,-3.7916,-3.7495,-3.7255,-3.6738,-3.6275,-3.6201,-3.6201,-3.6201,-3.6201,-3.6201,-3.6201,-3.6201,-3.6201,-3.6201,-3.6201,-3.6201,-3.6201,-3.5903,-3.5381,-3.4782,-3.4441,-3.3988,-3.3837,-3.3837,-3.3837,-3.3988,-3.429,-3.4649,-3.5082,-3.5381,-3.5456,-3.5306,-3.5082,-3.4932,-3.4516,-3.4167,-3.3974,-3.4008,-3.4025,-3.4316,-3.4265,-3.4162,-3.4299,-3.4522,-3.4624,-3.5052,-3.5463,-3.56,-3.5874,-3.6063,-3.6097,-3.6097,-3.5935,-3.5676,-3.5629,-3.5696,-3.5679,-3.5808,-3.5953,-3.6068,-3.6178,-3.6241,-3.6102,-3.6038,-3.6328,-3.6351,-3.6518,-3.6518,-3.6614,-3.6628,-3.6508,-3.6508,-3.6525,-3.6594,-3.6748,-3.7076,-3.7451,-3.7301,-3.7229,-3.7432,-3.7636,-3.7619,-3.7739,-3.8202,-3.8512,-3.8512,-3.8631,-3.8974,-3.9196,-3.9316,-3.9368,-3.9453,-4.5329,-4.5629,-4.6202,-4.5924,-4.5206,-4.5286,-4.4724,-4.378,-4.4193,-4.452,-4.4681,-4.5048,-4.5255,-4.5027,-4.4143,-4.288,-4.1525,-4.0431,-3.9707,-3.9394,-3.8925,-3.8574,-3.8501,-3.8155,-3.7715,-3.7421,-3.696,-3.659,-3.6275,-3.6201,-3.6201,-3.6201,-3.6201,-3.6201,-3.6201,-3.6201,-3.6201,-3.6201,-3.6201,-3.6052,-3.568,-3.5231,-3.4799,-3.4365,-3.4064,-3.3837,-3.3837,-3.3837,-3.3912,-3.3912,-3.429,-3.4649,-3.5007,-3.5082,-3.5082,-3.4932,-3.4684,-3.4429,-3.4256,-3.4248,-3.4265,-3.4316,-3.4659,-3.4642,-3.4539,-3.4607,-3.4847,-3.4915,-3.5309,-3.5498,-3.5583,-3.5874,-3.6046,-3.6016,-3.5935,-3.571,-3.5467,-3.485,-3.4998,-3.4916,-3.4834,-3.5455,-3.5811,-3.5906,-3.6016,-3.5811,-3.5801,-3.6087,-3.6423,-3.6524,-3.6675,-3.679,-3.697,-3.685,-3.6696,-3.6662,-3.6696,-3.6713,-3.7007,-3.735,-3.7183,-3.711,-3.738,-3.755,-3.7533,-3.7722,-3.822,-3.8409,-3.8392,-3.8512,-3.8768,-3.8871,-3.8922,-3.8974,-3.9077,-4.4933,-4.5453,-4.5697,-4.5462,-4.4908,-4.4573,-4.4238,-4.3984,-4.3802,-4.4245,-4.4933,-4.53,-4.4936,-4.3962,-4.2973,-4.1675,-4.0333,-3.953,-3.9131,-3.906,-3.8754,-3.8647,-3.8501,-3.8155,-3.7789,-3.7402,-3.7034,-3.6571,-3.6349,-3.6201,-3.6201,-3.6201,-3.6201,-3.6201,-3.6201,-3.6201,-3.6201,-3.6201,-3.6126,-3.5829,-3.5381,-3.5082,-3.4724,-3.4064,-3.3912,-3.3837,-3.3837,-3.3837,-3.3837,-3.3837,-3.4139,-3.4441,-3.4574,-3.4649,-3.4649,-3.4649,-3.429,-3.4057,-3.4059,-3.4282,-3.4402,-3.4556,-3.4881,-3.5087,-3.4864,-3.4864,-3.4881,-3.4642,-3.5395,-3.5686,-3.5618,-3.5874,-3.6029,-3.6016,-3.5629,-3.503,-3.467,-3.4242,-3.3925,-3.3854,-3.385,-3.4451,-3.4998,-3.5178,-3.544,-3.5837,-3.5724,-3.5775,-3.6225,-3.661,-3.6745,-3.6913,-3.7096,-3.7244,-3.7073,-3.6953,-3.6987,-3.7056,-3.7313,-3.7419,-3.703,-3.6975,-3.7363,-3.755,-3.7464,-3.7808,-3.8169,-3.8443,-3.8546,-3.8529,-3.8512,-3.8666,-3.8803,-3.8871,-3.9025,-4.4656,-4.5147,-4.5147,-4.4927,-4.4597,-4.4025,-4.393,-4.4119,-4.3701,-4.415,-4.5139,-4.5301,-4.4323,-4.2772,-4.1948,-4.088,-3.8946,-3.8555,-3.8417,-3.8434,-3.8544,-3.8583,-3.8535,-3.8228,-3.7936,-3.7568,-3.7181,-3.6812,-3.6423,-3.6275,-3.6201,-3.6201,-3.6201,-3.6201,-3.6201,-3.6201,-3.6201,-3.6201,-3.6201,-3.5754,-3.5157,-3.5007,-3.4574,-3.4064,-3.3837,-3.3837,-3.3837,-3.3837,-3.3837,-3.3837,-3.4064,-3.429,-3.4441,-3.4365,-3.4365,-3.429,-3.4064,-3.3922,-3.4128,-3.435,-3.4522,-3.4796,-3.5087,-3.5446,-3.5515,-3.5326,-3.5104,-3.4847,-3.5498,-3.5755,-3.5606,-3.5697,-3.5625,-3.5402,-3.5046,-3.4324,-3.3755,-3.3448,-3.3183,-3.3029,-3.3075,-3.3283,-3.3803,-3.4218,-3.4783,-3.5527,-3.5676,-3.559,-3.5954,-3.6437,-3.676,-3.6929,-3.7014,-3.7232,-3.7261,-3.7159,-3.7227,-3.7298,-3.7554,-3.759,-3.7214,-3.7144,-3.7397,-3.7533,-3.7464,-3.7808,-3.8254,-3.8529,-3.87,-3.8546,-3.846,-3.8597,-3.8734,-3.8785,-3.8888,-4.4532,-4.484,-4.4816,-4.4524,-4.4087,-4.4229,-4.415,-4.3997,-4.4072,-4.4464,-4.5185,-4.5301,-4.3872,-4.2038,-4.1682,-4.0466,-3.7781,-3.8118,-3.8361,-3.8497,-3.8505,-3.8511,-3.853,-3.8501,-3.8302,-3.7936,-3.7568,-3.7107,-3.6738,-3.6349,-3.6275,-3.6201,-3.6201,-3.6201,-3.6201,-3.6201,-3.6201,-3.6201,-3.6201,-3.5754,-3.5231,-3.4932,-3.4556,-3.3988,-3.3837,-3.3837,-3.3837,-3.3837,-3.3837,-3.3837,-3.3912,-3.4064,-3.4215,-3.4064,-3.4064,-3.4225,-3.4091,-3.4094,-3.4419,-3.4693,-3.507,-3.5326,-3.5498,-3.572,-3.6046,-3.6029,-3.5806,-3.5395,-3.5806,-3.5794,-3.5468,-3.5181,-3.5156,-3.4686,-3.4227,-3.3474,-3.2938,-3.2759,-3.2498,-3.2306,-3.2263,-3.2261,-3.2577,-3.295,-3.3744,-3.4461,-3.4902,-3.4805,-3.5526,-3.6113,-3.6599,-3.6891,-3.6893,-3.6963,-3.718,-3.718,-3.7031,-3.7251,-3.7607,-3.7606,-3.7518,-3.7516,-3.7533,-3.7636,-3.7722,-3.8066,-3.8254,-3.8443,-3.8494,-3.8409,-3.8392,-3.8494,-3.8529,-3.8529,-3.8666,-4.3614,-4.3977,-4.3687,-4.3735,-4.3965,-4.3168,-4.2936,-4.3044,-4.2692,-4.3257,-4.4474,-4.4979,-4.421,-4.2817,-4.2504,-4.135,-3.8967,-3.9192,-3.8945,-3.8577,-3.8465,-3.8524,-3.8583,-3.8501,-3.8375,-3.8082,-3.7789,-3.7421,-3.6812,-3.659,-3.6423,-3.6275,-3.6201,-3.6201,-3.6201,-3.6201,-3.6201,-3.6201,-3.6126,-3.5829,-3.5157,-3.4932,-3.4632,-3.3912,-3.3837,-3.3837,-3.3837,-3.3837,-3.3837,-3.3837,-3.3837,-3.3912,-3.3988,-3.3912,-3.3998,-3.4322,-3.4187,-3.4436,-3.4847,-3.507,-3.5326,-3.5943,-3.584,-3.5755,-3.6303,-3.5977,-3.572,-3.5652,-3.5874,-3.5863,-3.517,-3.4944,-3.4637,-3.4048,-3.3348,-3.264,-3.2219,-3.1885,-3.1599,-3.1303,-3.1011,-3.0853,-3.1204,-3.1641,-3.2567,-3.3386,-3.3746,-3.415,-3.4869,-3.5383,-3.5761,-3.5956,-3.5875,-3.6563,-3.6826,-3.6775,-3.6704,-3.7198,-3.764,-3.7485,-3.743,-3.7619,-3.7619,-3.7722,-3.7722,-3.7808,-3.798,-3.8237,-3.8323,-3.8237,-3.8237,-3.8357,-3.834,-3.8237,-3.846,-4.3433,-4.3673,-4.3192,-4.312,-4.3275,-4.2447,-4.2233,-4.2371,-4.204,-4.2587,-4.4061,-4.4796,-4.4322,-4.3353,-4.3287,-4.1926,-3.9944,-3.9597,-3.9117,-3.8644,-3.8367,-3.8418,-3.8445,-3.8496,-3.8501,-3.8228,-3.8009,-3.7642,-3.7255,-3.696,-3.6664,-3.6423,-3.6275,-3.6201,-3.6201,-3.6201,-3.6201,-3.6201,-3.6126,-3.5903,-3.5306,-3.5007,-3.4724,-3.4064,-3.3912,-3.3837,-3.3837,-3.3837,-3.3837,-3.3837,-3.3837,-3.3837,-3.3837,-3.3871,-3.3991,-3.4162,-3.4402,-3.471,-3.5104,-3.5481,-3.5686,-3.632,-3.6046,-3.5977,-3.6046,-3.5909,-3.5789,-3.5755,-3.596,-3.5855,-3.5142,-3.4882,-3.4227,-3.3597,-3.2638,-3.1913,-3.1368,-3.0972,-3.058,-3.0253,-3.0096,-3.0117,-3.0383,-3.0826,-3.174,-3.263,-3.3098,-3.3438,-3.3659,-3.4143,-3.4463,-3.4607,-3.4591,-3.5478,-3.6448,-3.6264,-3.6269,-3.728,-3.7604,-3.7294,-3.7275,-3.7275,-3.6843,-3.6221,-3.6394,-3.7188,-3.7016,-3.6481,-3.7188,-3.8152,-3.8152,-3.798,-3.7705,-3.7619,-3.8152,-4.4165,-4.4213,-4.3673,-4.2904,-4.2254,-4.2269,-4.236,-4.2442,-4.256,-4.3216,-4.4199,-4.4566,-4.4048,-4.3174,-4.3354,-4.1948,-3.9989,-3.9717,-3.9187,-3.817,-3.8057,-3.8125,-3.8203,-3.8301,-3.8496,-3.8501,-3.8302,-3.8009,-3.7862,-3.7347,-3.696,-3.6664,-3.6349,-3.6201,-3.6201,-3.6201,-3.6201,-3.6201,-3.6201,-3.5903,-3.553,-3.5231,-3.4875,-3.4365,-3.4064,-3.3912,-3.3837,-3.3837,-3.3837,-3.3837,-3.3837,-3.3837,-3.3837,-3.3837,-3.3905,-3.3974,-3.4248,-3.459,-3.5001,-3.5652,-3.6166,-3.6474,-3.6183,-3.6166,-3.6388,-3.6285,-3.6011,-3.5943,-3.6063,-3.6033,-3.5551,-3.4883,-3.4074,-3.3259,-3.2357,-3.1584,-3.1014,-3.0403,-3.0061,-2.9976,-2.99,-2.99,-2.9887,-3.0245,-3.102,-3.1791,-3.244,-3.2719,-3.2734,-3.2896,-3.3249,-3.3513,-3.3601,-3.4478,-3.5336,-3.551,-3.5826,-3.7016,-3.7275,-3.6654,-3.6394,-3.6307,-3.5613,-3.4741,-3.509,-3.596,-3.5177,-3.4288,-3.5352,-3.6394,-3.7361,-3.7447,-3.7102,-3.7102,-3.7619,-4.3481,-4.3684,-4.2999,-4.2652,-4.2543,-4.2389,-4.2218,-4.2075,-4.2325,-4.2701,-4.3257,-4.4061,-4.3913,-4.3264,-4.3063,-4.2102,-4.0137,-3.9453,-3.8792,-3.7811,-3.7668,-3.7766,-3.7864,-3.8086,-3.832,-3.8516,-3.8448,-3.8228,-3.7936,-3.7568,-3.7181,-3.6886,-3.6442,-3.6201,-3.6201,-3.6201,-3.6201,-3.6201,-3.6201,-3.5996,-3.5605,-3.5456,-3.5082,-3.4516,-3.429,-3.4064,-3.3837,-3.3837,-3.3837,-3.3837,-3.3837,-3.3837,-3.3837,-3.3837,-3.3939,-3.4111,-3.4385,-3.4693,-3.5224,-3.5823,-3.6234,-3.6371,-3.6337,-3.6268,-3.6508,-3.6285,-3.6148,-3.6097,-3.6097,-3.594,-3.536,-3.4866,-3.4183,-3.3591,-3.2749,-3.1888,-3.1173,-3.0438,-2.999,-2.99,-2.9913,-2.9913,-2.9913,-2.9913,-3.0526,-3.0705,-3.1226,-3.1582,-3.1671,-3.1848,-3.21,-3.2631,-3.2984,-3.3689,-3.42,-3.4097,-3.4622,-3.57,-3.57,-3.5162,-3.5074,-3.4987,-3.455,-3.3674,-3.4216,-3.4653,-3.3865,-3.3337,-3.3601,-3.4391,-3.509,-3.6134,-3.6394,-3.6481,-3.7102,-4.3505,-4.3684,-4.3214,-4.3131,-4.3144,-4.2516,-4.2089,-4.2001,-4.2189,-4.2431,-4.2757,-4.3408,-4.3418,-4.2884,-4.2593,-4.1854,-3.9866,-3.942,-3.8403,-3.7425,-3.7311,-3.744,-3.761,-3.7871,-3.8223,-3.8457,-3.8574,-3.8428,-3.8228,-3.8082,-3.7568,-3.6886,-3.6497,-3.6367,-3.6275,-3.6201,-3.6201,-3.6201,-3.6201,-3.6126,-3.5829,-3.5605,-3.5306,-3.4875,-3.4591,-3.429,-3.4064,-3.3912,-3.3837,-3.3837,-3.3837,-3.3837,-3.3837,-3.3888,-3.3974,-3.4145,-3.4539,-3.4864,-3.5412,-3.5857,-3.6183,-3.6354,-3.62,-3.6217,-3.6371,-3.62,-3.6131,-3.6097,-3.6097,-3.5913,-3.5558,-3.5064,-3.4386,-3.3785,-3.3045,-3.2179,-3.1402,-3.0664,-3.0348,-3.0258,-2.9913,-2.9913,-2.9913,-2.9913,-3.0093,-3.0093,-3.0003,-3.0348,-3.0794,-3.0973,-3.1048,-3.1315,-3.1657,-3.21,-3.2351,-3.2514,-3.3219,-3.4375,-3.4113,-3.3674,-3.3395,-3.3219,-3.297,-3.2719,-3.2984,-3.3073,-3.2631,-3.238,-3.2203,-3.2115,-3.2277,-3.3513,-3.509,-3.596,-3.6481,-4.4285,-4.4285,-4.4285,-4.4175,-4.3979,-4.27,-4.217,-4.2293,-4.2316,-4.2591,-4.3028,-4.2336,-4.2213,-4.2371,-4.1634,-4.0409,-3.9265,-3.8797,-3.7848,-3.7029,-3.6867,-3.7064,-3.7336,-3.7656,-3.8008,-3.8359,-3.8555,-3.8574,-3.8501,-3.8155,-3.7568,-3.6959,-3.6681,-3.6386,-3.6165,-3.6091,-3.6127,-3.6164,-3.6201,-3.6126,-3.6052,-3.5829,-3.5605,-3.5231,-3.4875,-3.4516,-3.4215,-3.3988,-3.3837,-3.3837,-3.3837,-3.3837,-3.3837,-3.3837,-3.3837,-3.4025,-3.4539,-3.4967,-3.5378,-3.5772,-3.6046,-3.6166,-3.6131,-3.6097,-3.6114,-3.6131,-3.6114,-3.6016,-3.6033,-3.6062,-3.5889,-3.5208,-3.4604,-3.3994,-3.3391,-3.2529,-3.1689,-3.1226,-3.1062,-3.0794,-3.0182,-3.0003,-2.9913,-2.9913,-2.9913,-2.9913,-2.9913,-3.0003,-3.0272,-3.0272,-3.0169,-2.981,-3.0066,-3.0245,-3.0588,-3.1287,-3.1554,-3.2617,-3.2528,-3.216,-3.1894,-3.1554,-3.1376,-3.1301,-3.1493,-3.1493,-3.1315,-3.0884,-3.0437,-3.0348,-3.0794,-3.1848,-3.3689,-3.5177,-3.596,-4.4285,-4.4285,-4.3764,-4.3701,-4.3802,-4.2974,-4.2517,-4.2339,-4.2275,-4.239,-4.2504,-4.2201,-4.1528,-4.0563,-4.0113,-3.9025,-3.8165,-3.7375,-3.7064,-3.6658,-3.6464,-3.6642,-3.6945,-3.7305,-3.7715,-3.8105,-3.8379,-3.8516,-3.8482,-3.8209,-3.7521,-3.6913,-3.6602,-3.6237,-3.5944,-3.5797,-3.5962,-3.6127,-3.6164,-3.6201,-3.6201,-3.6052,-3.5829,-3.553,-3.5157,-3.4799,-3.4441,-3.4064,-3.3912,-3.3837,-3.3837,-3.3837,-3.3837,-3.3837,-3.3854,-3.3888,-3.4299,-3.471,-3.5104,-3.5463,-3.5806,-3.6046,-3.6097,-3.6097,-3.6097,-3.6097,-3.6097,-3.5935,-3.5727,-3.5702,-3.5676,-3.5203,-3.4469,-3.3807,-3.3365,-3.3058,-3.2203,-3.1493,-3.1315,-3.0794,-3.0258,-3.0003,-2.9913,-2.9913,-2.9913,-2.9913,-2.9913,-2.9913,-2.9913,-2.9913,-2.9644,-2.9182,-2.9362,-2.9721,-3.0066,-3.0664,-3.0588,-3.0588,-3.0575,-3.0396,-2.977,-2.9515,-2.9694,-3.0066,-3.0616,-3.0526,-3.0182,-2.9913,-2.9734,-2.9824,-3.0272,-3.1137,-3.2189,-3.3865,-3.5439,-4.4285,-4.4223,-4.3888,-4.3701,-4.3514,-4.3012,-4.2656,-4.2339,-4.2275,-4.2275,-4.2171,-4.1455,-4.0563,-3.9756,-3.8733,-3.7726,-3.6984,-3.6646,-3.6355,-3.6287,-3.6084,-3.6397,-3.666,-3.6953,-3.7402,-3.7812,-3.8125,-3.8262,-3.8228,-3.7889,-3.7297,-3.6766,-3.6387,-3.5955,-3.5684,-3.5485,-3.5614,-3.5889,-3.6091,-3.6182,-3.6201,-3.6201,-3.6052,-3.5829,-3.5456,-3.5007,-3.4649,-3.4197,-3.3988,-3.3837,-3.3837,-3.3837,-3.3837,-3.3837,-3.3837,-3.3905,-3.4196,-3.4607,-3.4984,-3.5326,-3.5686,-3.596,-3.6097,-3.6097,-3.6016,-3.5935,-3.5838,-3.5693,-3.5436,-3.5178,-3.5228,-3.5164,-3.4314,-3.3423,-3.3483,-3.3528,-3.2646,-3.176,-3.1226,-3.0705,-3.0348,-3.0003,-2.9913,-2.9913,-2.9913,-2.9913,-2.9913,-2.9913,-2.9913,-2.9913,-2.9465,-2.8925,-2.9195,-2.9465,-2.9797,-2.9784,-2.9528,-2.9169,-2.8899,-2.8539,-2.7739,-2.8191,-2.9092,-2.9541,-2.9824,-2.9824,-2.9824,-2.9644,-2.9554,-2.9644,-2.9644,-3.0169,-3.1315,-3.2984,-3.4566,-4.4285,-4.4285,-4.4285,-4.3826,-4.3263,-4.2886,-4.257,-4.2339,-4.2275,-4.2275,-4.202,-4.0495,-3.9801,-3.9254,-3.7878,-3.6869,-3.6471,-3.62,-3.6084,-3.6016,-3.6016,-3.623,-3.6445,-3.6768,-3.7168,-3.7637,-3.7871,-3.7871,-3.7773,-3.7494,-3.7197,-3.6682,-3.6398,-3.5972,-3.5492,-3.5316,-3.5411,-3.5705,-3.6017,-3.6201,-3.6201,-3.6201,-3.6201,-3.6126,-3.5754,-3.5381,-3.5007,-3.4574,-3.4215,-3.3912,-3.3837,-3.3837,-3.3837,-3.3837,-3.3837,-3.3905,-3.4111,-3.4419,-3.4796,-3.5172,-3.5566,-3.5857,-3.6063,-3.5999,-3.5855,-3.5676,-3.5595,-3.5433,-3.5159,-3.4555,-3.4446,-3.4698,-3.4244,-3.3592,-3.3438,-3.3307,-3.2734,-3.1848,-3.1137,-3.0705,-3.0182,-2.9913,-2.9913,-2.9913,-2.9913,-2.9913,-2.9913,-2.9913,-2.9913,-2.9913,-2.9375,-2.8745,-2.8925,-2.9015,-2.8552,-2.8539,-2.8281,-2.792,-2.7649,-2.7571,-2.739,-2.8023,-2.8835,-2.9285,-2.9644,-2.9734,-2.9734,-2.9554,-2.9272,-2.9195,-2.9195,-2.9272,-3.0423,-3.2189,-3.3689,-4.4285,-4.4285,-4.4013,-4.3514,-4.2949,-4.2822,-4.257,-4.2339,-4.2275,-4.2275,-4.1934,-4.056,-3.9583,-3.9035,-3.7327,-3.6403,-3.6152,-3.6084,-3.6016,-3.6016,-3.6035,-3.6074,-3.625,-3.6504,-3.6953,-3.7266,-3.7441,-3.7441,-3.7383,-3.7215,-3.6879,-3.6348,-3.6119,-3.5768,-3.5294,-3.5179,-3.5406,-3.5613,-3.5852,-3.6109,-3.6201,-3.6201,-3.6201,-3.6052,-3.5829,-3.5456,-3.5082,-3.4649,-3.4215,-3.3912,-3.3837,-3.3837,-3.3837,-3.3837,-3.3837,-3.3871,-3.3957,-3.4213,-3.4556,-3.4915,-3.5275,-3.5652,-3.5874,-3.577,-3.5676,-3.5514,-3.5271,-3.5109,-3.4703,-3.4109,-3.3714,-3.4013,-3.4157,-3.3655,-3.3481,-3.3189,-3.2896,-3.2026,-3.1226,-3.0526,-3.0003,-2.9913,-2.9913,-2.9913,-2.9913,-2.9913,-2.9913,-2.9913,-2.9913,-2.9824,-2.9285,-2.8835,-2.8565,-2.8474,-2.7933,-2.7571,-2.7571,-2.748,-2.7299,-2.7118,-2.7027,-2.7842,-2.8745,-2.9195,-2.9541,-2.9644,-2.9644,-2.9362,-2.9092,-2.8822,-2.8822,-2.8822,-2.9887,-3.1568,-3.297,-4.4285,-4.4285,-4.395,-4.3514,-4.3075,-4.2886,-4.2633,-4.2339,-4.2275,-4.2061,-4.1486,-4.017,-3.9364,-3.8838,-3.7193,-3.6268,-3.6016,-3.6035,-3.6035,-3.6035,-3.6035,-3.6035,-3.6152,-3.6289,-3.6601,-3.6914,-3.6992,-3.7012,-3.6992,-3.6758,-3.6385,-3.6062,-3.5904,-3.5647,-3.518,-3.5215,-3.5343,-3.5628,-3.5705,-3.5889,-3.6127,-3.6201,-3.6201,-3.6052,-3.5978,-3.5605,-3.5306,-3.4875,-3.4499,-3.4139,-3.3912,-3.3837,-3.3837,-3.3837,-3.3837,-3.3837,-3.3888,-3.3991,-3.4333,-3.4624,-3.4984,-3.5395,-3.5652,-3.5629,-3.5514,-3.5271,-3.4865,-3.4621,-3.4213,-3.3584,-3.3166,-3.3206,-3.2931,-3.2498,-3.3595,-3.4216,-3.344,-3.238,-3.1315,-3.0272,-2.9913,-2.9913,-2.9913,-2.9913,-2.9913,-2.9913,-2.9913,-2.9913,-2.9913,-2.9734,-2.9195,-2.8745,-2.8565,-2.8023,-2.748,-2.7208,-2.7208,-2.7027,-2.7027,-2.7118,-2.7299,-2.8023,-2.8655,-2.9105,-2.9362,-2.9554,-2.9465,-2.9182,-2.8642,-2.8281,-2.8281,-2.8449,-2.9694,-3.1034,-3.2528,-4.4285,-4.4285,-4.4013,-4.3615,-4.3263,-4.3012,-4.2633,-4.2339,-4.2275,-4.1697,-4.0686,-3.9563,-3.9169,-3.8308,-3.728,-3.6491,-3.6016,-3.6035,-3.6035,-3.6035,-3.6035,-3.6035,-3.6035,-3.6094,-3.6348,-3.6543,-3.668,-3.6621,-3.6582,-3.6348,-3.6103,-3.5967,-3.5743,-3.5557,-3.5352,-3.5092,-3.5088,-3.5473,-3.5647,-3.5705,-3.5907,-3.6201,-3.6201,-3.6201,-3.6126,-3.5978,-3.5605,-3.5231,-3.4875,-3.4441,-3.3988,-3.3837,-3.3837,-3.3837,-3.3837,-3.3837,-3.3837,-3.3991,-3.4231,-3.4385,-3.483,-3.5224,-3.5395,-3.5412,-3.5298,-3.5027,-3.4621,-3.4131,-3.3722,-3.3258,-3.2822,-3.2707,-3.2342,-3.2178,-3.3679,-3.4669,-3.3616,-3.2454,-3.1151,-2.9913,-2.9913,-2.9913,-2.9913,-2.9913,-2.9913,-2.9913,-2.9913,-2.9913,-2.9824,-2.9554,-2.9105,-2.8655,-2.8384,-2.7752,-2.7118,-2.7027,-2.7027,-2.7027,-2.7027,-2.7299,-2.7558,-2.8113,-2.8565,-2.8925,-2.9285,-2.9465,-2.9195,-2.8835,-2.8294,-2.783,-2.792,-2.8269,-2.9528,-3.0856,-3.2277,-4.4285,-4.4285,-4.4223,-4.3826,-4.3326,-4.32,-4.2886,-4.2339,-4.2252,-4.1538,-4.0312,-3.9174,-3.8371,-3.7909,-3.7642,-3.6864,-3.582,-3.5898,-3.6016,-3.6035,-3.6016,-3.6016,-3.6035,-3.6035,-3.6074,-3.623,-3.6426,-3.6426,-3.6328,-3.6133,-3.6035,-3.5947,-3.5947,-3.5762,-3.5528,-3.5413,-3.5495,-3.565,-3.5754,-3.5888,-3.5999,-3.6201,-3.6201,-3.6201,-3.6201,-3.5978,-3.568,-3.553,-3.5025,-3.4516,-3.4081,-3.3837,-3.3837,-3.3837,-3.3837,-3.3837,-3.3837,-3.3888,-3.4059,-3.4213,-3.4624,-3.4984,-3.5145,-3.5202,-3.5053,-3.4929,-3.4441,-3.3804,-3.3394,-3.3066,-3.2736,-3.3385,-3.3291,-3.2951,-3.3731,-3.3553,-3.2896,-3.1671,-3.0451,-3.0003,-2.9913,-2.9913,-2.9913,-2.9913,-2.9913,-2.9913,-2.9913,-2.9913,-2.9824,-2.9465,-2.9015,-2.8565,-2.8204,-2.7661,-2.7118,-2.7027,-2.7027,-2.7027,-2.7027,-2.7118,-2.748,-2.8023,-2.8474,-2.8835,-2.9195,-2.9465,-2.9105,-2.8655,-2.8023,-2.7661,-2.7649,-2.8101,-2.9349,-3.0678,-3.2174]},{"header":{"parameterUnit":"m.s-1","parameterCategory":1,"la1":31.0,"la2":29.5877,"lo1":-88.7671,"lo2":-86.6584,"dy":0.0162,"dx":0.0185,"nx":115,"ny":88,"refTime":"2024-05-31T12:00:00:Z","depth":0,"parameterNumber":3,"parameterNumberName":"V-component_of_WINDS"},"data":[0.0,0.0,0.0,0.0,0.0,0.0,0.0,0.0,0.0,0.0,0.0,0.0,0.0,0.0,0.0,0.0,0.0,0.0,0.0,0.0,0.0,0.0,0.0,0.0,0.0,0.0,0.0,0.0,0.0,0.0,0.0,0.0,0.0,0.0,0.0,0.0,0.0,0.0,0.0,0.0,0.0,0.0,0.0,0.0,0.0,0.0,0.0,0.0,0.0,0.0,0.0,0.0,0.0,0.0,0.0,0.0,0.0,0.0,0.0,0.0,0.0,0.0,0.0,0.0,0.0,0.0,0.0,0.0,0.0,0.0,0.0,0.0,0.0,0.0,0.0,0.0,0.0,0.0,0.0,0.0,0.0,0.0,0.0,0.0,0.0,0.0,0.0,0.0,0.0,0.0,0.0,0.0,0.0,0.0,0.0,0.0,0.0,0.0,0.0,0.0,0.0,0.0,0.0,0.0,0.0,0.0,0.0,0.0,0.0,0.0,0.0,0.0,0.0,0.0,0.0,0.0,0.0,0.0,0.0,0.0,0.0,0.0,0.0,0.0,0.0,0.0,0.0,0.0,0.0,0.0,0.0,0.0,0.0,0.0,0.0,0.0,0.0,0.0,0.0,0.0,0.0,0.0,0.0,0.0,0.0,0.0,0.0,0.0,0.0,0.0,0.0,0.0,0.0,0.0,0.0,0.0,0.0,0.0,0.0,0.0,0.0,0.0,0.0,0.0,0.0,0.0,0.0,0.0,0.0,0.0,0.0,0.0,0.0,0.0,0.0,0.0,0.0,0.0,0.0,0.0,0.0,0.0,0.0,0.0,0.0,0.0,0.0,0.0,0.0,0.0,0.0,0.0,0.0,0.0,0.0,0.0,0.0,0.0,0.0,0.0,0.0,0.0,0.0,0.0,0.0,0.0,0.0,0.0,0.0,0.0,0.0,0.0,0.0,0.0,0.0,0.0,0.0,0.0,0.0,0.0,0.0,0.0,0.0,0.0,0.0,0.0,0.0,0.0,0.0,0.0,0.0,0.0,0.0,0.0,0.0,0.0,0.0,0.0,0.0,0.0,0.0,0.0,0.0,0.0,0.0,0.0,0.0,0.0,0.0,0.0,0.0,0.0,0.0,0.0,0.0,0.0,0.0,0.0,0.0,0.0,0.0,0.0,0.0,0.0,0.0,0.0,0.0,0.0,0.0,0.0,0.0,0.0,0.0,0.0,0.0,0.0,0.0,0.0,0.0,0.0,0.0,0.0,0.0,0.0,0.0,0.0,0.0,0.0,0.0,0.0,0.0,0.0,0.0,0.0,0.0,0.0,0.0,0.0,0.0,0.0,0.0,0.0,0.0,0.0,0.0,0.0,0.0,0.0,0.0,0.0,0.0,0.0,0.0,0.0,0.0,0.0,0.0,0.0,0.0,0.0,0.0,0.0,0.0,0.0,0.0,0.0,0.0,0.0,0.0,0.0,0.0,0.0,0.0,0.0,0.0,0.0,0.0,0.0,0.0,0.0,0.0,0.0,0.0,0.0,0.0,0.0,0.0,0.0,0.0,0.0,0.0,0.0,0.0,0.0,0.0,0.0,0.0,0.0,0.0,0.0,0.0,0.0,0.0,0.0,0.0,0.0,0.0,0.0,0.0,0.0,0.0,0.0,0.0,0.0,0.0,0.0,0.0,0.0,0.0,0.0,0.0,0.0,0.0,0.0,0.0,0.0,0.0,0.0,0.0,0.0,0.0,0.0,0.0,0.0,0.0,0.0,0.0,0.0,0.0,0.0,0.0,0.0,0.0,0.0,0.0,0.0,0.0,0.0,0.0,0.0,0.0,0.0,0.0,0.0,0.0,0.0,0.0,0.0,0.0,0.0,0.0,0.0,0.0,0.0,0.0,0.0,0.0,0.0,0.0,0.0,0.0,0.0,0.0,0.0,0.0,0.0,0.0,0.0,0.0,0.0,0.0,0.0,0.0,0.0,0.0,0.0,0.0,0.0,0.0,0.0,0.0,0.0,0.0,0.0,0.0,0.0,0.0,0.0,0.0,0.0,0.0,0.0,0.0,0.0,0.0,0.0,0.0,0.0,0.0,0.0,0.0,0.0,0.0,0.0,0.0,0.0,0.0,0.0,0.0,0.0,0.0,0.0,0.0,0.0,0.0,0.0,0.0,0.0,0.0,0.0,0.0,0.0,0.0,0.0,0.0,0.0,0.0,0.0,0.0,0.0,0.0,0.0,0.0,0.0,0.0,0.0,0.0,0.0,0.0,0.0,0.0,0.0,0.0,0.0,0.0,0.0,0.0,0.0,0.0,0.0,0.0,0.0,0.0,0.0,0.0,0.0,0.0,0.0,0.0,0.0,0.0,0.0,0.0,0.0,0.0,0.0,0.0,0.0,0.0,0.0,0.0,0.0,0.0,0.0,0.0,0.0,0.0,0.0,0.0,0.0,0.0,0.0,0.0,0.0,0.0,0.0,0.0,0.0,0.0,0.0,0.0,0.0,0.0,0.0,0.0,0.0,0.0,0.0,0.0,0.0,0.0,0.0,0.0,0.0,0.0,0.0,0.0,0.0,0.0,0.0,0.0,0.0,0.0,0.0,0.0,0.0,0.0,0.0,0.0,0.0,0.0,0.0,0.0,0.0,0.0,0.0,0.0,0.0,0.0,0.0,0.0,0.0,0.0,0.0,0.0,0.0,0.0,0.0,0.0,0.0,0.0,0.0,0.0,0.0,0.0,0.0,0.0,0.0,0.0,0.0,0.0,0.0,0.0,0.0,0.0,0.0,0.0,0.0,0.0,0.0,0.0,0.0,0.0,0.0,0.0,0.0,0.0,0.0,0.0,0.0,0.0,0.0,0.0,0.0,0.0,0.0,0.0,0.0,0.0,0.0,0.0,0.0,0.0,0.0,0.0,0.0,0.0,0.0,0.0,0.0,0.0,0.0,0.0,0.0,0.0,0.0,0.0,0.0,0.0,0.0,0.0,0.0,0.0,0.0,0.0,0.0,0.0,0.0,0.0,0.0,0.0,0.0,0.0,0.0,0.0,0.0,0.0,0.0,0.0,0.0,0.0,0.0,0.0,0.0,0.0,0.0,0.0,0.0,0.0,0.0,0.0,0.0,0.0,0.0,0.0,0.0,0.0,0.0,0.0,0.0,0.0,0.0,0.0,0.0,0.0,0.0,0.0,0.0,0.0,0.0,0.0,0.0,0.0,0.0,0.0,0.0,0.0,0.0,0.0,0.0,0.0,0.0,0.0,0.0,0.0,0.0,0.0,0.0,0.0,0.0,0.0,0.0,0.0,0.0,0.0,0.0,0.0,0.0,0.0,0.0,0.0,0.0,0.0,0.0,0.0,0.0,0.0,0.0,0.0,0.0,0.0,0.0,0.0,0.0,0.0,0.0,0.0,0.0,0.0,0.0,0.0,0.0,0.0,0.0,0.0,0.0,0.0,0.0,0.0,0.0,0.0,0.0,0.0,0.0,0.0,0.0,0.0,0.0,0.0,0.0,0.0,0.0,0.0,0.0,0.0,0.0,0.0,0.0,0.0,0.0,0.0,0.0,0.0,0.0,0.0,0.0,0.0,0.0,0.0,0.0,0.0,0.0,0.0,0.0,0.0,0.0,0.0,0.0,0.0,0.0,0.0,0.0,0.0,0.0,0.0,0.0,0.0,0.0,0.0,0.0,0.0,0.0,0.0,0.0,0.0,0.0,0.0,0.0,0.0,0.0,0.0,0.0,0.0,0.0,0.0,0.0,0.0,0.0,0.0,0.0,0.0,0.0,0.0,0.0,0.0,0.0,0.0,0.0,0.0,0.0,0.0,0.0,0.0,0.0,0.0,0.0,0.0,0.0,0.0,0.0,0.0,0.0,0.0,0.0,0.0,0.0,0.0,0.0,0.0,0.0,0.0,0.0,0.0,0.0,0.0,0.0,0.0,0.0,0.0,0.0,0.0,0.0,0.0,0.0,0.0,0.0,0.0,0.0,0.0,0.0,0.0,0.0,0.0,0.0,0.0,0.0,0.0,0.0,0.0,0.0,0.0,0.0,0.0,0.0,0.0,0.0,0.0,0.0,0.0,0.0,0.0,0.0,0.0,0.0,0.0,0.0,0.0,0.0,0.0,0.0,0.0,0.0,0.0,0.0,0.0,0.0,0.0,0.0,0.0,0.0,0.0,0.0,0.0,0.0,0.0,0.0,0.0,0.0,0.0,0.0,0.0,0.0,0.0,0.0,0.0,0.0,0.0,0.0,0.0,0.0,0.0,0.0,0.0,0.0,0.0,0.0,2.906,0.0,0.0,0.0,0.0,0.0,0.0,0.0,0.0,0.0,0.0,0.0,0.0,0.0,0.0,0.0,0.0,0.0,0.0,0.0,0.0,0.0,0.0,0.0,0.0,0.0,0.0,0.0,0.0,0.0,0.0,0.0,0.0,0.0,0.0,0.0,0.0,0.0,0.0,0.0,0.0,0.0,0.0,0.0,0.0,0.0,0.0,0.0,0.0,0.0,0.0,0.0,0.0,0.0,0.0,0.0,0.0,0.0,0.0,0.0,0.0,0.0,0.0,0.0,0.0,0.0,0.0,0.0,0.0,0.0,0.0,0.0,0.0,0.0,0.0,0.0,0.0,0.0,0.0,0.0,0.0,0.0,0.0,0.0,0.0,0.0,0.0,0.0,0.0,0.0,0.0,0.0,0.0,0.0,0.0,0.0,0.0,0.0,0.0,0.0,0.0,0.0,0.0,0.0,0.0,0.0,0.0,0.0,0.0,0.0,0.0,3.1099,3.1155,3.0761,3.0298,2.9926,0.0,0.0,0.0,0.0,0.0,0.0,0.0,0.0,0.0,0.0,0.0,0.0,0.0,0.0,0.0,0.0,0.0,0.0,0.0,0.0,0.0,0.0,0.0,0.0,0.0,0.0,0.0,0.0,0.0,0.0,0.0,0.0,0.0,0.0,0.0,0.0,0.0,0.0,0.0,0.0,0.0,0.0,0.0,0.0,0.0,0.0,0.0,0.0,0.0,0.0,0.0,0.0,0.0,0.0,0.0,0.0,0.0,0.0,0.0,0.0,0.0,0.0,0.0,0.0,0.0,0.0,0.0,0.0,0.0,0.0,0.0,0.0,0.0,0.0,0.0,0.0,0.0,0.0,0.0,0.0,0.0,0.0,0.0,0.0,0.0,0.0,0.0,0.0,0.0,0.0,0.0,0.0,0.0,0.0,0.0,0.0,0.0,0.0,0.0,0.0,0.0,0.0,0.0,0.0,0.0,0.0,0.0,0.0,0.0,0.0,0.0,0.0,3.1397,3.0958,3.069,0.0,0.0,0.0,0.0,0.0,0.0,0.0,0.0,0.0,0.0,0.0,0.0,0.0,0.0,0.0,0.0,0.0,0.0,0.0,0.0,0.0,0.0,0.0,0.0,0.0,0.0,0.0,0.0,0.0,0.0,0.0,0.0,0.0,0.0,0.0,0.0,0.0,0.0,0.0,0.0,0.0,0.0,0.0,0.0,0.0,0.0,0.0,0.0,0.0,0.0,0.0,0.0,0.0,0.0,0.0,0.0,0.0,0.0,0.0,0.0,0.0,0.0,0.0,0.0,0.0,0.0,0.0,0.0,0.0,0.0,0.0,0.0,0.0,0.0,0.0,0.0,0.0,0.0,0.0,0.0,0.0,0.0,0.0,0.0,0.0,0.0,0.0,0.0,0.0,0.0,0.0,0.0,0.0,0.0,0.0,0.0,0.0,0.0,0.0,0.0,0.0,0.0,0.0,0.0,0.0,0.0,0.0,0.0,0.0,0.0,3.1694,3.1395,3.1314,0.0,3.0679,0.0,0.0,0.0,0.0,0.0,0.0,0.0,0.0,0.0,0.0,0.0,0.0,0.0,0.0,0.0,0.0,0.0,0.0,0.0,0.0,0.0,0.0,0.0,0.0,0.0,0.0,0.0,0.0,0.0,0.0,0.0,0.0,0.0,0.0,0.0,0.0,0.0,0.0,0.0,0.0,0.0,0.0,0.0,0.0,0.0,0.0,0.0,0.0,0.0,0.0,0.0,0.0,0.0,0.0,0.0,0.0,0.0,0.0,0.0,0.0,0.0,0.0,0.0,0.0,0.0,0.0,0.0,0.0,0.0,0.0,0.0,0.0,0.0,0.0,0.0,0.0,0.0,0.0,0.0,0.0,0.0,0.0,0.0,0.0,0.0,0.0,0.0,0.0,0.0,0.0,0.0,0.0,0.0,0.0,0.0,0.0,0.0,0.0,0.0,0.0,0.0,0.0,0.0,0.0,0.0,0.0,0.0,0.0,0.0,0.0,3.1892,3.1829,3.1477,3.112,0.0,0.0,0.0,0.0,0.0,0.0,0.0,0.0,0.0,0.0,0.0,0.0,0.0,0.0,0.0,0.0,0.0,0.0,0.0,0.0,0.0,0.0,0.0,0.0,0.0,0.0,0.0,0.0,0.0,0.0,0.0,0.0,0.0,0.0,0.0,0.0,0.0,0.0,0.0,0.0,0.0,0.0,0.0,0.0,0.0,0.0,0.0,0.0,0.0,0.0,0.0,0.0,0.0,0.0,0.0,0.0,0.0,0.0,0.0,0.0,0.0,0.0,0.0,0.0,0.0,0.0,0.0,0.0,0.0,0.0,0.0,0.0,0.0,0.0,0.0,0.0,0.0,0.0,0.0,0.0,0.0,0.0,0.0,0.0,0.0,0.0,0.0,0.0,0.0,0.0,0.0,0.0,0.0,0.0,0.0,0.0,0.0,0.0,0.0,0.0,0.0,0.0,0.0,0.0,0.0,0.0,0.0,0.0,0.0,0.0,3.2482,3.1971,3.1866,3.1531,3.1175,3.098,0.0,0.0,0.0,0.0,0.0,0.0,0.0,0.0,0.0,0.0,0.0,0.0,0.0,0.0,0.0,0.0,0.0,0.0,0.0,0.0,0.0,0.0,0.0,0.0,0.0,0.0,0.0,0.0,0.0,0.0,0.0,0.0,0.0,0.0,0.0,0.0,0.0,0.0,0.0,0.0,0.0,0.0,0.0,0.0,0.0,0.0,0.0,0.0,0.0,0.0,0.0,0.0,0.0,0.0,0.0,0.0,0.0,0.0,0.0,0.0,0.0,0.0,0.0,0.0,0.0,0.0,0.0,0.0,0.0,0.0,0.0,0.0,0.0,0.0,0.0,0.0,0.0,0.0,0.0,0.0,0.0,0.0,0.0,0.0,0.0,0.0,0.0,0.0,0.0,0.0,0.0,0.0,0.0,0.0,0.0,0.0,0.0,0.0,0.0,0.0,0.0,0.0,0.0,0.0,0.0,0.0,0.0,0.0,0.0,3.2294,3.1963,3.111,3.1208,3.1436,0.0,0.0,0.0,0.0,0.0,0.0,0.0,0.0,0.0,0.0,0.0,0.0,0.0,0.0,0.0,0.0,0.0,0.0,0.0,0.0,0.0,0.0,0.0,0.0,0.0,0.0,0.0,0.0,0.0,0.0,0.0,0.0,0.0,0.0,0.0,0.0,0.0,0.0,0.0,0.0,0.0,0.0,0.0,0.0,0.0,0.0,0.0,0.0,0.0,0.0,0.0,0.0,0.0,0.0,0.0,0.0,0.0,0.0,0.0,0.0,0.0,0.0,0.0,0.0,0.0,0.0,0.0,0.0,0.0,0.0,0.0,0.0,0.0,0.0,0.0,0.0,0.0,0.0,0.0,0.0,0.0,0.0,0.0,0.0,0.0,0.0,0.0,0.0,0.0,0.0,0.0,0.0,0.0,0.0,0.0,0.0,0.0,0.0,0.0,0.0,0.0,0.0,0.0,0.0,0.0,0.0,0.0,0.0,0.0,3.4149,3.3378,3.2299,3.1012,3.1388,3.1675,0.0,0.0,0.0,0.0,0.0,0.0,0.0,0.0,0.0,0.0,0.0,0.0,0.0,0.0,0.0,0.0,0.0,0.0,0.0,0.0,0.0,0.0,0.0,0.0,0.0,0.0,0.0,0.0,0.0,0.0,0.0,0.0,0.0,0.0,0.0,0.0,0.0,0.0,0.0,0.0,0.0,0.0,0.0,0.0,0.0,0.0,0.0,0.0,0.0,0.0,0.0,0.0,0.0,0.0,0.0,0.0,0.0,0.0,0.0,0.0,0.0,0.0,0.0,0.0,0.0,0.0,0.0,0.0,0.0,0.0,0.0,0.0,0.0,0.0,0.0,0.0,0.0,0.0,0.0,0.0,0.0,0.0,0.0,0.0,0.0,0.0,0.0,0.0,0.0,0.0,0.0,0.0,0.0,0.0,0.0,0.0,0.0,0.0,0.0,0.0,0.0,0.0,0.0,0.0,0.0,0.0,0.0,0.0,0.0,3.5201,0.0,3.313,0.0,3.2171,3.2353,0.0,0.0,0.0,0.0,0.0,0.0,0.0,0.0,0.0,0.0,0.0,0.0,0.0,0.0,0.0,0.0,0.0,0.0,0.0,0.0,0.0,0.0,0.0,0.0,0.0,0.0,0.0,0.0,0.0,0.0,0.0,0.0,0.0,0.0,0.0,0.0,0.0,0.0,0.0,0.0,0.0,0.0,0.0,0.0,0.0,0.0,0.0,0.0,0.0,0.0,0.0,0.0,0.0,0.0,0.0,0.0,0.0,0.0,0.0,0.0,0.0,0.0,0.0,0.0,0.0,0.0,0.0,0.0,0.0,0.0,0.0,0.0,0.0,0.0,0.0,0.0,0.0,0.0,0.0,0.0,0.0,0.0,0.0,0.0,0.0,0.0,0.0,0.0,0.0,0.0,0.0,0.0,0.0,0.0,0.0,0.0,0.0,0.0,0.0,0.0,0.0,0.0,0.0,0.0,0.0,0.0,0.0,0.0,3.5611,3.496,3.4863,3.4342,3.3561,3.3542,3.3484,0.0,0.0,0.0,0.0,0.0,0.0,0.0,0.0,0.0,0.0,0.0,0.0,0.0,0.0,0.0,0.0,0.0,0.0,0.0,0.0,0.0,0.0,0.0,0.0,0.0,0.0,0.0,0.0,0.0,0.0,0.0,0.0,0.0,0.0,0.0,0.0,0.0,0.0,0.0,0.0,0.0,0.0,0.0,0.0,0.0,0.0,0.0,0.0,0.0,0.0,0.0,0.0,0.0,0.0,0.0,0.0,0.0,0.0,0.0,0.0,0.0,0.0,0.0,0.0,0.0,0.0,0.0,0.0,0.0,0.0,0.0,0.0,0.0,0.0,0.0,0.0,0.0,0.0,0.0,0.0,0.0,0.0,0.0,0.0,0.0,0.0,0.0,0.0,0.0,0.0,0.0,0.0,0.0,0.0,0.0,0.0,0.0,0.0,0.0,0.0,0.0,0.0,0.0,0.0,0.0,0.0,0.0,0.0,0.0,3.5274,3.5226,3.5038,3.4695,3.4286,3.4179,0.0,0.0,0.0,0.0,0.0,0.0,0.0,0.0,0.0,0.0,0.0,0.0,0.0,0.0,0.0,0.0,0.0,0.0,0.0,0.0,0.0,0.0,0.0,0.0,0.0,0.0,0.0,0.0,0.0,0.0,0.0,0.0,0.0,0.0,0.0,0.0,0.0,0.0,0.0,0.0,0.0,0.0,0.0,0.0,0.0,0.0,0.0,0.0,0.0,0.0,0.0,0.0,0.0,0.0,0.0,0.0,0.0,0.0,0.0,0.0,0.0,0.0,0.0,0.0,0.0,0.0,0.0,0.0,0.0,0.0,0.0,0.0,0.0,0.0,0.0,0.0,0.0,0.0,0.0,0.0,0.0,0.0,0.0,0.0,0.0,0.0,0.0,0.0,0.0,0.0,0.0,0.0,0.0,0.0,0.0,0.0,0.0,0.0,0.0,0.0,0.0,0.0,0.0,0.0,0.0,0.0,0.0,0.0,0.0,3.6488,3.6251,3.6206,3.6305,3.5601,3.5182,3.5157,0.0,0.0,0.0,0.0,0.0,0.0,0.0,0.0,0.0,0.0,0.0,0.0,0.0,0.0,0.0,0.0,0.0,0.0,0.0,0.0,0.0,0.0,0.0,0.0,0.0,0.0,0.0,0.0,0.0,0.0,0.0,0.0,0.0,0.0,0.0,0.0,0.0,0.0,0.0,0.0,0.0,0.0,0.0,0.0,0.0,0.0,0.0,0.0,0.0,0.0,0.0,0.0,0.0,0.0,0.0,0.0,0.0,0.0,0.0,0.0,0.0,0.0,0.0,0.0,0.0,0.0,0.0,0.0,0.0,0.0,0.0,0.0,0.0,0.0,0.0,0.0,0.0,0.0,0.0,0.0,0.0,0.0,0.0,0.0,0.0,0.0,0.0,0.0,0.0,0.0,0.0,0.0,0.0,0.0,0.0,0.0,0.0,0.0,0.0,0.0,0.0,0.0,0.0,0.0,0.0,0.0,0.0,0.0,3.8427,3.7849,3.7785,3.8284,3.7358,3.6573,0.0,0.0,0.0,0.0,0.0,0.0,0.0,0.0,0.0,0.0,0.0,0.0,0.0,0.0,0.0,0.0,0.0,0.0,0.0,0.0,0.0,0.0,0.0,0.0,0.0,0.0,0.0,0.0,0.0,0.0,0.0,0.0,0.0,0.0,0.0,0.0,0.0,0.0,0.0,0.0,0.0,0.0,0.0,0.0,0.0,0.0,0.0,0.0,0.0,0.0,0.0,0.0,0.0,0.0,0.0,0.0,0.0,0.0,0.0,0.0,0.0,0.0,0.0,0.0,0.0,0.0,0.0,0.0,0.0,0.0,0.0,0.0,0.0,0.0,0.0,0.0,0.0,0.0,0.0,0.0,0.0,0.0,0.0,0.0,0.0,0.0,0.0,0.0,0.0,0.0,0.0,0.0,0.0,0.0,0.0,0.0,0.0,0.0,0.0,0.0,0.0,0.0,0.0,0.0,0.0,0.0,0.0,0.0,0.0,4.0124,3.9418,3.9184,3.9638,3.8214,3.7772,0.0,0.0,0.0,0.0,0.0,0.0,0.0,0.0,0.0,0.0,0.0,0.0,0.0,0.0,0.0,0.0,0.0,0.0,0.0,0.0,0.0,0.0,0.0,0.0,0.0,0.0,0.0,0.0,0.0,0.0,0.0,0.0,0.0,0.0,0.0,0.0,0.0,0.0,0.0,0.0,0.0,0.0,0.0,0.0,0.0,0.0,0.0,0.0,0.0,0.0,0.0,0.0,0.0,0.0,0.0,0.0,0.0,0.0,0.0,0.0,0.0,0.0,0.0,0.0,0.0,0.0,0.0,0.0,0.0,0.0,0.0,0.0,0.0,0.0,0.0,0.0,0.0,0.0,0.0,0.0,0.0,0.0,0.0,0.0,0.0,0.0,0.0,0.0,0.0,0.0,0.0,0.0,0.0,0.0,0.0,0.0,0.0,0.0,0.0,0.0,0.0,0.0,0.0,0.0,0.0,0.0,0.0,0.0,3.9729,4.0916,4.0357,4.0548,4.1673,3.9815,3.8968,0.0,0.0,0.0,0.0,0.0,0.0,0.0,0.0,0.0,0.0,0.0,0.0,0.0,0.0,0.0,0.0,0.0,0.0,0.0,0.0,0.0,0.0,0.0,0.0,0.0,0.0,0.0,0.0,0.0,0.0,0.0,0.0,0.0,0.0,0.0,0.0,0.0,0.0,0.0,0.0,0.0,0.0,0.0,0.0,0.0,0.0,0.0,0.0,0.0,0.0,0.0,0.0,0.0,0.0,0.0,0.0,0.0,0.0,0.0,0.0,0.0,0.0,0.0,0.0,0.0,0.0,0.0,0.0,0.0,0.0,0.0,0.0,0.0,0.0,0.0,0.0,0.0,0.0,0.0,0.0,0.0,0.0,0.0,0.0,0.0,0.0,0.0,0.0,0.0,0.0,0.0,0.0,0.0,0.0,0.0,0.0,0.0,0.0,0.0,0.0,0.0,0.0,0.0,0.0,0.0,0.0,0.0,0.0,4.0412,4.1148,4.0896,4.1787,4.374,4.1523,4.0252,0.0,0.0,0.0,0.0,0.0,0.0,0.0,0.0,0.0,0.0,0.0,0.0,0.0,0.0,0.0,0.0,0.0,0.0,0.0,0.0,0.0,0.0,0.0,0.0,0.0,0.0,0.0,0.0,0.0,0.0,0.0,0.0,0.0,0.0,0.0,0.0,0.0,0.0,0.0,0.0,0.0,0.0,0.0,0.0,0.0,0.0,0.0,0.0,0.0,0.0,0.0,0.0,0.0,0.0,0.0,0.0,0.0,0.0,0.0,0.0,0.0,0.0,0.0,0.0,0.0,0.0,0.0,0.0,0.0,0.0,0.0,0.0,0.0,0.0,0.0,0.0,0.0,0.0,0.0,0.0,0.0,0.0,0.0,0.0,0.0,0.0,0.0,0.0,0.0,0.0,0.0,0.0,0.0,0.0,0.0,0.0,0.0,0.0,0.0,0.0,0.0,0.0,0.0,0.0,0.0,0.0,0.0,0.0,4.0734,4.213,4.1566,4.2286,4.4334,4.2137,4.129,0.0,0.0,0.0,0.0,0.0,0.0,0.0,0.0,0.0,0.0,0.0,0.0,0.0,0.0,0.0,0.0,0.0,0.0,0.0,0.0,0.0,0.0,0.0,0.0,0.0,0.0,0.0,0.0,0.0,0.0,0.0,0.0,0.0,0.0,0.0,0.0,0.0,0.0,0.0,0.0,0.0,0.0,0.0,0.0,0.0,0.0,0.0,0.0,4.0614,0.0,0.0,0.0,0.0,0.0,0.0,0.0,0.0,0.0,0.0,0.0,0.0,0.0,0.0,0.0,0.0,0.0,0.0,0.0,0.0,0.0,0.0,0.0,0.0,0.0,0.0,0.0,0.0,0.0,0.0,0.0,0.0,0.0,0.0,0.0,0.0,0.0,0.0,0.0,0.0,0.0,0.0,0.0,0.0,0.0,0.0,0.0,0.0,0.0,0.0,0.0,0.0,0.0,0.0,0.0,0.0,0.0,0.0,0.0,4.1302,4.2704,4.2454,4.3108,4.4666,4.33,4.2535,0.0,0.0,0.0,0.0,0.0,0.0,0.0,0.0,0.0,0.0,0.0,0.0,0.0,0.0,0.0,0.0,0.0,0.0,0.0,0.0,0.0,0.0,0.0,0.0,0.0,0.0,0.0,0.0,0.0,0.0,0.0,0.0,0.0,0.0,0.0,0.0,0.0,0.0,0.0,0.0,0.0,0.0,0.0,0.0,0.0,0.0,0.0,0.0,0.0,0.0,0.0,0.0,0.0,0.0,0.0,0.0,0.0,0.0,0.0,0.0,0.0,0.0,0.0,0.0,0.0,0.0,0.0,0.0,0.0,0.0,0.0,0.0,0.0,0.0,0.0,0.0,0.0,0.0,0.0,0.0,0.0,0.0,0.0,0.0,0.0,0.0,0.0,0.0,0.0,0.0,0.0,0.0,0.0,0.0,0.0,0.0,0.0,0.0,0.0,0.0,0.0,0.0,0.0,0.0,0.0,0.0,0.0,4.1559,4.2016,4.3219,4.3344,4.4021,4.5324,4.4657,4.3844,4.291,0.0,0.0,0.0,0.0,0.0,0.0,0.0,0.0,0.0,0.0,0.0,0.0,0.0,0.0,0.0,0.0,0.0,0.0,0.0,0.0,0.0,0.0,0.0,0.0,0.0,0.0,0.0,0.0,0.0,0.0,0.0,0.0,0.0,0.0,0.0,0.0,0.0,0.0,3.8732,3.8943,0.0,0.0,0.0,0.0,0.0,0.0,0.0,0.0,4.1901,0.0,0.0,0.0,0.0,0.0,0.0,0.0,0.0,0.0,0.0,0.0,0.0,0.0,0.0,0.0,0.0,0.0,0.0,0.0,0.0,0.0,0.0,0.0,0.0,0.0,0.0,0.0,0.0,0.0,0.0,0.0,0.0,0.0,0.0,0.0,0.0,0.0,0.0,0.0,0.0,0.0,0.0,0.0,0.0,0.0,0.0,0.0,0.0,0.0,0.0,0.0,0.0,0.0,0.0,0.0,0.0,4.3028,4.2448,4.2852,4.4369,4.4029,4.4681,4.649,4.5872,4.5003,4.3881,0.0,0.0,0.0,0.0,0.0,0.0,0.0,0.0,0.0,0.0,0.0,0.0,0.0,0.0,0.0,0.0,0.0,0.0,0.0,0.0,0.0,0.0,0.0,0.0,0.0,0.0,0.0,0.0,0.0,0.0,0.0,0.0,0.0,0.0,0.0,0.0,0.0,0.0,0.0,3.9973,4.0492,0.0,0.0,0.0,0.0,0.0,0.0,0.0,0.0,4.291,0.0,0.0,0.0,0.0,0.0,0.0,0.0,0.0,0.0,0.0,0.0,0.0,0.0,0.0,0.0,0.0,0.0,0.0,0.0,0.0,0.0,0.0,0.0,0.0,0.0,0.0,0.0,0.0,0.0,0.0,0.0,0.0,0.0,0.0,0.0,0.0,0.0,0.0,0.0,0.0,0.0,0.0,0.0,0.0,0.0,0.0,0.0,0.0,0.0,0.0,0.0,0.0,0.0,0.0,0.0,4.4585,4.3852,4.4198,4.5727,4.5564,4.6078,4.7307,4.6873,4.6194,0.0,0.0,0.0,0.0,0.0,0.0,0.0,0.0,0.0,0.0,0.0,0.0,0.0,0.0,0.0,0.0,0.0,0.0,0.0,0.0,0.0,0.0,0.0,0.0,0.0,0.0,0.0,0.0,0.0,0.0,0.0,0.0,0.0,0.0,0.0,0.0,0.0,0.0,0.0,0.0,4.18,4.2213,4.2729,0.0,0.0,0.0,0.0,0.0,0.0,4.4232,4.3849,0.0,0.0,0.0,0.0,0.0,0.0,0.0,0.0,0.0,0.0,0.0,0.0,0.0,0.0,0.0,0.0,0.0,0.0,0.0,0.0,0.0,0.0,0.0,0.0,0.0,0.0,0.0,0.0,0.0,0.0,0.0,0.0,0.0,0.0,0.0,0.0,0.0,0.0,0.0,0.0,0.0,0.0,0.0,0.0,0.0,0.0,0.0,0.0,0.0,0.0,0.0,0.0,0.0,0.0,0.0,4.617,4.5285,4.5484,4.6931,4.7027,4.7316,4.7997,4.7633,4.7085,0.0,0.0,0.0,0.0,0.0,0.0,0.0,0.0,0.0,0.0,0.0,0.0,0.0,0.0,0.0,0.0,0.0,0.0,0.0,0.0,0.0,0.0,0.0,0.0,0.0,0.0,0.0,0.0,0.0,0.0,0.0,0.0,0.0,0.0,0.0,0.0,0.0,0.0,0.0,0.0,0.0,4.4255,4.4333,4.5284,0.0,0.0,0.0,0.0,4.5708,4.5196,0.0,0.0,0.0,0.0,0.0,0.0,0.0,0.0,0.0,0.0,0.0,0.0,0.0,0.0,0.0,0.0,0.0,0.0,0.0,0.0,0.0,0.0,0.0,0.0,0.0,0.0,0.0,0.0,0.0,0.0,0.0,0.0,0.0,0.0,0.0,0.0,0.0,0.0,0.0,0.0,0.0,0.0,0.0,0.0,0.0,0.0,0.0,0.0,0.0,0.0,0.0,0.0,0.0,0.0,0.0,0.0,4.7282,4.6241,4.623,4.7287,4.7359,4.7775,4.8634,4.7988,4.7289,0.0,0.0,0.0,0.0,0.0,0.0,0.0,0.0,0.0,0.0,0.0,0.0,0.0,0.0,0.0,0.0,0.0,0.0,0.0,0.0,0.0,0.0,0.0,0.0,0.0,0.0,0.0,0.0,0.0,0.0,0.0,0.0,0.0,0.0,0.0,0.0,0.0,0.0,0.0,0.0,0.0,4.643,4.6195,4.8325,4.9719,0.0,0.0,4.8491,4.8326,4.6865,0.0,0.0,0.0,0.0,0.0,0.0,0.0,0.0,0.0,0.0,0.0,0.0,0.0,0.0,0.0,0.0,0.0,0.0,0.0,0.0,0.0,0.0,0.0,0.0,0.0,0.0,0.0,0.0,0.0,0.0,0.0,0.0,0.0,0.0,0.0,0.0,0.0,0.0,0.0,0.0,0.0,0.0,0.0,0.0,0.0,0.0,0.0,0.0,0.0,0.0,0.0,0.0,0.0,0.0,0.0,4.7498,4.9032,4.8106,4.8119,4.9167,4.9192,4.9311,4.9494,4.8798,4.8277,0.0,0.0,0.0,0.0,0.0,0.0,0.0,0.0,0.0,0.0,0.0,0.0,0.0,0.0,0.0,0.0,0.0,0.0,0.0,0.0,0.0,0.0,0.0,0.0,0.0,0.0,0.0,0.0,0.0,0.0,0.0,0.0,0.0,0.0,0.0,0.0,0.0,0.0,0.0,0.0,0.0,0.0,4.9216,5.0711,0.0,0.0,0.0,5.0188,4.9356,0.0,0.0,0.0,0.0,0.0,0.0,0.0,0.0,0.0,0.0,0.0,0.0,0.0,0.0,0.0,0.0,0.0,0.0,0.0,0.0,0.0,0.0,0.0,0.0,0.0,0.0,0.0,0.0,0.0,0.0,0.0,0.0,0.0,0.0,0.0,0.0,0.0,0.0,0.0,0.0,0.0,0.0,0.0,0.0,0.0,0.0,0.0,0.0,0.0,0.0,0.0,0.0,0.0,0.0,0.0,0.0,0.0,5.036,4.9412,4.9461,5.0563,5.0588,5.0487,5.0206,4.9532,0.0,0.0,0.0,0.0,0.0,0.0,0.0,0.0,0.0,0.0,0.0,0.0,0.0,0.0,0.0,0.0,0.0,0.0,0.0,0.0,0.0,0.0,0.0,0.0,0.0,0.0,0.0,4.4284,0.0,0.0,0.0,0.0,0.0,0.0,0.0,0.0,0.0,0.0,0.0,0.0,0.0,0.0,5.1661,5.2517,5.3397,5.3516,0.0,0.0,5.1781,5.0816,5.0241,4.9739,0.0,0.0,0.0,0.0,0.0,0.0,0.0,0.0,0.0,0.0,0.0,0.0,0.0,0.0,0.0,0.0,0.0,0.0,0.0,0.0,0.0,0.0,0.0,0.0,0.0,0.0,0.0,0.0,0.0,0.0,0.0,0.0,0.0,0.0,0.0,0.0,0.0,0.0,0.0,0.0,0.0,0.0,0.0,0.0,0.0,0.0,0.0,0.0,0.0,0.0,0.0,0.0,0.0,0.0,0.0,5.0631,4.9533,4.9486,5.0537,5.0588,5.0588,5.0588,5.0017,4.989,0.0,0.0,0.0,0.0,0.0,0.0,0.0,0.0,0.0,0.0,0.0,0.0,0.0,0.0,0.0,0.0,0.0,0.0,0.0,0.0,0.0,0.0,0.0,0.0,0.0,0.0,0.0,0.0,0.0,0.0,0.0,0.0,0.0,0.0,0.0,0.0,0.0,0.0,0.0,0.0,0.0,5.4805,5.5919,5.6891,5.7254,0.0,0.0,5.4057,5.3675,5.2856,5.2063,5.1505,0.0,0.0,0.0,0.0,0.0,0.0,0.0,0.0,0.0,0.0,0.0,0.0,0.0,0.0,0.0,0.0,0.0,0.0,0.0,0.0,0.0,0.0,0.0,0.0,0.0,0.0,0.0,0.0,0.0,0.0,0.0,0.0,0.0,0.0,0.0,0.0,0.0,0.0,0.0,0.0,0.0,0.0,0.0,0.0,0.0,0.0,0.0,0.0,0.0,0.0,0.0,0.0,0.0,5.0574,5.1629,5.1023,5.0961,5.1507,5.156,5.1346,5.0931,5.0559,5.0445,0.0,0.0,0.0,0.0,0.0,0.0,0.0,0.0,0.0,0.0,0.0,0.0,0.0,0.0,0.0,0.0,0.0,0.0,0.0,0.0,0.0,0.0,0.0,0.0,0.0,0.0,0.0,0.0,4.7573,4.7774,4.897,0.0,0.0,0.0,0.0,0.0,0.0,0.0,0.0,0.0,0.0,5.6383,5.6997,5.7408,0.0,0.0,5.6598,5.5901,5.4613,5.4318,5.395,5.3103,5.221,0.0,0.0,0.0,0.0,0.0,0.0,0.0,0.0,0.0,0.0,0.0,0.0,0.0,0.0,0.0,0.0,0.0,0.0,0.0,0.0,0.0,0.0,0.0,0.0,0.0,0.0,0.0,0.0,0.0,0.0,0.0,0.0,0.0,0.0,0.0,0.0,0.0,0.0,0.0,0.0,0.0,0.0,0.0,0.0,0.0,0.0,0.0,0.0,0.0,0.0,0.0,0.0,5.2152,5.2846,5.2475,5.2598,5.3025,5.3056,5.2855,5.2394,5.1995,5.1734,0.0,0.0,0.0,0.0,0.0,0.0,0.0,0.0,0.0,0.0,0.0,0.0,0.0,0.0,0.0,0.0,0.0,0.0,0.0,0.0,0.0,0.0,0.0,0.0,0.0,0.0,0.0,0.0,4.8545,4.9367,5.1783,0.0,0.0,0.0,0.0,0.0,0.0,0.0,0.0,0.0,0.0,5.7791,5.851,5.8529,5.8428,5.8126,5.7898,5.7316,5.6083,5.5932,5.5621,5.454,0.0,0.0,0.0,0.0,0.0,0.0,0.0,0.0,0.0,0.0,0.0,0.0,0.0,0.0,0.0,0.0,0.0,0.0,0.0,0.0,0.0,0.0,0.0,0.0,0.0,0.0,0.0,4.4656,0.0,0.0,4.5434,0.0,0.0,0.0,0.0,0.0,0.0,0.0,0.0,0.0,0.0,0.0,0.0,0.0,0.0,0.0,0.0,0.0,0.0,0.0,0.0,0.0,0.0,5.289,5.4284,5.3754,5.4061,5.5239,5.5289,5.5293,5.5205,5.444,5.393,5.3879,0.0,0.0,0.0,0.0,0.0,0.0,0.0,0.0,0.0,0.0,0.0,0.0,0.0,0.0,0.0,0.0,0.0,0.0,0.0,0.0,0.0,0.0,0.0,0.0,0.0,0.0,4.8952,5.073,5.2686,0.0,0.0,0.0,0.0,0.0,0.0,0.0,0.0,0.0,0.0,5.8881,5.9355,6.0825,6.0887,6.0794,6.1305,5.957,5.8279,5.846,5.7899,5.7088,0.0,0.0,0.0,0.0,0.0,0.0,0.0,0.0,0.0,0.0,0.0,0.0,0.0,0.0,0.0,0.0,0.0,0.0,0.0,0.0,0.0,0.0,0.0,0.0,0.0,0.0,0.0,4.5694,4.573,0.0,0.0,0.0,0.0,0.0,0.0,0.0,0.0,0.0,0.0,0.0,5.0655,5.1045,0.0,0.0,0.0,0.0,0.0,0.0,0.0,0.0,0.0,0.0,0.0,0.0,5.4444,5.5002,5.488,5.5083,5.5732,5.5725,5.5603,5.5426,5.5308,5.4992,5.4553,0.0,0.0,0.0,0.0,0.0,0.0,0.0,0.0,0.0,0.0,0.0,0.0,0.0,0.0,0.0,0.0,0.0,0.0,0.0,0.0,0.0,0.0,0.0,0.0,0.0,5.0448,0.0,0.0,0.0,0.0,0.0,0.0,0.0,0.0,0.0,0.0,0.0,5.7665,5.8671,5.961,6.0347,6.0764,6.0726,6.0726,0.0,0.0,0.0,0.0,0.0,0.0,0.0,0.0,0.0,0.0,0.0,0.0,0.0,0.0,5.3179,5.1333,5.0955,5.0955,5.0955,0.0,0.0,0.0,0.0,0.0,0.0,0.0,0.0,0.0,0.0,0.0,0.0,0.0,0.0,4.6791,0.0,4.711,0.0,0.0,0.0,0.0,0.0,0.0,0.0,0.0,5.1648,5.2044,5.1829,5.2424,5.2513,0.0,5.1621,5.2329,0.0,0.0,0.0,0.0,0.0,0.0,0.0,0.0,5.5731,5.5601,5.605,5.6508,5.6924,5.696,5.7022,5.6967,5.6908,5.629,5.5096,5.476,5.4013,0.0,0.0,0.0,0.0,0.0,0.0,0.0,0.0,0.0,0.0,0.0,0.0,0.0,0.0,0.0,0.0,0.0,0.0,0.0,0.0,0.0,0.0,0.0,5.2572,0.0,0.0,0.0,0.0,0.0,0.0,0.0,0.0,0.0,6.0149,5.9936,5.989,5.9798,6.0534,6.1047,6.0998,0.0,0.0,0.0,0.0,0.0,0.0,0.0,6.0786,6.0072,5.9798,5.9398,5.8785,5.8252,5.7894,5.7797,0.0,0.0,5.3711,5.319,5.3099,5.2948,5.2963,5.2871,5.2716,5.2597,5.242,0.0,0.0,0.0,0.0,0.0,0.0,0.0,0.0,4.757,4.7835,0.0,4.7788,0.0,0.0,0.0,0.0,0.0,5.0598,0.0,0.0,5.3008,5.3406,5.2852,5.4052,5.4022,5.2821,5.276,5.3406,5.4529,5.2458,0.0,0.0,0.0,0.0,0.0,0.0,5.6616,5.5971,5.7233,5.8255,5.8789,5.8924,5.9284,5.9882,5.9066,5.7684,5.5842,5.5852,5.5554,5.4791,5.3951,0.0,0.0,0.0,0.0,0.0,0.0,0.0,0.0,0.0,0.0,0.0,0.0,0.0,0.0,0.0,0.0,0.0,0.0,0.0,0.0,5.3296,0.0,0.0,0.0,0.0,0.0,0.0,0.0,0.0,0.0,0.0,6.1317,6.1229,6.1418,6.2041,0.0,0.0,0.0,0.0,6.3002,6.3484,6.3268,6.2955,6.2923,6.2002,6.1212,6.0882,0.0,0.0,5.9763,5.9958,6.02,6.044,6.0248,5.9107,5.6173,5.563,5.5432,5.5007,5.493,5.4806,5.4649,5.4535,5.4122,5.2347,0.0,0.0,0.0,0.0,4.9296,4.9581,5.007,5.0976,5.0955,5.0214,5.0517,0.0,0.0,0.0,0.0,0.0,0.0,5.1871,5.2393,5.3944,5.4221,5.3468,5.4514,5.4653,5.4145,5.3652,5.3853,5.4621,5.3913,5.4312,5.5838,0.0,0.0,0.0,0.0,5.5822,5.5929,5.6748,5.7557,5.8174,5.8684,5.9244,5.9962,5.9486,5.8797,5.8066,5.7079,5.6528,5.6384,5.5547,0.0,0.0,0.0,0.0,0.0,0.0,0.0,0.0,0.0,0.0,0.0,0.0,0.0,0.0,0.0,0.0,0.0,0.0,0.0,5.3971,5.5269,5.6635,0.0,0.0,0.0,0.0,0.0,0.0,0.0,0.0,0.0,6.4252,6.312,6.264,0.0,0.0,6.3052,6.3256,6.3434,6.3643,6.3785,6.428,0.0,6.3747,6.3941,6.3894,6.3142,6.2951,6.2998,6.3106,6.2951,6.2715,6.262,6.2268,6.1386,5.9795,5.8847,5.8377,5.8239,5.8176,5.8176,5.808,5.7739,5.7365,5.5337,5.3545,5.2014,5.1404,5.1513,5.1272,5.15,5.2007,5.2601,5.2488,5.1911,5.2094,5.159,5.0673,5.0673,0.0,0.0,0.0,5.2863,5.3295,5.4761,5.5287,5.49,5.5457,5.5564,5.524,5.4745,5.4699,5.5099,5.5083,5.5855,5.7263,0.0,0.0,5.5476,5.6243,5.636,5.5908,5.7037,5.7708,5.7892,5.8532,5.9204,5.9845,5.9788,5.9625,5.9471,5.8708,5.8107,5.7693,5.673,5.6244,0.0,0.0,0.0,0.0,0.0,0.0,0.0,0.0,0.0,0.0,0.0,5.5928,5.6563,0.0,0.0,0.0,5.6274,5.6415,5.6057,5.7364,0.0,0.0,0.0,0.0,0.0,0.0,0.0,6.3242,6.5169,6.6445,6.588,6.5186,6.4719,6.4795,6.4508,6.4359,6.4374,0.0,6.4254,6.4347,6.5292,6.5758,6.524,6.5502,6.5475,6.4351,6.4542,6.4793,6.4761,6.4741,6.464,6.4319,6.3785,6.318,6.2428,6.1549,6.0589,5.9892,5.975,5.975,5.975,5.9505,5.9228,5.7421,5.7932,5.493,5.3972,5.4361,5.3151,5.3116,5.3821,5.3205,5.3125,5.3453,5.2902,5.2395,5.1867,5.1911,0.0,5.1836,5.3355,5.4078,5.414,5.5519,5.6218,5.645,5.6712,5.6617,5.6155,5.592,5.5857,5.5919,5.6107,5.69,5.8111,5.6453,5.5664,5.5916,5.769,5.7721,5.5885,5.7752,5.843,5.7906,5.8585,5.9232,5.9736,6.002,6.0152,6.0265,6.0422,5.9947,5.8667,5.7512,5.6927,5.701,0.0,0.0,0.0,0.0,0.0,0.0,0.0,0.0,0.0,0.0,0.0,0.0,0.0,0.0,0.0,5.7715,0.0,5.8087,5.9441,0.0,0.0,0.0,6.4682,6.4264,6.5494,6.6149,6.5465,0.0,0.0,6.6627,6.7243,6.7399,6.6522,6.5901,6.5437,6.5246,6.5021,6.4963,6.5243,6.6277,6.7012,6.6934,6.6799,6.6341,6.5206,6.5364,6.5712,6.54,6.5631,6.5874,6.5613,6.4918,6.4347,6.4379,6.3483,6.2394,6.0674,6.0309,6.0261,6.0243,6.0275,6.0209,5.8794,5.9061,5.7828,5.7127,5.6787,5.6373,5.6298,5.6439,5.5993,5.5524,5.5097,5.4944,5.4283,5.3252,5.3433,5.3155,5.2513,5.339,5.3896,5.4171,5.5704,5.6277,5.6005,5.6741,5.7084,5.6941,5.6895,5.7132,5.7557,5.7527,5.7637,5.795,5.7527,5.7246,5.7104,5.7262,5.7293,5.7057,5.7571,5.7959,5.8332,5.9563,5.9949,5.9607,5.9625,5.9955,6.0484,6.0035,5.9527,5.8844,5.8044,5.7113,5.601,5.6595,0.0,0.0,0.0,0.0,0.0,0.0,0.0,0.0,0.0,5.7969,6.0658,0.0,6.0117,0.0,5.9911,5.9905,6.0089,6.1419,0.0,0.0,6.364,6.4498,6.4952,6.596,6.6513,6.6183,6.7432,6.8302,6.8302,6.8953,6.9392,6.9184,6.7608,6.6397,6.6182,6.5955,6.599,6.6635,6.7424,6.7982,6.806,6.7982,6.7703,6.7022,6.7056,6.7177,6.7228,6.6564,6.6245,6.6579,6.5846,6.5111,6.4897,6.4347,6.3688,6.2844,6.225,6.1842,6.1842,6.181,6.181,5.9369,5.9499,5.9403,5.9144,5.8741,5.773,5.7281,5.737,5.6843,5.6449,5.6193,5.598,5.5472,5.4761,5.4311,5.3956,5.3835,5.4266,5.4789,5.5405,5.6574,5.7178,5.7209,5.7634,5.7702,5.7642,5.7838,5.8015,5.8104,5.8512,5.867,5.8717,5.9133,5.9193,5.8931,5.8398,5.8009,5.7793,5.8044,5.8262,5.8556,5.9798,6.0066,5.9294,6.0183,6.0784,6.1078,6.1162,6.0803,5.9933,5.9298,5.826,5.6817,5.7397,5.7812,0.0,0.0,0.0,0.0,0.0,0.0,0.0,0.0,0.0,0.0,0.0,6.1941,6.1849,6.1983,6.2139,6.2248,6.3311,6.4068,6.4179,6.483,6.5485,6.6014,6.678,6.7438,6.7662,6.8498,6.9198,6.9542,6.9955,7.023,7.023,6.9096,6.8132,6.7836,6.7579,6.7574,6.7846,6.8606,6.9155,6.9199,6.9199,6.9008,6.8422,6.8533,6.8712,6.8461,6.8152,6.7944,6.7978,6.7012,6.6157,6.599,6.5198,6.4577,6.4328,6.3815,6.3212,6.2513,6.2396,6.2396,5.9529,5.9636,6.0167,6.0429,6.0276,5.8146,5.7353,5.7542,5.6727,5.6616,5.6796,5.6448,5.617,5.5922,5.4899,5.462,5.4977,5.5393,5.6073,5.6912,5.765,5.8381,5.9062,5.885,5.8683,5.8592,5.8966,5.8863,5.8335,5.9338,5.9841,5.9887,6.0623,6.0934,6.068,6.0141,5.943,5.8614,5.9333,5.9507,5.9096,6.0092,6.0187,5.9428,6.0961,6.182,6.1918,6.2508,6.2331,6.116,6.0508,5.9504,5.8173,5.8296,5.8573,0.0,5.9761,0.0,0.0,0.0,0.0,0.0,0.0,0.0,0.0,6.2969,6.3183,6.3585,6.4098,6.441,6.4307,6.5133,6.5691,6.5813,6.6431,6.6991,6.729,6.7842,6.8532,6.9325,6.9538,6.9883,7.0429,7.0601,7.067,7.0774,7.0574,7.029,6.9885,6.9415,6.9021,6.8972,6.9779,7.0331,7.0286,7.0331,7.0094,6.9485,6.9654,6.9958,6.935,6.9586,6.9823,6.9272,6.8267,6.7544,6.75,6.6335,6.548,6.5581,6.521,6.4398,6.3099,6.2612,6.2513,5.9796,6.0219,6.0377,6.0534,6.0619,5.9123,5.8477,5.8466,5.7236,5.6858,5.7036,5.715,5.6497,5.5395,5.5828,5.5393,5.4357,5.5457,5.6341,5.6958,5.7973,5.8882,5.9596,5.987,6.0216,6.0482,6.0567,6.0534,6.044,6.0509,6.0531,6.0531,6.0703,6.0745,6.0703,0.0,0.0,0.0,6.2983,6.3264,6.1614,6.2059,6.2091,6.1562,6.0631,0.0,6.2788,6.1763,6.1193,6.1049,5.9892,0.0,0.0,0.0,0.0,0.0,0.0,0.0,0.0,0.0,0.0,0.0,6.5593,6.5572,6.4217,6.4508,6.5323,6.6724,6.649,6.6053,6.5623,6.676,6.735,6.6837,6.7389,6.8113,6.8739,6.898,6.936,7.0084,7.0705,7.1118,7.1291,7.1843,7.2222,7.2153,7.2222,7.2173,7.202,7.072,6.9953,7.0413,7.093,7.1264,7.1075,7.1075,7.077,7.0229,7.006,7.0128,7.007,6.9586,6.9586,6.9867,6.9437,6.8981,6.8981,6.8113,6.7271,6.7117,6.669,6.5841,6.4024,6.3452,6.3116,6.0114,0.0,6.0534,6.069,0.0,5.9347,5.8793,5.8751,5.7395,5.6858,5.6971,5.7211,5.6854,5.6139,5.6512,5.6555,5.6301,5.6888,5.7629,5.8473,5.9105,5.9696,6.0206,6.0642,6.0853,6.0853,6.1185,6.1185,6.0853,6.0853,6.0853,6.0853,6.1061,6.1219,6.1219,6.1996,6.2407,6.2309,6.3448,6.3707,6.293,6.3674,6.3424,6.2092,6.2114,0.0,0.0,0.0,0.0,0.0,0.0,0.0,0.0,0.0,0.0,5.9655,6.07,6.1993,6.357,6.3747,6.4202,6.5223,6.6297,6.6692,6.6122,6.6083,6.6465,6.7305,6.7065,6.6897,6.7014,6.7669,6.7945,6.7601,6.7876,6.8394,6.9118,6.9291,6.9779,7.0739,7.1256,7.1636,7.2015,7.2437,7.2713,7.2671,7.2671,7.2671,7.2636,7.1882,7.1369,7.1542,7.1634,7.1688,7.1501,7.1457,7.1344,7.0883,7.0737,7.0781,7.088,7.0575,7.0517,7.091,7.0565,7.014,7.0072,6.9442,6.871,6.8302,6.7912,6.7339,6.6057,6.5666,6.5372,6.0429,6.0481,6.069,6.0794,6.0701,5.9347,5.8639,5.8381,0.0,0.0,0.0,5.7019,5.7022,5.6946,5.7119,5.7611,5.8324,5.8502,5.9112,6.0087,6.0443,6.0765,6.1093,6.1467,6.1509,6.126,6.1654,6.1547,6.1011,6.1185,6.1235,6.1268,6.1669,6.183,6.1978,6.291,6.3391,6.3391,6.3325,6.3473,6.3848,6.4741,6.4341,6.2387,6.3615,6.3691,6.2589,6.2889,6.2556,6.1493,6.0959,6.0158,5.9098,5.9383,5.9784,6.0102,6.083,6.2046,6.3823,6.3965,6.463,6.607,6.7048,6.7727,6.8216,6.7635,6.7333,6.7437,6.7295,6.7428,6.8014,6.8083,6.8152,6.829,6.829,6.867,6.9572,6.967,7.0256,7.1429,7.1739,7.1946,7.2533,7.2671,7.2671,7.2671,7.2671,7.2671,7.2671,7.2602,7.2406,7.2262,7.2124,7.1942,7.1688,7.16,7.1512,7.1378,7.1289,7.1412,7.1634,7.1688,7.1732,7.183,7.1516,7.1208,7.1114,7.0609,6.9974,6.9454,6.933,6.9225,6.877,6.8715,6.8369,6.0534,6.0742,6.0794,6.0794,6.0701,5.9347,5.8165,5.7087,5.6902,5.6906,5.7036,5.7084,5.6774,5.6294,5.7694,5.8042,5.7732,5.9067,5.9913,6.0302,6.1353,6.2115,6.2531,6.277,6.3087,6.33,6.2646,6.2263,6.2183,6.2183,6.2189,6.2223,6.2263,6.2381,6.2537,6.2911,6.3358,6.3951,6.4843,6.5091,6.4708,6.4727,6.466,6.441,6.3242,6.3202,6.4214,6.306,6.2622,6.3026,6.198,6.1435,6.1639,6.1063,6.1139,6.201,6.2328,6.2958,6.411,6.4252,6.5545,6.8271,6.9764,7.0349,6.9865,6.8899,6.8531,6.9085,6.8409,6.798,6.8083,6.8083,6.8359,6.898,6.9158,6.9676,7.0912,7.1118,7.1429,7.2326,7.254,7.2498,7.2636,7.2671,7.2747,7.2705,7.2809,7.2747,7.2782,7.2671,7.2586,7.2373,7.2288,7.2038,7.182,7.16,7.1644,7.1556,7.159,7.1678,7.1942,7.1942,7.1942,7.1985,7.2022,7.2039,7.2048,7.1668,7.1235,7.1036,7.1373,7.1779,7.1694,7.2142,7.1596,6.069,6.0794,6.0794,6.0794,6.0701,5.9347,5.8288,5.7333,5.7109,5.6971,5.6923,5.6923,5.6834,5.6745,5.8113,5.8761,5.8871,6.067,6.1625,6.1933,6.309,6.3639,6.3802,6.4153,6.4427,6.4517,6.3605,6.3148,6.3114,6.2662,6.2415,6.242,6.2498,6.2654,6.2847,6.2962,6.3209,6.37,6.4449,6.4909,6.5056,6.4943,6.4772,6.4517,6.365,6.3373,6.3718,6.3072,6.2625,6.2591,6.2135,6.1779,6.1586,6.1729,6.2046,6.2571,6.3094,6.4037,6.5508,6.6563,6.7897,6.9683,7.0412,7.0692,7.0383,7.0074,6.9628,6.9142,6.8605,6.8241,6.8241,6.8162,6.8428,6.9262,6.9291,6.9911,7.1187,7.1498,7.1808,7.254,7.2671,7.2671,7.2671,7.2671,7.2877,7.3153,7.3257,7.3342,7.3594,7.351,7.3322,7.2816,7.2586,7.2501,7.2339,7.2124,7.2038,7.2124,7.1951,7.2029,7.2245,7.2288,7.2245,7.2331,7.2459,7.2501,7.2501,7.231,7.2188,7.2153,7.236,7.2816,7.323,7.3567,7.2716,6.0794,6.0794,6.0794,6.0732,6.0455,5.9285,5.8393,5.7765,5.7281,5.6923,5.681,5.6858,5.6923,5.7227,5.8363,5.9278,6.012,6.1916,6.2978,6.3357,6.4572,6.51,6.502,6.5375,6.5533,6.547,6.4415,6.3815,6.3673,6.2871,6.242,6.2498,6.2693,6.2923,6.3076,6.3114,6.3227,6.3374,6.3772,6.4243,6.4825,6.4996,6.4757,6.4038,6.3969,6.373,6.311,6.3114,6.284,6.2289,6.2407,6.2243,6.1659,6.232,6.2812,6.3026,6.3582,6.4804,6.6737,6.8775,7.0078,7.0464,7.085,7.0885,7.0567,7.0721,7.0318,6.8987,6.8625,6.8474,6.8509,6.8566,6.8828,6.9554,6.9825,7.0516,7.1615,7.1815,7.1988,7.2651,7.2755,7.2755,7.2755,7.2755,7.2962,7.3411,7.3618,7.3822,7.433,7.4254,7.3747,7.3539,7.3164,7.2927,7.2908,7.2509,7.2339,7.2517,7.2253,7.2288,7.2501,7.2501,7.2459,7.2628,7.2671,7.2774,7.2877,7.274,7.2843,7.305,7.3326,7.3533,7.4223,7.4188,7.3637,6.0794,6.0794,6.0794,6.0424,5.987,5.9101,5.8393,5.7795,5.7087,5.681,5.681,5.6971,5.7115,5.7275,5.8378,5.9278,6.0076,6.1916,6.3093,6.3694,6.5155,6.6004,6.6199,6.628,6.6399,6.6313,6.48,6.3956,6.3849,6.2871,6.2532,6.2727,6.3038,6.3296,6.3371,6.3486,6.3563,6.3563,6.3632,6.3701,6.3732,6.4424,6.4353,6.3701,6.3629,6.352,6.3265,6.3452,6.3417,6.3233,6.3314,6.339,6.3321,6.3427,6.3606,6.3788,6.4108,6.4985,6.6987,6.976,7.1201,7.0675,7.1728,7.1868,7.0639,7.0532,7.0138,6.9252,6.8854,6.8705,6.8701,6.9293,6.9945,7.0814,7.1249,7.2,7.2576,7.2693,7.2686,7.2929,7.2922,7.2963,7.2922,7.2957,7.3033,7.3137,7.331,7.3643,7.435,7.4071,7.3926,7.4362,7.4295,7.3572,7.2758,7.2339,7.2382,7.2416,7.2331,7.2459,7.2628,7.2713,7.2671,7.2671,7.2713,7.292,7.323,7.3222,7.3153,7.3981,7.443,7.4912,7.5568,7.5326,7.4472,6.0794,6.0794,6.0794,6.064,6.024,5.9255,5.8608,5.8319,5.7532,5.7115,5.7019,5.7401,5.7495,5.7417,5.8592,5.9725,6.0881,6.2632,6.3967,6.485,6.6269,6.695,6.7065,6.7313,6.7438,6.7409,6.6136,6.5221,6.4522,6.3305,6.3174,6.4166,6.3707,6.4198,6.5791,6.4424,6.4014,6.4876,6.4048,6.36,6.3634,6.391,6.3876,6.3634,6.36,6.3563,6.3489,6.3563,6.3563,6.3489,6.3563,6.36,6.36,6.36,6.3747,6.4141,6.6103,6.8001,6.9654,7.1412,7.2009,7.1271,7.1342,7.0955,6.9972,6.9832,6.9654,6.9335,6.9078,6.9244,7.0081,7.007,7.0549,7.1942,7.2088,7.2173,7.2901,7.2838,7.2755,7.2797,7.2838,7.2838,7.2908,7.3219,7.3337,7.3296,7.34,7.3899,7.4665,7.4456,7.4624,7.5189,7.4996,7.4245,7.3337,7.2755,7.2713,7.2797,7.2762,7.2797,7.2873,7.3005,7.3005,7.2755,7.2797,7.2866,7.3023,7.3058,7.305,7.4119,7.5257,7.5844,7.6602,7.6154,7.5533,6.0794,6.0794,6.0794,6.0794,6.0671,5.9562,5.8997,5.8789,5.8035,5.7509,5.7306,5.7684,5.7778,5.7778,5.8669,5.9919,6.148,6.3045,6.4455,6.5696,6.693,6.7475,6.755,6.7919,6.8083,6.794,6.7128,6.6273,6.5568,6.4698,6.485,6.5838,6.5126,6.5791,6.7601,6.5462,6.4772,6.56,6.4393,6.36,6.36,6.36,6.36,6.36,6.36,6.36,6.36,6.36,6.36,6.36,6.36,6.36,6.36,6.36,6.3956,6.5015,6.8104,7.0499,7.1658,7.257,7.2711,7.1798,7.1131,7.0394,6.9621,6.9376,6.9376,6.9411,6.944,6.9992,7.0832,7.1066,7.1717,7.2893,7.2557,7.2533,7.2901,7.2838,7.2713,7.2755,7.2838,7.2797,7.2866,7.3169,7.3357,7.3268,7.3545,7.4191,7.4752,7.4757,7.4787,7.5557,7.5026,7.4491,7.417,7.3698,7.3435,7.3441,7.3511,7.3386,7.3289,7.3385,7.3461,7.3351,7.3178,7.3137,7.3322,7.3211,7.2954,7.374,7.4809,7.5844,7.611,7.5878,7.5775,6.0794,6.0794,6.0794,6.0794,6.0732,6.0024,5.9529,5.9191,5.8404,5.7849,5.7589,5.7778,5.7918,5.7918,5.8518,5.9685,6.1426,6.2746,6.4236,6.5764,6.693,6.7475,6.7516,6.7885,6.8083,6.8049,6.7232,6.6656,6.6394,6.7062,6.7628,6.7702,6.762,6.7876,6.8118,6.6704,6.5807,6.5876,6.4531,6.3634,6.36,6.36,6.3634,6.3703,6.36,6.36,6.36,6.36,6.36,6.36,6.36,6.36,6.3634,6.3703,6.4616,6.6547,6.968,7.1587,7.1938,7.3062,7.3238,7.1974,7.1552,7.0955,6.9586,6.9376,6.9376,6.9376,7.0113,7.0602,7.0847,7.2248,7.3116,7.2813,7.3032,7.3072,7.3012,7.2838,7.2797,7.2922,7.2922,7.2922,7.2963,7.2797,7.2942,7.304,7.3205,7.3729,7.4461,7.4382,7.4567,7.4878,7.4657,7.4176,7.5157,7.4441,7.4163,7.4204,7.4017,7.4094,7.3969,7.3871,7.3947,7.3871,7.3552,7.3504,7.3691,7.3641,7.3307,7.3636,7.4292,7.5085,7.5489,7.4568,7.474,6.0794,6.0794,6.0794,6.0794,6.0701,6.029,5.9959,5.9768,5.8944,5.8513,5.8373,5.8231,5.8182,5.8228,5.8972,6.0344,6.206,6.2771,6.4224,6.6263,6.7134,6.7475,6.7516,6.7885,6.8083,6.8049,6.7763,6.7546,6.7541,6.7702,6.8395,6.9135,6.8492,6.898,7.0222,6.8532,6.729,6.7152,6.5807,6.46,6.3772,6.36,6.4048,6.4945,6.4083,6.36,6.36,6.36,6.36,6.36,6.36,6.4048,6.5051,6.6211,6.7614,6.9335,7.0867,7.2149,7.3027,7.3202,7.2816,7.1833,7.1201,7.0569,6.9621,6.9376,6.9376,6.9656,7.1026,7.1728,7.1587,7.25,7.344,7.3832,7.356,7.3252,7.3046,7.2838,7.2713,7.2797,7.2797,7.2797,7.2797,7.2755,7.2838,7.3129,7.3252,7.363,7.4162,7.4462,7.4923,7.5484,7.5234,7.5118,7.6543,7.4891,7.3786,7.4141,7.428,7.4274,7.421,7.4555,7.4665,7.4147,7.3856,7.3663,7.3823,7.3434,7.3204,7.3498,7.4154,7.4499,7.48,7.4499,7.505,6.0794,6.0794,6.0794,6.0794,6.0784,6.0639,6.0451,6.0272,5.9812,5.9489,5.927,5.886,5.8763,5.9076,5.9511,6.0963,6.2881,6.3176,6.4486,6.6711,6.727,6.7475,6.7557,6.7919,6.8083,6.8152,6.8394,6.8463,6.8532,6.8619,6.9376,7.0567,6.967,7.0325,7.1877,7.0084,6.8842,6.8566,6.7359,6.6048,6.5152,6.5048,6.5497,6.629,6.5566,6.4807,6.4358,6.3876,6.36,6.3634,6.4048,6.5014,6.657,6.8405,6.9958,7.1007,7.1952,7.2851,7.3729,7.3483,7.2886,7.2114,7.1342,7.0569,6.9832,6.9516,6.9411,6.9797,7.1166,7.2184,7.2079,7.2606,7.3506,7.4141,7.3694,7.3211,7.2963,7.2797,7.2713,7.2713,7.2713,7.2713,7.2747,7.2996,7.3164,7.324,7.3682,7.4275,7.4302,7.4707,7.5239,7.5695,7.5133,7.5239,7.5895,7.4962,7.4595,7.4916,7.5212,7.5037,7.5015,7.5323,7.5188,7.4601,7.4194,7.3967,7.3622,7.3233,7.328,7.3506,7.374,7.4119,7.4464,7.4843,7.5292,6.0794,6.0794,6.0794,6.0794,6.0845,6.1041,6.0955,6.074,6.0819,6.0592,6.0218,5.9602,5.9743,6.0359,6.01,6.1316,6.3507,6.3905,6.4925,6.6745,6.727,6.751,6.755,6.7845,6.8083,6.8118,6.8877,6.9222,6.9222,6.9808,7.0567,7.1256,7.1187,7.1429,7.2636,7.105,7.0291,6.9911,6.8739,6.8014,6.8049,6.7738,6.7807,6.8083,6.7876,6.7221,6.6014,6.4634,6.4014,6.4083,6.5186,6.6566,6.8088,7.0,7.1141,7.1499,7.2897,7.383,7.3975,7.394,7.3518,7.2746,7.2114,7.1342,7.0464,6.9832,6.9481,6.9621,7.078,7.1728,7.1974,7.3027,7.3782,7.3415,7.3375,7.3211,7.2838,7.2713,7.2671,7.2671,7.2671,7.2671,7.2927,7.3322,7.3594,7.3476,7.4315,7.516,7.4682,7.4983,7.5168,7.5133,7.5063,7.5274,7.5239,7.5133,7.559,7.6006,7.6298,7.639,7.6368,7.6491,7.607,7.5522,7.5015,7.4758,7.3717,7.3365,7.3399,7.3591,7.3722,7.3929,7.417,7.4585,7.5068,6.0794,6.0794,6.0794,6.0897,6.1103,6.1359,6.1489,6.154,6.1379,6.1228,6.0961,6.0297,6.025,6.0707,6.0967,6.221,6.3957,6.4447,6.5404,6.6677,6.7139,6.7387,6.7516,6.7759,6.7999,6.8221,6.8911,6.9291,6.9434,7.0015,7.0532,7.0705,7.0739,7.1153,7.1808,7.136,7.0946,7.036,6.9946,6.9222,6.8221,6.8118,6.8601,6.9428,6.867,6.829,6.8877,6.7532,6.6738,6.6635,6.7152,6.8083,6.9682,7.1527,7.2568,7.2713,7.3422,7.401,7.401,7.3975,7.3659,7.2957,7.257,7.1798,7.071,7.0288,6.9867,6.9621,7.078,7.1693,7.1974,7.3097,7.3786,7.3612,7.3571,7.3375,7.2963,7.2797,7.2713,7.2671,7.2671,7.2671,7.2747,7.3226,7.3435,7.3315,7.4054,7.4432,7.4487,7.5194,7.5871,7.5871,7.566,7.5274,7.5379,7.5449,7.5765,7.6222,7.6702,7.7215,7.7333,7.7339,7.6918,7.6351,7.5878,7.5154,7.4118,7.3843,7.4094,7.4002,7.4168,7.4202,7.4133,7.461,7.5431,6.0845,6.0949,6.0949,6.1103,6.1359,6.1664,6.1866,6.1953,6.1873,6.1782,6.1593,6.0708,6.0805,6.1471,6.1588,6.2691,6.4409,6.4993,6.5746,6.6736,6.7056,6.7304,6.755,6.7799,6.7925,6.8147,6.8601,6.8842,6.8842,6.9291,6.967,6.9911,6.998,7.036,7.1015,7.1084,7.0912,7.0774,7.0808,7.0463,6.9946,6.9808,7.0256,7.0946,7.0291,7.0325,7.1118,7.0291,6.9256,6.8463,6.8601,6.967,7.116,7.2533,7.3334,7.3415,7.3697,7.401,7.401,7.401,7.3834,7.3308,7.2711,7.2044,7.1026,7.0569,6.9832,6.9691,7.078,7.1693,7.1903,7.3097,7.3826,7.3852,7.3732,7.3496,7.3088,7.288,7.2755,7.2713,7.2671,7.2671,7.2713,7.3275,7.3413,7.3473,7.4066,7.4482,7.4672,7.5239,7.566,7.5765,7.5239,7.5204,7.566,7.5836,7.5941,7.6362,7.6848,7.7444,7.776,7.7907,7.7696,7.6778,7.617,7.5627,7.4729,7.5234,7.5519,7.5192,7.4864,7.542,7.5801,7.595,7.6669,6.0918,6.1155,6.1206,6.1359,6.1633,6.1866,6.2016,6.2066,6.2234,6.2319,6.2003,6.1119,6.1392,6.2492,6.1867,6.2885,6.497,6.5326,6.5898,6.6643,6.7056,6.7263,6.755,6.7879,6.8044,6.8118,6.8152,6.8152,6.8221,6.8325,6.8463,6.9153,6.9222,6.9601,7.0187,7.0325,7.0636,7.1118,7.1291,7.1532,7.2091,7.2333,7.2402,7.2437,7.2402,7.2402,7.2444,7.2306,7.116,6.9015,6.9911,7.1118,7.2409,7.3053,7.3334,7.3334,7.3737,7.397,7.401,7.401,7.3869,7.3624,7.2641,7.1693,7.1342,7.0394,6.9621,6.9481,7.0815,7.1693,7.1974,7.3097,7.3869,7.397,7.3812,7.3496,7.3129,7.3046,7.2922,7.2755,7.2713,7.2671,7.2747,7.3601,7.3739,7.3758,7.4711,7.5053,7.5028,7.4958,7.5063,7.5028,7.4923,7.5028,7.5449,7.559,7.5765,7.6362,7.6924,7.7591,7.8083,7.8258,7.8118,7.724,7.6637,7.61,7.5802,7.6133,7.6287,7.5959,7.6265,7.7101,7.7371,7.7311,7.7606,6.0517,6.1155,6.1206,6.1461,6.1866,6.1966,6.2116,6.2266,6.2365,6.2112,6.1751,6.1845,6.1914,6.2221,6.2572,6.3556,6.4799,6.5303,6.5878,6.6686,6.6854,6.7146,6.755,6.7919,6.8083,6.8083,6.8083,6.8083,6.8083,6.8083,6.8221,6.8394,6.8497,6.8808,6.9463,6.9607,6.998,7.0567,7.067,7.0774,7.1084,7.1567,7.1808,7.1843,7.2368,7.2728,7.2922,7.2922,7.2596,7.1712,7.1808,7.2264,7.272,7.3088,7.3334,7.3375,7.3697,7.401,7.3975,7.3975,7.3729,7.3167,7.2606,7.2009,7.0885,7.0464,6.9937,6.9832,7.078,7.1693,7.1938,7.3097,7.3869,7.397,7.3852,7.3692,7.3456,7.3211,7.2963,7.2922,7.2797,7.2713,7.2866,7.3144,7.3612,7.3555,7.4042,7.4712,7.4572,7.4747,7.4888,7.5028,7.5028,7.5028,7.5133,7.5274,7.5625,7.6292,7.6959,7.7696,7.8153,7.8399,7.8083,7.7486,7.7451,7.7052,7.6661,7.6578,7.6524,7.6824,7.7104,7.7662,7.7977,7.8109,7.8467,6.0383,6.1359,6.1359,6.1664,6.2166,6.2166,6.2266,6.2396,6.2396,6.2256,6.194,6.1909,6.2087,6.2284,6.262,6.3479,6.4636,6.5168,6.5824,6.6397,6.6812,6.718,6.755,6.7839,6.8004,6.8083,6.8083,6.8083,6.8083,6.8083,6.8083,6.8118,6.8083,6.8359,6.8739,6.8808,6.9153,6.9773,6.9946,7.0049,7.0429,7.0774,7.0981,7.1125,7.1615,7.2057,7.2533,7.2561,7.2541,7.2617,7.2671,7.2671,7.2713,7.3088,7.3293,7.3334,7.3737,7.3869,7.3553,7.3483,7.3132,7.2465,7.2114,7.1447,7.0639,7.0253,6.9762,6.9586,7.085,7.1552,7.1974,7.3097,7.3869,7.401,7.3891,7.3812,7.3732,7.3769,7.3489,7.315,7.2922,7.2838,7.2838,7.3046,7.3252,7.3456,7.3692,7.3997,7.4076,7.4466,7.4677,7.4747,7.4782,7.4747,7.5133,7.5414,7.6116,7.6748,7.731,7.8012,7.8188,7.8504,7.8188,7.7907,7.8047,7.8047,7.7543,7.7438,7.7852,7.8091,7.8126,7.8616,7.9204,7.9301,7.9627,6.0361,6.1438,6.1551,6.1916,6.2315,6.2365,6.2396,6.2396,6.2396,6.2302,6.2161,6.1719,6.1943,6.2632,6.2428,6.3033,6.43,6.4988,6.5658,6.6268,6.6812,6.7263,6.7475,6.7719,6.7959,6.8044,6.8083,6.8083,6.8083,6.8083,6.8083,6.8083,6.8083,6.8083,6.8221,6.8187,6.8497,6.9015,6.9153,6.9394,6.9842,7.0118,7.0256,7.0366,7.0816,7.1319,7.1787,7.1879,7.1925,7.2402,7.2609,7.2602,7.2651,7.2914,7.2974,7.2991,7.3168,7.3234,7.2851,7.2676,7.236,7.1658,7.0955,7.0429,7.0253,6.9797,6.9481,6.9411,7.0815,7.1693,7.2325,7.3308,7.3869,7.4045,7.4045,7.4036,7.3877,7.4292,7.4229,7.3268,7.3088,7.3005,7.3005,7.3046,7.317,7.3415,7.3617,7.3852,7.3931,7.4185,7.4256,7.4221,7.4291,7.4326,7.4958,7.566,7.6538,7.7345,7.7907,7.8363,7.8328,7.8434,7.8293,7.8223,7.8293,7.8363,7.8328,7.8539,7.8813,7.9129,7.9016,8.0217,8.1348,8.1007,8.1016,5.961,6.0563,6.1263,6.1784,6.2116,6.2315,6.2396,6.2365,6.2365,6.2098,6.1814,6.2003,6.194,6.1785,6.2394,6.318,6.3988,6.4773,6.5625,6.6601,6.677,6.7105,6.7435,6.7678,6.7919,6.8044,6.8083,6.8083,6.8083,6.8083,6.8083,6.8083,6.8083,6.8083,6.8083,6.8083,6.8152,6.8325,6.8359,6.8497,6.8773,6.9256,6.9538,6.9647,7.0417,7.0958,7.1136,7.1206,7.1191,7.1371,7.2002,7.2299,7.196,7.2063,7.2024,7.1802,7.1901,7.203,7.1935,7.1868,7.1587,7.085,7.0569,7.0253,6.9656,6.9516,6.9376,6.9656,7.078,7.2114,7.3202,7.3729,7.3975,7.408,7.4396,7.4537,7.4106,7.3952,7.3897,7.3601,7.3211,7.3005,7.3005,7.3046,7.317,7.3375,7.3577,7.3772,7.3891,7.401,7.401,7.401,7.4045,7.4291,7.5168,7.5976,7.6994,7.7661,7.8153,7.8574,7.8504,7.851,7.8482,7.8475,7.8469,7.8539,7.8574,7.8609,7.875,7.9311,7.9908,8.0786,8.1523,8.1752,8.2129,5.9313,6.0245,6.108,6.1664,6.2016,6.2166,6.2076,6.1954,6.194,6.1751,6.1529,6.1814,6.1909,6.1909,6.2519,6.3068,6.3738,6.4715,6.5658,6.6388,6.6686,6.7022,6.7346,6.7591,6.7799,6.8044,6.8083,6.8083,6.8083,6.8083,6.8083,6.8083,6.8083,6.8083,6.8083,6.8083,6.8083,6.8118,6.8083,6.8083,6.8187,6.8463,6.8898,6.9055,6.9745,7.0291,7.0717,7.0675,7.0728,7.0948,7.1405,7.1553,7.1125,7.1185,7.118,7.1141,7.1268,7.1252,7.1195,7.1096,7.0815,7.0043,6.9972,6.9762,6.9481,6.9376,6.9376,6.9691,7.078,7.2325,7.3764,7.401,7.401,7.408,7.4361,7.4396,7.4111,7.4172,7.4127,7.3837,7.3456,7.3375,7.3334,7.3211,7.3375,7.3617,7.3577,7.3772,7.3931,7.401,7.401,7.401,7.401,7.4396,7.5379,7.6362,7.7415,7.7872,7.8153,7.8469,7.8539,7.8622,7.8741,7.8657,7.8616,7.8574,7.8574,7.8644,7.8855,7.9487,8.0154,8.0926,8.1593,8.2111,8.2488,5.9282,6.0071,6.0845,6.1399,6.1759,6.1828,6.1599,6.1277,6.134,6.1466,6.1435,6.1466,6.2003,6.2369,6.258,6.2905,6.3628,6.4623,6.5614,6.6139,6.6643,6.6938,6.7222,6.7469,6.7678,6.8004,6.8083,6.8083,6.8083,6.8083,6.8083,6.8083,6.8083,6.8083,6.8083,6.8083,6.8083,6.8083,6.8083,6.8083,6.8083,6.8152,6.8384,6.8767,6.9066,6.9608,7.0103,7.0132,7.019,7.0658,7.0456,7.0257,7.0211,7.039,7.0486,7.0615,7.0671,7.0584,7.0389,7.0323,7.0043,6.9411,6.9411,6.9411,6.9376,6.9376,6.9376,6.9867,7.0815,7.2325,7.3764,7.401,7.401,7.401,7.401,7.401,7.4115,7.4572,7.4352,7.3952,7.3652,7.3571,7.3531,7.3415,7.3657,7.3812,7.3772,7.3807,7.4001,7.408,7.4115,7.415,7.415,7.4361,7.5239,7.5695,7.6889,7.7521,7.7837,7.8153,7.844,7.8629,7.8712,7.8657,7.8616,7.8616,7.8616,7.8609,7.896,7.9662,8.0224,8.0716,8.1523,8.2436,8.2743,5.8905,5.914,6.0608,6.1049,6.0852,6.1069,6.0907,6.0676,6.1119,6.1403,6.1466,6.1972,6.2225,6.2414,6.2446,6.2922,6.3785,6.4708,6.5459,6.6095,6.6601,6.6938,6.7139,6.7353,6.7638,6.7839,6.7965,6.8083,6.8083,6.8083,6.8083,6.8083,6.8083,6.8083,6.8083,6.8083,6.8083,6.8083,6.8083,6.8083,6.8083,6.8162,6.8319,6.8705,6.9005,6.9332,6.9477,6.9437,6.9322,6.9351,6.8972,6.8886,6.8976,6.9312,6.9436,6.9358,6.937,6.9526,6.9652,6.9621,6.9516,6.9411,6.9446,6.9411,6.9411,6.9446,6.9516,6.9902,7.0885,7.236,7.3834,7.3975,7.401,7.401,7.401,7.401,7.4045,7.415,7.4256,7.4006,7.3852,7.3732,7.3692,7.3652,7.3732,7.3812,7.3812,7.4027,7.4356,7.4361,7.4361,7.4361,7.4361,7.4607,7.5028,7.5274,7.5906,7.6608,7.7064,7.7667,7.799,7.85,7.8718,7.8705,7.8699,7.8741,7.8699,7.8651,7.8925,7.9487,7.9978,8.047,8.1277,8.2085,8.2471,5.8189,5.8212,5.9296,5.9815,5.9918,6.0004,6.016,6.0344,6.0676,6.1055,6.1403,6.1751,6.213,6.2302,6.2396,6.3002,6.3829,6.4527,6.5326,6.6038,6.6601,6.6854,6.7022,6.7312,6.7516,6.7719,6.7925,6.8083,6.8083,6.8083,6.8083,6.8083,6.8083,6.8083,6.8083,6.8083,6.8083,6.8083,6.8083,6.8083,6.8123,6.828,6.859,6.8854,6.908,6.9302,6.9339,6.9339,6.919,6.9078,6.8778,6.8551,6.8501,6.86,6.8812,6.8698,6.8705,6.893,6.9302,6.9376,6.9376,6.9446,6.9691,6.9727,6.9621,6.9691,6.9937,7.0288,7.1307,7.2535,7.3308,7.3729,7.3975,7.401,7.401,7.4049,7.4092,7.4088,7.4088,7.4163,7.401,7.3891,7.3852,7.3812,7.3772,7.3812,7.3852,7.4247,7.4752,7.4822,7.4822,7.4712,7.4712,7.4677,7.4888,7.5028,7.5239,7.58,7.6538,7.714,7.7826,7.8406,7.8729,7.8788,7.8823,7.8823,7.8875,7.8855,7.9101,7.9311,7.9908,8.0505,8.1102,8.1664,8.1909,5.7629,5.7412,5.8084,5.86,5.8907,5.9129,5.951,6.0027,6.0455,6.0897,6.134,6.1593,6.1972,6.2256,6.2453,6.278,6.3613,6.4222,6.5047,6.5761,6.6491,6.6812,6.6938,6.7188,6.7469,6.7557,6.7839,6.8044,6.8083,6.8083,6.8083,6.8083,6.8083,6.8083,6.8083,6.8083,6.8083,6.8083,6.8083,6.8083,6.8241,6.8513,6.8819,6.9078,6.9302,6.9376,6.9376,6.9376,6.9302,6.9153,6.893,6.8667,6.8513,6.8474,6.8551,6.8667,6.8743,6.904,6.9475,6.9656,6.9727,6.9762,7.0359,7.0253,7.0043,7.0323,7.078,7.0991,7.1868,7.2711,7.2992,7.3553,7.394,7.401,7.401,7.4088,7.417,7.428,7.4421,7.4385,7.4237,7.4124,7.4155,7.397,7.3896,7.4225,7.4299,7.4897,7.5363,7.5499,7.5499,7.5279,7.5098,7.4853,7.4853,7.4888,7.5028,7.5344,7.6227,7.7,7.7767,7.8493,7.87,7.8906,7.887,7.89,7.898,7.896,7.896,7.9206,7.9908,8.0365,8.061,8.0716,8.0891,5.7629,5.7492,5.8084,5.8254,5.8122,5.8752,5.9083,5.9301,6.0548,6.1277,6.1498,6.2003,6.2288,6.226,6.2173,6.2245,6.2737,6.3771,6.4637,6.524,6.6246,6.6812,6.6854,6.7097,6.7346,6.751,6.7719,6.7919,6.8044,6.8083,6.8083,6.8083,6.8083,6.8083,6.8083,6.8083,6.8083,6.8083,6.8083,6.8162,6.8358,6.859,6.8854,6.9115,6.9264,6.9376,6.9376,6.9376,6.9339,6.9339,6.9153,6.893,6.8705,6.8667,6.8667,6.8743,6.8999,6.9433,7.004,7.0218,7.0253,7.0359,7.1061,7.1026,7.0815,7.0955,7.1447,7.1587,7.2395,7.2781,7.2957,7.3553,7.3905,7.4049,7.4088,7.4241,7.4357,7.495,7.5053,7.5307,7.5345,7.4752,7.4452,7.4233,7.4049,7.4452,7.4847,7.5446,7.5935,7.6146,7.6247,7.6062,7.58,7.5555,7.5239,7.5168,7.5239,7.5274,7.6087,7.7006,7.7737,7.8463,7.8811,7.8947,7.8911,7.8864,7.8798,7.875,7.8715,7.896,7.9487,7.9698,7.9803,7.9908,8.0119,5.6997,5.6633,5.6938,5.7026,5.6966,5.7179,5.8176,5.9441,6.0012,6.0897,6.1845,6.2207,6.2133,6.1774,6.1801,6.1932,6.2256,6.3415,6.4486,6.5167,6.612,6.677,6.6854,6.7097,6.7304,6.7475,6.7678,6.7885,6.8004,6.8083,6.8083,6.8083,6.8083,6.8083,6.8083,6.8083,6.8083,6.8083,6.8123,6.828,6.8513,6.8667,6.8892,6.9264,6.9339,6.9376,6.9376,6.9376,6.9376,6.9376,6.9227,6.9078,6.8967,6.893,6.893,6.893,6.9153,6.9442,6.9832,7.0288,7.0534,7.085,7.1517,7.1938,7.1482,7.1482,7.1517,7.1026,7.257,7.3167,7.3027,7.3553,7.3869,7.4049,7.428,7.4909,7.5205,7.5573,7.5973,7.6261,7.6476,7.6036,7.5484,7.5012,7.4932,7.5133,7.5532,7.607,7.6592,7.6971,7.7037,7.6957,7.6695,7.6362,7.6011,7.5765,7.5836,7.5976,7.6503,7.7363,7.7853,7.8398,7.8776,7.8947,7.8987,7.8823,7.8693,7.882,7.903,7.8995,7.896,7.9276,7.9557,7.9698,8.0014,5.6519,5.6127,5.6127,5.6103,5.6066,5.5971,5.738,5.9487,5.9601,6.0628,6.1986,6.2351,6.1852,6.1227,6.1464,6.1617,6.1429,6.2915,6.4095,6.5085,6.5927,6.6492,6.6745,6.7056,6.7222,6.7428,6.7597,6.7799,6.7965,6.8044,6.8083,6.8083,6.8083,6.8083,6.8083,6.8083,6.8083,6.8083,6.8083,6.8319,6.8628,6.8705,6.8967,6.9264,6.9376,6.9376,6.9376,6.9376,6.9376,6.9376,6.9264,6.9153,6.9078,6.9115,6.9115,6.9153,6.9264,6.9551,6.9972,7.0429,7.078,7.1342,7.1938,7.2676,7.2816,7.243,7.1974,7.1447,7.2781,7.3308,7.3206,7.3596,7.4065,7.4431,7.4729,7.5536,7.6262,7.6696,7.7236,7.7811,7.7919,7.7703,7.7052,7.6184,7.5885,7.5971,7.6289,7.676,7.7323,7.7917,7.7722,7.7641,7.7384,7.6976,7.6397,7.6187,7.6327,7.6684,7.7211,7.7714,7.8241,7.8534,7.8846,7.8911,7.8987,7.8823,7.8651,7.8995,7.9346,7.903,7.8855,7.9136,7.9417,7.9522,7.9733,5.6616,5.6372,5.6342,5.5975,5.5424,5.6357,5.7408,5.8652,5.9425,6.0641,6.2049,6.2351,6.179,6.1165,6.1362,6.1283,6.0316,6.19,6.3217,6.4229,6.5043,6.6036,6.6567,6.6854,6.7014,6.7222,6.7428,6.7638,6.7839,6.8004,6.8044,6.8083,6.8083,6.8083,6.8083,6.8083,6.8083,6.8083,6.8083,6.8319,6.859,6.8743,6.8932,6.9302,6.9376,6.9376,6.9376,6.9376,6.9376,6.9376,6.9339,6.9264,6.919,6.9264,6.9264,6.9402,6.9512,6.9902,7.0569,7.1131,7.1903,7.243,7.2781,7.3238,7.3905,7.3869,7.3413,7.257,7.3413,7.3593,7.3533,7.3758,7.4332,7.4811,7.5322,7.63,7.7128,7.7883,7.8457,7.9212,7.9356,7.9104,7.889,7.8099,7.7376,7.7401,7.7932,7.8403,7.8636,7.9013,7.8487,7.8221,7.8004,7.7495,7.6654,7.6654,7.7203,7.7444,7.775,7.8183,7.8659,7.8876,7.8911,7.8906,7.8864,7.8699,7.8651,7.882,7.8925,7.875,7.8715,7.8925,7.8995,7.8995,7.9276,5.5698,5.591,5.5541,5.5354,5.5272,5.5005,5.5829,5.7121,5.7433,5.8861,6.1213,6.1909,6.1837,6.1291,6.1556,6.1303,6.0581,6.1966,6.3088,6.4044,6.4976,6.5893,6.6492,6.6854,6.6972,6.7139,6.7304,6.751,6.7799,6.7919,6.7965,6.8044,6.8083,6.8083,6.8083,6.8083,6.8083,6.8083,6.8123,6.828,6.8628,6.8743,6.8895,6.9339,6.9376,6.9376,6.9376,6.9376,6.9376,6.9376,6.9376,6.9339,6.9302,6.9339,6.9514,6.979,6.99,7.0604,7.1447,7.1903,7.243,7.3694,7.3483,7.3308,7.4431,7.3764,7.3238,7.3097,7.3553,7.3733,7.4152,7.4302,7.4704,7.5146,7.6014,7.7128,7.8023,7.8919,7.9707,8.0495,8.0524,8.0375,8.024,8.0068,7.9358,7.889,7.9501,7.9966,7.9954,7.9941,7.9387,7.9128,7.895,7.8634,7.7863,7.7974,7.8266,7.8206,7.8254,7.8588,7.8917,7.887,7.887,7.8864,7.8864,7.8823,7.8741,7.8616,7.8574,7.8616,7.8616,7.8644,7.8609,7.8616,7.8855,5.5592,5.5899,5.5284,5.4944,5.4772,5.433,5.5039,5.6356,5.6555,5.7948,6.0645,6.1656,6.1709,6.1344,6.1677,6.1432,6.0925,6.1708,6.2752,6.3684,6.4489,6.5547,6.6255,6.6677,6.6854,6.7056,6.718,6.7387,6.7557,6.7719,6.7879,6.7965,6.8044,6.8083,6.8083,6.8083,6.8083,6.8083,6.8123,6.8241,6.8551,6.8705,6.8892,6.9264,6.9339,6.9376,6.9376,6.9376,6.9376,6.9376,6.9376,6.9376,6.9376,6.9446,6.9691,7.0043,7.0534,7.1166,7.1974,7.2746,7.3167,7.4466,7.3905,7.3764,7.3905,7.3624,7.3378,7.3308,7.3729,7.4128,7.4511,7.4806,7.5322,7.5905,7.7595,7.8739,7.9378,8.0162,8.0981,8.1729,8.1578,8.1362,8.1263,8.1097,8.0575,8.0008,8.0154,8.0478,8.0513,8.0436,8.0215,8.0068,8.0032,7.9685,7.9289,7.9116,7.8899,7.8599,7.8618,7.8852,7.9034,7.9034,7.9236,7.9479,7.94,7.9074,7.9155,7.936,7.9074,7.8657,7.8657,7.8741,7.8829,7.887,7.8657,5.6656,5.6717,5.5899,5.4914,5.4083,5.4715,5.5581,5.645,5.7385,5.894,6.0834,6.134,6.1328,6.1231,6.1773,6.1464,6.0848,6.1305,6.2108,6.3058,6.381,6.4723,6.5673,6.6339,6.6677,6.6854,6.7014,6.718,6.7263,6.755,6.7719,6.7879,6.8004,6.8083,6.8083,6.8083,6.8083,6.8083,6.8083,6.8241,6.8435,6.859,6.8816,6.9115,6.9264,6.9339,6.9376,6.9376,6.9376,6.9376,6.9376,6.9376,6.9376,6.9376,6.9516,6.9656,7.0218,7.092,7.1763,7.3097,7.415,7.4782,7.4185,7.415,7.4607,7.4396,7.3834,7.3694,7.394,7.4084,7.4534,7.5236,7.5863,7.6948,7.86,7.9671,8.0271,8.1047,8.1758,8.208,8.215,8.215,8.2113,8.1982,8.1608,8.1226,8.1054,8.0984,8.102,8.0912,8.0768,8.0658,8.0622,8.025,7.9834,7.9757,7.953,7.9155,7.9034,7.9281,7.94,7.944,7.9754,8.0137,7.9985,7.9597,7.9947,8.029,7.987,7.94,7.8993,7.8952,7.9115,7.9115,7.887,5.5653,5.6039,5.5533,5.4962,5.4453,5.4869,5.5394,5.609,5.7461,5.8639,5.9538,6.0645,6.1281,6.1359,6.1643,6.169,6.1219,6.1337,6.208,6.2773,6.3314,6.4435,6.5418,6.5967,6.6373,6.6711,6.693,6.7056,6.7222,6.7428,6.7597,6.7759,6.7999,6.8083,6.8083,6.8083,6.8083,6.8083,6.8083,6.8236,6.8397,6.8474,6.8667,6.904,6.9153,6.9264,6.9376,6.9376,6.9376,6.9376,6.9376,6.9376,6.9376,6.9376,6.9586,6.9937,7.0499,7.1131,7.2219,7.3448,7.4291,7.4572,7.4501,7.4361,7.4853,7.4396,7.4115,7.401,7.401,7.4303,7.5186,7.5631,7.6328,7.7485,7.8819,7.9676,8.042,8.141,8.2117,8.215,8.2186,8.2186,8.2186,8.2186,8.1919,8.1852,8.1613,8.1476,8.1441,8.1372,8.1231,8.1019,8.0876,8.0585,8.0327,8.0328,8.0103,7.9715,7.9715,7.9911,7.9949,7.9987,8.0177,8.0549,8.0363,8.0175,8.0511,8.0731,8.0622,8.0288,7.9985,7.9519,7.94,7.936,7.9115,5.5684,5.6039,5.5811,5.5579,5.547,5.5658,5.5981,5.6632,5.7803,5.8401,5.8985,6.0297,6.1011,6.1244,6.1684,6.1905,6.1535,6.1729,6.1907,6.2595,6.3026,6.4038,6.4978,6.5595,6.6203,6.6609,6.6812,6.6896,6.7056,6.7139,6.7428,6.7759,6.7925,6.8039,6.8044,6.8083,6.8083,6.8083,6.8083,6.8123,6.828,6.8397,6.8551,6.8816,6.9002,6.9153,6.9264,6.9339,6.9376,6.9376,6.9376,6.9376,6.9376,6.9481,6.9656,7.0007,7.0815,7.1482,7.2606,7.3518,7.4185,7.4537,7.4221,7.4256,7.4572,7.4221,7.408,7.401,7.401,7.4663,7.5395,7.5841,7.7007,7.8167,7.9288,8.0148,8.075,8.1742,8.1985,8.2018,8.2186,8.2186,8.2186,8.2186,8.2121,8.2121,8.2154,8.1985,8.1818,8.1751,8.1681,8.1579,8.1405,8.1231,8.1089,8.0982,8.0695,8.0252,8.0364,8.0549,8.0623,8.0695,8.084,8.0984,8.0876,8.084,8.1019,8.1162,8.1232,8.1267,8.1161,8.0658,7.9985,7.9597,7.936,5.681,5.681,5.681,5.6796,5.68,5.6793,5.7382,5.8211,5.8243,5.8622,5.9222,5.9766,6.0426,6.1078,6.1724,6.1928,6.1782,6.1938,6.2066,6.224,6.2744,6.3714,6.4505,6.5222,6.5831,6.644,6.6779,6.6812,6.6854,6.7097,6.7428,6.7541,6.7559,6.7718,6.7837,6.7876,6.7945,6.8014,6.8083,6.8123,6.8162,6.828,6.8397,6.859,6.8816,6.904,6.919,6.9302,6.9376,6.9376,6.9376,6.9376,6.9376,6.9376,6.9376,6.9762,7.0815,7.1693,7.2535,7.3343,7.3905,7.415,7.408,7.401,7.4045,7.408,7.4045,7.4049,7.4084,7.4765,7.5454,7.6592,7.7723,7.8886,8.0117,8.0766,8.1225,8.1613,8.1717,8.1818,8.2088,8.2154,8.2186,8.2186,8.2186,8.2186,8.2186,8.2154,8.2055,8.2055,8.2051,8.2182,8.2047,8.1982,8.1812,8.1506,8.1403,8.0983,8.1018,8.1123,8.1228,8.1403,8.1472,8.1542,8.151,8.151,8.1579,8.1785,8.1952,8.1985,8.1818,8.1372,8.0585,7.9947,7.9597,5.681,5.681,5.7163,5.7211,5.7084,5.7418,5.7854,5.8274,5.8321,5.8479,5.8637,5.9575,6.0141,6.042,6.1328,6.1702,6.1825,6.1896,6.1991,6.2232,6.2527,6.3147,6.3829,6.4613,6.5324,6.6,6.6474,6.6711,6.6821,6.7022,6.6828,6.6764,6.689,6.7089,6.7246,6.7325,6.7635,6.7945,6.8014,6.8083,6.8083,6.8162,6.828,6.8435,6.8628,6.8854,6.9078,6.9264,6.9339,6.9376,6.9376,6.9376,6.9376,6.9376,6.9411,6.9481,7.0323,7.1166,7.1974,7.2711,7.3413,7.3905,7.401,7.401,7.401,7.401,7.401,7.4088,7.4276,7.4851,7.5858,7.7024,7.8338,7.9645,8.0551,8.0804,8.1232,8.151,8.1579,8.1818,8.2018,8.2154,8.2186,8.2186,8.2186,8.2186,8.2186,8.2186,8.2186,8.2186,8.2284,8.2407,8.2343,8.2215,8.2047,8.1742,8.1812,8.1812,8.1776,8.1842,8.2072,8.2206,8.2141,8.2047,8.1885,8.1919,8.2088,8.2186,8.2251,8.2219,8.2055,8.1647,8.1196,8.0511,7.9831,5.681,5.6858,5.7067,5.7211,5.7353,5.7731,5.8043,5.8274,5.8321,5.8321,5.8444,5.9479,5.9996,6.0207,6.124,6.1865,6.1857,6.2058,6.2183,6.2223,6.2341,6.2882,6.3497,6.4005,6.4783,6.5493,6.6034,6.6271,6.638,6.6125,6.5922,6.5818,6.5983,6.622,6.6411,6.6562,6.698,6.7497,6.7876,6.8049,6.8083,6.8083,6.8162,6.828,6.8474,6.8705,6.893,6.9155,6.9302,6.9376,6.9376,6.9376,6.9376,6.9376,6.9376,6.9516,7.0113,7.0955,7.1728,7.243,7.3167,7.3729,7.401,7.401,7.4049,7.4088,7.4092,7.4206,7.4502,7.5012,7.6196,7.7385,7.8917,8.0442,8.0586,8.0694,8.1055,8.1407,8.1613,8.1852,8.1985,8.2154,8.2186,8.2186,8.2186,8.2186,8.2186,8.2186,8.2186,8.2186,8.2348,8.2539,8.2444,8.2348,8.2145,8.2109,8.2242,8.237,8.2465,8.2591,8.2904,8.2752,8.2439,8.2279,8.2219,8.2219,8.2219,8.2284,8.2316,8.2284,8.2284,8.2051,8.1579,8.0876,8.0213,5.681,5.681,5.681,5.7115,5.7543,5.7825,5.8058,5.8274,5.8321,5.8321,5.8504,5.9476,5.999,6.0302,6.136,6.1971,6.207,6.2229,6.2341,6.2381,6.2381,6.2753,6.3125,6.3525,6.4377,6.5189,6.5595,6.5595,6.5425,6.5271,6.5081,6.4835,6.4994,6.5231,6.5538,6.5899,6.6424,6.7152,6.7738,6.8083,6.8083,6.8083,6.8083,6.8123,6.8319,6.8513,6.8705,6.8967,6.919,6.9339,6.9376,6.9376,6.9376,6.9376,6.9376,6.9516,6.9937,7.0569,7.1342,7.2114,7.2922,7.3518,7.394,7.4014,7.4128,7.417,7.4209,7.4287,7.4547,7.5387,7.6467,7.7253,7.8522,7.9863,8.0478,8.0659,8.102,8.1372,8.1647,8.1852,8.2088,8.2186,8.2186,8.2186,8.2186,8.2186,8.2186,8.2186,8.2186,8.2186,8.238,8.2602,8.2539,8.2508,8.2628,8.2591,8.2721,8.2843,8.2934,8.3001,8.3061,8.285,8.2571,8.2412,8.2284,8.2251,8.2251,8.2316,8.2375,8.2444,8.2444,8.2375,8.1915,8.1196,8.0585,5.681,5.681,5.6971,5.7353,5.7778,5.7871,5.8058,5.8274,5.8321,5.8321,5.8518,5.9431,6.0087,6.0397,6.1513,6.211,6.2302,6.2341,6.2381,6.2381,6.2415,6.2482,6.2787,6.3226,6.4005,6.4546,6.485,6.485,6.4749,6.462,6.4362,6.4081,6.4166,6.4362,6.4667,6.513,6.5895,6.6803,6.7428,6.7911,6.8083,6.8083,6.8083,6.8162,6.828,6.8474,6.8667,6.893,6.919,6.9339,6.9376,6.9376,6.9376,6.9376,6.9376,6.9446,6.9621,7.0148,7.085,7.1587,7.2325,7.3097,7.3553,7.3952,7.417,7.4248,7.4364,7.4441,7.4846,7.5719,7.6621,7.7301,7.8091,7.9285,8.0333,8.0623,8.0912,8.1302,8.1613,8.1919,8.2154,8.2186,8.2186,8.2186,8.2186,8.2186,8.2186,8.2186,8.2186,8.2219,8.2412,8.2571,8.2665,8.2696,8.288,8.3001,8.3001,8.3031,8.3091,8.3151,8.318,8.2911,8.2602,8.2444,8.2279,8.2284,8.2284,8.2343,8.2439,8.2534,8.2534,8.2534,8.2113,8.1439,8.084,5.681,5.681,5.7019,5.7353,5.7684,5.7825,5.8011,5.8274,5.8321,5.8427,5.8837,5.9696,6.0184,6.0525,6.1595,6.2189,6.2381,6.2415,6.2415,6.2415,6.2415,6.2415,6.2618,6.2854,6.3396,6.3937,6.4072,6.4106,6.4072,6.3666,6.334,6.3255,6.33,6.349,6.3794,6.4354,6.5263,6.6308,6.6975,6.7497,6.7945,6.8083,6.8083,6.8162,6.8201,6.8397,6.8551,6.8816,6.9005,6.9227,6.9339,6.9376,6.9376,6.9376,6.9376,6.9376,6.9481,6.9691,7.0394,7.0991,7.1728,7.257,7.3097,7.3456,7.4248,7.4364,7.4555,7.4669,7.4857,7.5654,7.6733,7.7523,7.8531,7.9682,8.0116,8.0363,8.0731,8.1162,8.1579,8.2055,8.2186,8.2186,8.2186,8.2186,8.2186,8.2186,8.2186,8.2186,8.2186,8.2251,8.2444,8.2602,8.2665,8.285,8.3031,8.3121,8.3121,8.318,8.318,8.3151,8.3091,8.285,8.2633,8.2476,8.2343,8.2316,8.2348,8.2407,8.2597,8.2721,8.2721,8.2622,8.2141,8.1644,8.1018,5.681,5.681,5.6971,5.7227,5.7543,5.7731,5.8011,5.8274,5.8321,5.8592,5.9061,5.9773,6.0171,6.0861,6.1588,6.2104,6.2381,6.2415,6.2415,6.2415,6.2415,6.2415,6.2415,6.2516,6.2956,6.3294,6.3531,6.3429,6.3362,6.2956,6.2691,6.2454,6.2537,6.2688,6.2804,6.3307,6.429,6.5504,6.6342,6.6975,6.7532,6.8083,6.8083,6.8083,6.8123,6.8201,6.8397,6.859,6.8816,6.9078,6.9302,6.9376,6.9376,6.9376,6.9376,6.9376,6.9376,6.9691,7.0183,7.0499,7.1412,7.2219,7.257,7.3213,7.4005,7.4479,7.4669,7.4894,7.5079,7.5585,7.6626,7.7523,7.8564,7.9643,7.9827,8.0211,8.0658,8.109,8.1683,8.2186,8.2186,8.2186,8.2186,8.2186,8.2186,8.2186,8.2186,8.2186,8.2219,8.2316,8.2476,8.2633,8.2727,8.2941,8.3151,8.318,8.318,8.318,8.318,8.3091,8.2964,8.2819,8.2665,8.2539,8.2412,8.2348,8.2444,8.2571,8.2758,8.2874,8.2843,8.2684,8.2242,8.1712,8.1161,5.681,5.681,5.6858,5.7115,5.7495,5.759,5.7825,5.8274,5.8289,5.8369,5.8654,5.9186,5.9942,6.1111,6.1276,6.1656,6.2042,6.2178,6.2381,6.2415,6.2381,6.2381,6.2415,6.2415,6.2482,6.2753,6.3091,6.3091,6.2922,6.2584,6.2415,6.242,6.242,6.2571,6.2795,6.3397,6.42,6.5319,6.6195,6.6966,6.7704,6.8083,6.8083,6.8083,6.8083,6.8201,6.8358,6.8435,6.874,6.904,6.9299,6.9376,6.9376,6.9376,6.9376,6.9376,6.9376,6.9481,6.9832,7.0148,7.0991,7.1728,7.2258,7.3185,7.3905,7.4482,7.4709,7.5042,7.5225,7.537,7.6195,7.6552,7.7487,7.8819,7.9465,8.0261,8.0912,8.1441,8.1989,8.2154,8.2186,8.2186,8.2186,8.2186,8.2186,8.2186,8.2186,8.2186,8.2219,8.2348,8.2508,8.2665,8.2788,8.2971,8.3151,8.318,8.318,8.318,8.318,8.3151,8.3031,8.285,8.2696,8.2571,8.2444,8.2348,8.2476,8.2633,8.285,8.2971,8.2934,8.2782,8.2307,8.1779,8.116]}]]